<?xml version='1.0' encoding='UTF-8'?><gpx version="1.1" creator="JPX - https://github.com/jenetics/jpx" xmlns="http://www.topografix.com/GPX/1/1"><trk><trkseg><trkpt lat="44.0248628" lon="10.7133632"><ele>697.0</ele><time>2026-04-29T17:38:04.01Z</time></trkpt><trkpt lat="44.024918" lon="10.7132776"><ele>697.0</ele><time>2026-04-29T17:38:06.988Z</time></trkpt><trkpt lat="44.0248211" lon="10.7131875"><ele>697.0</ele><time>2026-04-29T17:38:09.983Z</time></trkpt><trkpt lat="44.02476" lon="10.7131432"><ele>697.0</ele><time>2026-04-29T17:38:11.002Z</time></trkpt><trkpt lat="44.0246994" lon="10.7131073"><ele>697.0</ele><time>2026-04-29T17:38:12.013Z</time></trkpt><trkpt lat="44.0246212" lon="10.713071"><ele>697.0</ele><time>2026-04-29T17:38:13.006Z</time></trkpt><trkpt lat="44.0245495" lon="10.7130183"><ele>697.0</ele><time>2026-04-29T17:38:14.013Z</time></trkpt><trkpt lat="44.0244747" lon="10.7129577"><ele>697.0</ele><time>2026-04-29T17:38:15.002Z</time></trkpt><trkpt lat="44.0244071" lon="10.7128816"><ele>697.0</ele><time>2026-04-29T17:38:16.007Z</time></trkpt><trkpt lat="44.0243396" lon="10.7128101"><ele>697.0</ele><time>2026-04-29T17:38:16.993Z</time></trkpt><trkpt lat="44.024263" lon="10.712753"><ele>697.0</ele><time>2026-04-29T17:38:17.995Z</time></trkpt><trkpt lat="44.0241881" lon="10.7127251"><ele>697.0</ele><time>2026-04-29T17:38:19.009Z</time></trkpt><trkpt lat="44.0240867" lon="10.7127833"><ele>706.2</ele><time>2026-04-29T17:38:21.004Z</time></trkpt><trkpt lat="44.0240495" lon="10.7129264"><ele>715.4000000000001</ele><time>2026-04-29T17:38:23.014Z</time></trkpt><trkpt lat="44.0240594" lon="10.7130487"><ele>724.5999999999999</ele><time>2026-04-29T17:38:23.997Z</time></trkpt><trkpt lat="44.0240566" lon="10.7131862"><ele>733.8</ele><time>2026-04-29T17:38:25.025Z</time></trkpt><trkpt lat="44.0240442" lon="10.7133032"><ele>743.0</ele><time>2026-04-29T17:38:26.016Z</time></trkpt><trkpt lat="44.0240249" lon="10.7134"><ele>743.0</ele><time>2026-04-29T17:38:27.001Z</time></trkpt><trkpt lat="44.0239843" lon="10.713473"><ele>743.0</ele><time>2026-04-29T17:38:28.023Z</time></trkpt><trkpt lat="44.0239197" lon="10.713551"><ele>743.0</ele><time>2026-04-29T17:38:29.013Z</time></trkpt><trkpt lat="44.0238374" lon="10.713628"><ele>743.0</ele><time>2026-04-29T17:38:30.025Z</time></trkpt><trkpt lat="44.023755" lon="10.7137164"><ele>743.0</ele><time>2026-04-29T17:38:31.011Z</time></trkpt><trkpt lat="44.0236812" lon="10.7138233"><ele>740.0</ele><time>2026-04-29T17:38:32.021Z</time></trkpt><trkpt lat="44.0236263" lon="10.7139532"><ele>737.0</ele><time>2026-04-29T17:38:33.009Z</time></trkpt><trkpt lat="44.0235945" lon="10.7140962"><ele>734.0</ele><time>2026-04-29T17:38:34.02Z</time></trkpt><trkpt lat="44.0235655" lon="10.7142324"><ele>731.0</ele><time>2026-04-29T17:38:35.013Z</time></trkpt><trkpt lat="44.0235227" lon="10.7143401"><ele>728.0</ele><time>2026-04-29T17:38:36.016Z</time></trkpt><trkpt lat="44.0234746" lon="10.714428"><ele>724.6666666666666</ele><time>2026-04-29T17:38:37.009Z</time></trkpt><trkpt lat="44.0234059" lon="10.7145217"><ele>721.3333333333333</ele><time>2026-04-29T17:38:38.018Z</time></trkpt><trkpt lat="44.0233326" lon="10.7146205"><ele>718.0</ele><time>2026-04-29T17:38:39.014Z</time></trkpt><trkpt lat="44.0232795" lon="10.7147152"><ele>714.6666666666666</ele><time>2026-04-29T17:38:40.007Z</time></trkpt><trkpt lat="44.0232209" lon="10.7147912"><ele>711.3333333333334</ele><time>2026-04-29T17:38:41.019Z</time></trkpt><trkpt lat="44.0231533" lon="10.7148428"><ele>708.0</ele><time>2026-04-29T17:38:42.013Z</time></trkpt><trkpt lat="44.0230823" lon="10.7148768"><ele>717.8</ele><time>2026-04-29T17:38:43.024Z</time></trkpt><trkpt lat="44.0230123" lon="10.7148919"><ele>727.5999999999999</ele><time>2026-04-29T17:38:44.022Z</time></trkpt><trkpt lat="44.0229379" lon="10.7148841"><ele>737.4000000000001</ele><time>2026-04-29T17:38:45.01Z</time></trkpt><trkpt lat="44.022866" lon="10.7148665"><ele>747.2</ele><time>2026-04-29T17:38:46.007Z</time></trkpt><trkpt lat="44.02277" lon="10.7148426"><ele>757.0</ele><time>2026-04-29T17:38:48.007Z</time></trkpt><trkpt lat="44.022718" lon="10.7150216"><ele>757.0</ele><time>2026-04-29T17:38:50.019Z</time></trkpt><trkpt lat="44.0226895" lon="10.715175"><ele>757.0</ele><time>2026-04-29T17:38:50.996Z</time></trkpt><trkpt lat="44.0226449" lon="10.7152969"><ele>757.0</ele><time>2026-04-29T17:38:52.005Z</time></trkpt><trkpt lat="44.0226008" lon="10.7154041"><ele>757.0</ele><time>2026-04-29T17:38:53.005Z</time></trkpt><trkpt lat="44.0225591" lon="10.7154974"><ele>757.0</ele><time>2026-04-29T17:38:54.008Z</time></trkpt><trkpt lat="44.0225323" lon="10.7155973"><ele>756.0</ele><time>2026-04-29T17:38:55.005Z</time></trkpt><trkpt lat="44.0225022" lon="10.7156992"><ele>755.0</ele><time>2026-04-29T17:38:56.007Z</time></trkpt><trkpt lat="44.0224861" lon="10.7158343"><ele>754.0</ele><time>2026-04-29T17:38:57.004Z</time></trkpt><trkpt lat="44.0225166" lon="10.7159619"><ele>753.0</ele><time>2026-04-29T17:38:58.004Z</time></trkpt><trkpt lat="44.0225594" lon="10.7160797"><ele>752.0</ele><time>2026-04-29T17:38:59.003Z</time></trkpt><trkpt lat="44.0226032" lon="10.7161705"><ele>751.0</ele><time>2026-04-29T17:39:00.008Z</time></trkpt><trkpt lat="44.0225788" lon="10.7169542"><ele>751.8</ele><time>2026-04-29T17:39:07.004Z</time></trkpt><trkpt lat="44.0224871" lon="10.7170018"><ele>752.5999999999999</ele><time>2026-04-29T17:39:07.997Z</time></trkpt><trkpt lat="44.0224015" lon="10.7170729"><ele>753.4</ele><time>2026-04-29T17:39:09.009Z</time></trkpt><trkpt lat="44.0223662" lon="10.7171552"><ele>754.2</ele><time>2026-04-29T17:39:09.998Z</time></trkpt><trkpt lat="44.022283" lon="10.7172314"><ele>755.0</ele><time>2026-04-29T17:39:11.007Z</time></trkpt><trkpt lat="44.0220833" lon="10.7171772"><ele>755.0</ele><time>2026-04-29T17:39:13.003Z</time></trkpt><trkpt lat="44.0219815" lon="10.7171919"><ele>755.0</ele><time>2026-04-29T17:39:14.006Z</time></trkpt><trkpt lat="44.0219012" lon="10.7172156"><ele>755.0</ele><time>2026-04-29T17:39:14.995Z</time></trkpt><trkpt lat="44.021832" lon="10.717237"><ele>755.0</ele><time>2026-04-29T17:39:16.016Z</time></trkpt><trkpt lat="44.021741" lon="10.7173482"><ele>755.0</ele><time>2026-04-29T17:39:17.999Z</time></trkpt><trkpt lat="44.0216843" lon="10.717412"><ele>755.0</ele><time>2026-04-29T17:39:19.005Z</time></trkpt><trkpt lat="44.0216196" lon="10.717501"><ele>757.4</ele><time>2026-04-29T17:39:20.01Z</time></trkpt><trkpt lat="44.0215253" lon="10.7175766"><ele>759.8</ele><time>2026-04-29T17:39:21.004Z</time></trkpt><trkpt lat="44.0214264" lon="10.7176511"><ele>762.2</ele><time>2026-04-29T17:39:22.012Z</time></trkpt><trkpt lat="44.0213268" lon="10.7177122"><ele>764.6</ele><time>2026-04-29T17:39:23.007Z</time></trkpt><trkpt lat="44.0212344" lon="10.7177835"><ele>767.0</ele><time>2026-04-29T17:39:24.005Z</time></trkpt><trkpt lat="44.0211454" lon="10.717865"><ele>767.0</ele><time>2026-04-29T17:39:25.007Z</time></trkpt><trkpt lat="44.0210664" lon="10.7179455"><ele>767.0</ele><time>2026-04-29T17:39:26.011Z</time></trkpt><trkpt lat="44.0210225" lon="10.7180227"><ele>767.0</ele><time>2026-04-29T17:39:27.007Z</time></trkpt><trkpt lat="44.0210075" lon="10.7181256"><ele>767.0</ele><time>2026-04-29T17:39:28.018Z</time></trkpt><trkpt lat="44.0209883" lon="10.7182213"><ele>767.0</ele><time>2026-04-29T17:39:29.016Z</time></trkpt><trkpt lat="44.0209488" lon="10.7183091"><ele>767.0</ele><time>2026-04-29T17:39:30.018Z</time></trkpt><trkpt lat="44.0208964" lon="10.7183934"><ele>767.0</ele><time>2026-04-29T17:39:31.004Z</time></trkpt><trkpt lat="44.0208365" lon="10.7184737"><ele>767.0</ele><time>2026-04-29T17:39:32.01Z</time></trkpt><trkpt lat="44.0207743" lon="10.7185424"><ele>767.0</ele><time>2026-04-29T17:39:33.013Z</time></trkpt><trkpt lat="44.020705" lon="10.718597"><ele>767.0</ele><time>2026-04-29T17:39:34.012Z</time></trkpt><trkpt lat="44.0206325" lon="10.7186324"><ele>767.0</ele><time>2026-04-29T17:39:35.014Z</time></trkpt><trkpt lat="44.0205461" lon="10.7186519"><ele>767.0</ele><time>2026-04-29T17:39:36.014Z</time></trkpt><trkpt lat="44.0204535" lon="10.7186598"><ele>765.0</ele><time>2026-04-29T17:39:37.027Z</time></trkpt><trkpt lat="44.020361" lon="10.7186843"><ele>763.0</ele><time>2026-04-29T17:39:38.013Z</time></trkpt><trkpt lat="44.0202782" lon="10.7187248"><ele>761.0</ele><time>2026-04-29T17:39:39.012Z</time></trkpt><trkpt lat="44.0202071" lon="10.7187576"><ele>759.0</ele><time>2026-04-29T17:39:40.016Z</time></trkpt><trkpt lat="44.0201407" lon="10.718769"><ele>757.0</ele><time>2026-04-29T17:39:41.009Z</time></trkpt><trkpt lat="44.020065" lon="10.7187284"><ele>755.0</ele><time>2026-04-29T17:39:42.013Z</time></trkpt><trkpt lat="44.0199855" lon="10.7186545"><ele>762.4</ele><time>2026-04-29T17:39:43.004Z</time></trkpt><trkpt lat="44.0198886" lon="10.7185765"><ele>769.8</ele><time>2026-04-29T17:39:44.012Z</time></trkpt><trkpt lat="44.0197969" lon="10.7185131"><ele>777.2</ele><time>2026-04-29T17:39:45.011Z</time></trkpt><trkpt lat="44.0197157" lon="10.7184557"><ele>784.6</ele><time>2026-04-29T17:39:46.021Z</time></trkpt><trkpt lat="44.0196581" lon="10.7183766"><ele>792.0</ele><time>2026-04-29T17:39:47.013Z</time></trkpt><trkpt lat="44.0196149" lon="10.7182937"><ele>794.2</ele><time>2026-04-29T17:39:48.025Z</time></trkpt><trkpt lat="44.0195835" lon="10.7182082"><ele>796.4000000000001</ele><time>2026-04-29T17:39:49.005Z</time></trkpt><trkpt lat="44.0195839" lon="10.7180296"><ele>798.5999999999999</ele><time>2026-04-29T17:39:51.006Z</time></trkpt><trkpt lat="44.019584" lon="10.7179369"><ele>800.8</ele><time>2026-04-29T17:39:51.999Z</time></trkpt><trkpt lat="44.0195296" lon="10.7178027"><ele>803.0</ele><time>2026-04-29T17:39:54.011Z</time></trkpt><trkpt lat="44.0194358" lon="10.7177573"><ele>803.0</ele><time>2026-04-29T17:39:55.993Z</time></trkpt><trkpt lat="44.0193361" lon="10.7178192"><ele>803.0</ele><time>2026-04-29T17:39:58.013Z</time></trkpt><trkpt lat="44.019274" lon="10.7179211"><ele>803.0</ele><time>2026-04-29T17:39:59.014Z</time></trkpt><trkpt lat="44.019218" lon="10.7180584"><ele>803.0</ele><time>2026-04-29T17:40:00.011Z</time></trkpt><trkpt lat="44.0191617" lon="10.7182141"><ele>803.0</ele><time>2026-04-29T17:40:01.005Z</time></trkpt><trkpt lat="44.0191056" lon="10.7183534"><ele>812.25</ele><time>2026-04-29T17:40:02.009Z</time></trkpt><trkpt lat="44.0190421" lon="10.7184847"><ele>821.5</ele><time>2026-04-29T17:40:03.001Z</time></trkpt><trkpt lat="44.0189956" lon="10.7186278"><ele>830.75</ele><time>2026-04-29T17:40:04.01Z</time></trkpt><trkpt lat="44.0189645" lon="10.7187865"><ele>840.0</ele><time>2026-04-29T17:40:05.009Z</time></trkpt><trkpt lat="44.0189221" lon="10.7189476"><ele>840.0</ele><time>2026-04-29T17:40:06.013Z</time></trkpt><trkpt lat="44.0188929" lon="10.7190929"><ele>840.0</ele><time>2026-04-29T17:40:07.011Z</time></trkpt><trkpt lat="44.0188818" lon="10.7192237"><ele>840.0</ele><time>2026-04-29T17:40:07.999Z</time></trkpt><trkpt lat="44.018876" lon="10.7193592"><ele>840.0</ele><time>2026-04-29T17:40:09.043Z</time></trkpt><trkpt lat="44.0188533" lon="10.7194921"><ele>840.0</ele><time>2026-04-29T17:40:10.013Z</time></trkpt><trkpt lat="44.0188169" lon="10.7196228"><ele>836.1666666666666</ele><time>2026-04-29T17:40:11.006Z</time></trkpt><trkpt lat="44.0187859" lon="10.7197466"><ele>832.3333333333333</ele><time>2026-04-29T17:40:12.014Z</time></trkpt><trkpt lat="44.0187589" lon="10.7198692"><ele>828.5</ele><time>2026-04-29T17:40:13.01Z</time></trkpt><trkpt lat="44.0187366" lon="10.7199806"><ele>824.6666666666666</ele><time>2026-04-29T17:40:13.999Z</time></trkpt><trkpt lat="44.0187203" lon="10.7200681"><ele>820.8333333333333</ele><time>2026-04-29T17:40:15.006Z</time></trkpt><trkpt lat="44.0186459" lon="10.7200968"><ele>817.0</ele><time>2026-04-29T17:40:18.009Z</time></trkpt><trkpt lat="44.0185888" lon="10.7200335"><ele>817.0</ele><time>2026-04-29T17:40:19.015Z</time></trkpt><trkpt lat="44.0185139" lon="10.7199498"><ele>817.0</ele><time>2026-04-29T17:40:20.003Z</time></trkpt><trkpt lat="44.0184399" lon="10.7198649"><ele>817.0</ele><time>2026-04-29T17:40:21.007Z</time></trkpt><trkpt lat="44.0183688" lon="10.7197913"><ele>817.0</ele><time>2026-04-29T17:40:22.002Z</time></trkpt><trkpt lat="44.0183074" lon="10.7197311"><ele>817.0</ele><time>2026-04-29T17:40:23.002Z</time></trkpt><trkpt lat="44.0182051" lon="10.7197041"><ele>822.2</ele><time>2026-04-29T17:40:25.011Z</time></trkpt><trkpt lat="44.0181179" lon="10.7197994"><ele>827.4000000000001</ele><time>2026-04-29T17:40:27.013Z</time></trkpt><trkpt lat="44.0180824" lon="10.7198958"><ele>832.5999999999999</ele><time>2026-04-29T17:40:28Z</time></trkpt><trkpt lat="44.0180643" lon="10.7200305"><ele>837.8</ele><time>2026-04-29T17:40:29.023Z</time></trkpt><trkpt lat="44.0180386" lon="10.7201733"><ele>843.0</ele><time>2026-04-29T17:40:30.025Z</time></trkpt><trkpt lat="44.0180121" lon="10.7203095"><ele>843.0</ele><time>2026-04-29T17:40:31.004Z</time></trkpt><trkpt lat="44.0179799" lon="10.7204382"><ele>843.0</ele><time>2026-04-29T17:40:32.007Z</time></trkpt><trkpt lat="44.0179339" lon="10.7205496"><ele>843.0</ele><time>2026-04-29T17:40:33.008Z</time></trkpt><trkpt lat="44.0178807" lon="10.7206435"><ele>843.0</ele><time>2026-04-29T17:40:34.005Z</time></trkpt><trkpt lat="44.0178171" lon="10.7207262"><ele>843.0</ele><time>2026-04-29T17:40:35.006Z</time></trkpt><trkpt lat="44.0177495" lon="10.7208163"><ele>843.0</ele><time>2026-04-29T17:40:36.019Z</time></trkpt><trkpt lat="44.0176919" lon="10.7209193"><ele>843.0</ele><time>2026-04-29T17:40:37.011Z</time></trkpt><trkpt lat="44.0176373" lon="10.7210362"><ele>843.0</ele><time>2026-04-29T17:40:38.014Z</time></trkpt><trkpt lat="44.0175889" lon="10.7211535"><ele>843.0</ele><time>2026-04-29T17:40:39.015Z</time></trkpt><trkpt lat="44.0175328" lon="10.7212451"><ele>843.0</ele><time>2026-04-29T17:40:40.013Z</time></trkpt><trkpt lat="44.0174606" lon="10.7212978"><ele>845.4</ele><time>2026-04-29T17:40:41.025Z</time></trkpt><trkpt lat="44.017377" lon="10.7213441"><ele>847.8</ele><time>2026-04-29T17:40:42.012Z</time></trkpt><trkpt lat="44.0172864" lon="10.7213737"><ele>850.2</ele><time>2026-04-29T17:40:43.018Z</time></trkpt><trkpt lat="44.0171977" lon="10.7214187"><ele>852.6</ele><time>2026-04-29T17:40:44.017Z</time></trkpt><trkpt lat="44.0171133" lon="10.7214728"><ele>855.0</ele><time>2026-04-29T17:40:45.023Z</time></trkpt><trkpt lat="44.0170319" lon="10.7215318"><ele>855.0</ele><time>2026-04-29T17:40:46.02Z</time></trkpt><trkpt lat="44.0169642" lon="10.7216129"><ele>855.0</ele><time>2026-04-29T17:40:47.015Z</time></trkpt><trkpt lat="44.0169013" lon="10.7217121"><ele>855.0</ele><time>2026-04-29T17:40:48.013Z</time></trkpt><trkpt lat="44.016833" lon="10.7218024"><ele>855.0</ele><time>2026-04-29T17:40:49.015Z</time></trkpt><trkpt lat="44.016768" lon="10.7218891"><ele>855.0</ele><time>2026-04-29T17:40:50.013Z</time></trkpt><trkpt lat="44.0166991" lon="10.7219759"><ele>852.3333333333334</ele><time>2026-04-29T17:40:51.006Z</time></trkpt><trkpt lat="44.0166262" lon="10.7220596"><ele>849.6666666666667</ele><time>2026-04-29T17:40:52.001Z</time></trkpt><trkpt lat="44.0165554" lon="10.7221356"><ele>847.0</ele><time>2026-04-29T17:40:53.002Z</time></trkpt><trkpt lat="44.0164752" lon="10.7221887"><ele>844.3333333333334</ele><time>2026-04-29T17:40:54.02Z</time></trkpt><trkpt lat="44.0164019" lon="10.7222372"><ele>841.6666666666667</ele><time>2026-04-29T17:40:55.009Z</time></trkpt><trkpt lat="44.0163384" lon="10.7222514"><ele>839.0</ele><time>2026-04-29T17:40:56.008Z</time></trkpt><trkpt lat="44.01625" lon="10.7221925"><ele>839.0000000000001</ele><time>2026-04-29T17:40:58.021Z</time></trkpt><trkpt lat="44.016219" lon="10.7220443"><ele>839.0</ele><time>2026-04-29T17:41:00.023Z</time></trkpt><trkpt lat="44.0162196" lon="10.721941"><ele>839.0</ele><time>2026-04-29T17:41:01.016Z</time></trkpt><trkpt lat="44.0162352" lon="10.7218233"><ele>839.0</ele><time>2026-04-29T17:41:02.017Z</time></trkpt><trkpt lat="44.0162573" lon="10.7217016"><ele>839.0000000000001</ele><time>2026-04-29T17:41:03.011Z</time></trkpt><trkpt lat="44.016267" lon="10.7215873"><ele>839.0</ele><time>2026-04-29T17:41:04.032Z</time></trkpt><trkpt lat="44.0162594" lon="10.7214835"><ele>843.0</ele><time>2026-04-29T17:41:05.009Z</time></trkpt><trkpt lat="44.0161755" lon="10.7213741"><ele>847.0</ele><time>2026-04-29T17:41:07.026Z</time></trkpt><trkpt lat="44.0160384" lon="10.7213825"><ele>851.0000000000001</ele><time>2026-04-29T17:41:09.016Z</time></trkpt><trkpt lat="44.0159441" lon="10.7214342"><ele>855.0</ele><time>2026-04-29T17:41:10.011Z</time></trkpt><trkpt lat="44.0158673" lon="10.7215023"><ele>859.0</ele><time>2026-04-29T17:41:11.009Z</time></trkpt><trkpt lat="44.0158079" lon="10.7215816"><ele>860.6</ele><time>2026-04-29T17:41:12.02Z</time></trkpt><trkpt lat="44.0156988" lon="10.721642"><ele>862.2</ele><time>2026-04-29T17:41:14.03Z</time></trkpt><trkpt lat="44.0156416" lon="10.7215967"><ele>863.8000000000001</ele><time>2026-04-29T17:41:15.006Z</time></trkpt><trkpt lat="44.0155919" lon="10.7215085"><ele>865.4000000000001</ele><time>2026-04-29T17:41:16.018Z</time></trkpt><trkpt lat="44.0155407" lon="10.7213874"><ele>867.0</ele><time>2026-04-29T17:41:17.016Z</time></trkpt><trkpt lat="44.0154946" lon="10.721254"><ele>867.0</ele><time>2026-04-29T17:41:18.011Z</time></trkpt><trkpt lat="44.0154438" lon="10.7211118"><ele>867.0</ele><time>2026-04-29T17:41:19.024Z</time></trkpt><trkpt lat="44.0153976" lon="10.7209651"><ele>867.0</ele><time>2026-04-29T17:41:20.013Z</time></trkpt><trkpt lat="44.0153557" lon="10.7208259"><ele>867.0</ele><time>2026-04-29T17:41:21.013Z</time></trkpt><trkpt lat="44.0153226" lon="10.7207092"><ele>867.0</ele><time>2026-04-29T17:41:22.019Z</time></trkpt><trkpt lat="44.0152816" lon="10.7205988"><ele>869.1666666666666</ele><time>2026-04-29T17:41:23.014Z</time></trkpt><trkpt lat="44.0152273" lon="10.7204996"><ele>871.3333333333333</ele><time>2026-04-29T17:41:24.031Z</time></trkpt><trkpt lat="44.0151592" lon="10.7204212"><ele>873.5</ele><time>2026-04-29T17:41:25.001Z</time></trkpt><trkpt lat="44.015099" lon="10.7203589"><ele>875.6666666666666</ele><time>2026-04-29T17:41:26.014Z</time></trkpt><trkpt lat="44.0150281" lon="10.7203052"><ele>877.8333333333333</ele><time>2026-04-29T17:41:27.005Z</time></trkpt><trkpt lat="44.0149545" lon="10.7202566"><ele>880.0</ele><time>2026-04-29T17:41:28.017Z</time></trkpt><trkpt lat="44.014873" lon="10.7202014"><ele>881.25</ele><time>2026-04-29T17:41:29.015Z</time></trkpt><trkpt lat="44.0147811" lon="10.7201281"><ele>882.5</ele><time>2026-04-29T17:41:30.011Z</time></trkpt><trkpt lat="44.0146875" lon="10.7200249"><ele>883.75</ele><time>2026-04-29T17:41:31.026Z</time></trkpt><trkpt lat="44.0145923" lon="10.7199158"><ele>885.0</ele><time>2026-04-29T17:41:32.01Z</time></trkpt><trkpt lat="44.0145109" lon="10.7197983"><ele>885.0</ele><time>2026-04-29T17:41:33.025Z</time></trkpt><trkpt lat="44.0144514" lon="10.7196735"><ele>885.0</ele><time>2026-04-29T17:41:34.02Z</time></trkpt><trkpt lat="44.0144035" lon="10.7195611"><ele>885.0</ele><time>2026-04-29T17:41:35.016Z</time></trkpt><trkpt lat="44.0143695" lon="10.7194596"><ele>885.0</ele><time>2026-04-29T17:41:36.014Z</time></trkpt><trkpt lat="44.0142558" lon="10.7193922"><ele>885.0</ele><time>2026-04-29T17:41:38.012Z</time></trkpt><trkpt lat="44.0141411" lon="10.7194732"><ele>887.5</ele><time>2026-04-29T17:41:40.017Z</time></trkpt><trkpt lat="44.0140979" lon="10.7195444"><ele>890.0</ele><time>2026-04-29T17:41:41.011Z</time></trkpt><trkpt lat="44.0140648" lon="10.7196438"><ele>892.5</ele><time>2026-04-29T17:41:42.011Z</time></trkpt><trkpt lat="44.0140262" lon="10.7197512"><ele>895.0</ele><time>2026-04-29T17:41:43.016Z</time></trkpt><trkpt lat="44.0139863" lon="10.7198631"><ele>897.5</ele><time>2026-04-29T17:41:44.01Z</time></trkpt><trkpt lat="44.0139504" lon="10.7199826"><ele>900.0</ele><time>2026-04-29T17:41:45.019Z</time></trkpt><trkpt lat="44.0139286" lon="10.7200967"><ele>900.0</ele><time>2026-04-29T17:41:46.022Z</time></trkpt><trkpt lat="44.0139335" lon="10.7202117"><ele>900.0</ele><time>2026-04-29T17:41:47.027Z</time></trkpt><trkpt lat="44.0139665" lon="10.7203291"><ele>900.0</ele><time>2026-04-29T17:41:48.013Z</time></trkpt><trkpt lat="44.0139996" lon="10.7204468"><ele>900.0</ele><time>2026-04-29T17:41:49.017Z</time></trkpt><trkpt lat="44.0140059" lon="10.7205391"><ele>900.0</ele><time>2026-04-29T17:41:50.001Z</time></trkpt><trkpt lat="44.0138945" lon="10.7206381"><ele>896.0</ele><time>2026-04-29T17:41:52.002Z</time></trkpt><trkpt lat="44.0138094" lon="10.7206147"><ele>892.0</ele><time>2026-04-29T17:41:53.006Z</time></trkpt><trkpt lat="44.0137005" lon="10.720569"><ele>888.0</ele><time>2026-04-29T17:41:54.014Z</time></trkpt><trkpt lat="44.0135715" lon="10.7205042"><ele>884.0</ele><time>2026-04-29T17:41:55.013Z</time></trkpt><trkpt lat="44.013441" lon="10.7204272"><ele>884.0</ele><time>2026-04-29T17:41:56.028Z</time></trkpt><trkpt lat="44.0133247" lon="10.7203678"><ele>884.0</ele><time>2026-04-29T17:41:57.003Z</time></trkpt><trkpt lat="44.0132097" lon="10.7203285"><ele>884.0</ele><time>2026-04-29T17:41:58.037Z</time></trkpt><trkpt lat="44.013095" lon="10.7202898"><ele>884.0</ele><time>2026-04-29T17:41:59.014Z</time></trkpt><trkpt lat="44.0129788" lon="10.7202644"><ele>885.1666666666667</ele><time>2026-04-29T17:42:00.027Z</time></trkpt><trkpt lat="44.0128821" lon="10.7202355"><ele>886.3333333333334</ele><time>2026-04-29T17:42:01.016Z</time></trkpt><trkpt lat="44.012807" lon="10.7202162"><ele>887.5</ele><time>2026-04-29T17:42:02.011Z</time></trkpt><trkpt lat="44.0127398" lon="10.7202275"><ele>888.6666666666667</ele><time>2026-04-29T17:42:03.015Z</time></trkpt><trkpt lat="44.0126515" lon="10.7202687"><ele>889.8333333333334</ele><time>2026-04-29T17:42:04.028Z</time></trkpt><trkpt lat="44.0125653" lon="10.7203217"><ele>891.0</ele><time>2026-04-29T17:42:05.02Z</time></trkpt><trkpt lat="44.0124962" lon="10.7203758"><ele>894.0</ele><time>2026-04-29T17:42:06.018Z</time></trkpt><trkpt lat="44.0124396" lon="10.720534"><ele>896.9999999999999</ele><time>2026-04-29T17:42:08.014Z</time></trkpt><trkpt lat="44.0124238" lon="10.7206461"><ele>899.9999999999999</ele><time>2026-04-29T17:42:09.017Z</time></trkpt><trkpt lat="44.0123911" lon="10.7207612"><ele>903.0</ele><time>2026-04-29T17:42:10.018Z</time></trkpt><trkpt lat="44.0123559" lon="10.7208839"><ele>906.0</ele><time>2026-04-29T17:42:11.018Z</time></trkpt><trkpt lat="44.0123177" lon="10.7210111"><ele>902.8</ele><time>2026-04-29T17:42:12.024Z</time></trkpt><trkpt lat="44.0122782" lon="10.7211108"><ele>899.5999999999999</ele><time>2026-04-29T17:42:13.02Z</time></trkpt><trkpt lat="44.0121711" lon="10.7211958"><ele>896.4</ele><time>2026-04-29T17:42:15.026Z</time></trkpt><trkpt lat="44.0120944" lon="10.7212084"><ele>893.2</ele><time>2026-04-29T17:42:16.014Z</time></trkpt><trkpt lat="44.0120089" lon="10.721208"><ele>890.0</ele><time>2026-04-29T17:42:17.015Z</time></trkpt><trkpt lat="44.0119171" lon="10.7211921"><ele>890.0</ele><time>2026-04-29T17:42:18.014Z</time></trkpt><trkpt lat="44.011821" lon="10.7211605"><ele>890.0</ele><time>2026-04-29T17:42:19.024Z</time></trkpt><trkpt lat="44.0117219" lon="10.7211138"><ele>890.0</ele><time>2026-04-29T17:42:20.014Z</time></trkpt><trkpt lat="44.0116293" lon="10.7210618"><ele>890.0</ele><time>2026-04-29T17:42:21.012Z</time></trkpt><trkpt lat="44.0115513" lon="10.7210138"><ele>890.0</ele><time>2026-04-29T17:42:22.02Z</time></trkpt><trkpt lat="44.0114666" lon="10.7209762"><ele>892.8</ele><time>2026-04-29T17:42:23.01Z</time></trkpt><trkpt lat="44.0113658" lon="10.7209432"><ele>895.6</ele><time>2026-04-29T17:42:24.02Z</time></trkpt><trkpt lat="44.0112615" lon="10.7209152"><ele>898.4000000000001</ele><time>2026-04-29T17:42:25.017Z</time></trkpt><trkpt lat="44.0111645" lon="10.7208741"><ele>901.2</ele><time>2026-04-29T17:42:26.022Z</time></trkpt><trkpt lat="44.0110908" lon="10.7208002"><ele>904.0</ele><time>2026-04-29T17:42:27.025Z</time></trkpt><trkpt lat="44.0110328" lon="10.7207247"><ele>903.9999999999999</ele><time>2026-04-29T17:42:28.01Z</time></trkpt><trkpt lat="44.0109786" lon="10.7206416"><ele>904.0</ele><time>2026-04-29T17:42:29.014Z</time></trkpt><trkpt lat="44.0109252" lon="10.7205654"><ele>904.0</ele><time>2026-04-29T17:42:30.013Z</time></trkpt><trkpt lat="44.0108677" lon="10.7205258"><ele>904.0</ele><time>2026-04-29T17:42:31.014Z</time></trkpt><trkpt lat="44.0107752" lon="10.7205319"><ele>903.9999999999999</ele><time>2026-04-29T17:42:33.019Z</time></trkpt><trkpt lat="44.0106852" lon="10.7204903"><ele>904.0</ele><time>2026-04-29T17:42:35.012Z</time></trkpt><trkpt lat="44.0106444" lon="10.7203605"><ele>904.8000000000001</ele><time>2026-04-29T17:42:37.01Z</time></trkpt><trkpt lat="44.010665" lon="10.7202265"><ele>905.6000000000001</ele><time>2026-04-29T17:42:39.005Z</time></trkpt><trkpt lat="44.010775" lon="10.7201673"><ele>906.4</ele><time>2026-04-29T17:42:41.006Z</time></trkpt><trkpt lat="44.0108615" lon="10.7201589"><ele>907.2</ele><time>2026-04-29T17:42:42.011Z</time></trkpt><trkpt lat="44.0109487" lon="10.7201767"><ele>908.0</ele><time>2026-04-29T17:42:43.01Z</time></trkpt><trkpt lat="44.0110428" lon="10.7202072"><ele>907.2</ele><time>2026-04-29T17:42:44.016Z</time></trkpt><trkpt lat="44.0111399" lon="10.720268"><ele>906.4</ele><time>2026-04-29T17:42:45.013Z</time></trkpt><trkpt lat="44.0112296" lon="10.7203454"><ele>905.6000000000001</ele><time>2026-04-29T17:42:46.017Z</time></trkpt><trkpt lat="44.0113155" lon="10.7204142"><ele>904.8000000000001</ele><time>2026-04-29T17:42:47.018Z</time></trkpt><trkpt lat="44.0114011" lon="10.7204651"><ele>904.0</ele><time>2026-04-29T17:42:48.009Z</time></trkpt><trkpt lat="44.0114847" lon="10.7204999"><ele>903.9999999999999</ele><time>2026-04-29T17:42:49.03Z</time></trkpt><trkpt lat="44.0115661" lon="10.7205235"><ele>904.0</ele><time>2026-04-29T17:42:50.011Z</time></trkpt><trkpt lat="44.0116308" lon="10.7205193"><ele>904.0</ele><time>2026-04-29T17:42:51.014Z</time></trkpt><trkpt lat="44.0117107" lon="10.7204411"><ele>904.0</ele><time>2026-04-29T17:42:53.016Z</time></trkpt><trkpt lat="44.0116933" lon="10.7203141"><ele>903.9999999999999</ele><time>2026-04-29T17:42:55.022Z</time></trkpt><trkpt lat="44.0116417" lon="10.7202579"><ele>904.0</ele><time>2026-04-29T17:42:56.014Z</time></trkpt><trkpt lat="44.0115656" lon="10.7202035"><ele>905.0</ele><time>2026-04-29T17:42:57.022Z</time></trkpt><trkpt lat="44.0114677" lon="10.7201151"><ele>906.0</ele><time>2026-04-29T17:42:58.012Z</time></trkpt><trkpt lat="44.0113767" lon="10.720005"><ele>907.0</ele><time>2026-04-29T17:42:59.034Z</time></trkpt><trkpt lat="44.0112922" lon="10.7198717"><ele>908.0</ele><time>2026-04-29T17:43:00.023Z</time></trkpt><trkpt lat="44.0112056" lon="10.7197458"><ele>908.0</ele><time>2026-04-29T17:43:01.014Z</time></trkpt><trkpt lat="44.0111319" lon="10.7196273"><ele>908.0</ele><time>2026-04-29T17:43:02.02Z</time></trkpt><trkpt lat="44.0111026" lon="10.7195148"><ele>908.0</ele><time>2026-04-29T17:43:03.015Z</time></trkpt><trkpt lat="44.0110993" lon="10.7193752"><ele>908.0</ele><time>2026-04-29T17:43:04.038Z</time></trkpt><trkpt lat="44.0111035" lon="10.7192347"><ele>908.0</ele><time>2026-04-29T17:43:04.99Z</time></trkpt><trkpt lat="44.0111136" lon="10.7191034"><ele>910.4</ele><time>2026-04-29T17:43:06.006Z</time></trkpt><trkpt lat="44.0111127" lon="10.7190157"><ele>912.8</ele><time>2026-04-29T17:43:07.024Z</time></trkpt><trkpt lat="44.0110519" lon="10.7188831"><ele>915.2</ele><time>2026-04-29T17:43:09.004Z</time></trkpt><trkpt lat="44.0109702" lon="10.7187811"><ele>917.6</ele><time>2026-04-29T17:43:10.007Z</time></trkpt><trkpt lat="44.0108692" lon="10.7186738"><ele>920.0</ele><time>2026-04-29T17:43:11.018Z</time></trkpt><trkpt lat="44.0107696" lon="10.718552"><ele>920.0</ele><time>2026-04-29T17:43:12.026Z</time></trkpt><trkpt lat="44.0106806" lon="10.7184144"><ele>920.0</ele><time>2026-04-29T17:43:13.022Z</time></trkpt><trkpt lat="44.0106101" lon="10.7182903"><ele>920.0</ele><time>2026-04-29T17:43:14.023Z</time></trkpt><trkpt lat="44.0105562" lon="10.718158"><ele>920.0</ele><time>2026-04-29T17:43:15.022Z</time></trkpt><trkpt lat="44.0105108" lon="10.7180273"><ele>920.0</ele><time>2026-04-29T17:43:16.024Z</time></trkpt><trkpt lat="44.0104833" lon="10.7179203"><ele>920.0</ele><time>2026-04-29T17:43:17.021Z</time></trkpt><trkpt lat="44.0104701" lon="10.7178134"><ele>920.0</ele><time>2026-04-29T17:43:18.029Z</time></trkpt><trkpt lat="44.0104946" lon="10.7177082"><ele>920.0</ele><time>2026-04-29T17:43:19.015Z</time></trkpt><trkpt lat="44.0105513" lon="10.7176014"><ele>920.0</ele><time>2026-04-29T17:43:20.015Z</time></trkpt><trkpt lat="44.0106245" lon="10.7174778"><ele>919.5</ele><time>2026-04-29T17:43:21.023Z</time></trkpt><trkpt lat="44.0107009" lon="10.7173549"><ele>919.0</ele><time>2026-04-29T17:43:22.019Z</time></trkpt><trkpt lat="44.0107827" lon="10.7172278"><ele>918.5</ele><time>2026-04-29T17:43:23.039Z</time></trkpt><trkpt lat="44.010863" lon="10.7171043"><ele>918.0</ele><time>2026-04-29T17:43:24.019Z</time></trkpt><trkpt lat="44.0109469" lon="10.7169779"><ele>922.75</ele><time>2026-04-29T17:43:25.017Z</time></trkpt><trkpt lat="44.0110336" lon="10.716838"><ele>927.5</ele><time>2026-04-29T17:43:26.023Z</time></trkpt><trkpt lat="44.0111205" lon="10.7167008"><ele>932.25</ele><time>2026-04-29T17:43:27.014Z</time></trkpt><trkpt lat="44.0111966" lon="10.7165727"><ele>937.0</ele><time>2026-04-29T17:43:28.022Z</time></trkpt><trkpt lat="44.0112621" lon="10.7164712"><ele>937.0</ele><time>2026-04-29T17:43:29.015Z</time></trkpt><trkpt lat="44.0113161" lon="10.7163937"><ele>937.0</ele><time>2026-04-29T17:43:30.011Z</time></trkpt><trkpt lat="44.0113712" lon="10.7163391"><ele>937.0</ele><time>2026-04-29T17:43:31.013Z</time></trkpt><trkpt lat="44.0114311" lon="10.7162946"><ele>937.0</ele><time>2026-04-29T17:43:32.028Z</time></trkpt><trkpt lat="44.0114904" lon="10.7162502"><ele>937.0</ele><time>2026-04-29T17:43:33.023Z</time></trkpt><trkpt lat="44.0115553" lon="10.7161968"><ele>937.0</ele><time>2026-04-29T17:43:34.026Z</time></trkpt><trkpt lat="44.0116208" lon="10.7161221"><ele>937.0</ele><time>2026-04-29T17:43:35.03Z</time></trkpt><trkpt lat="44.011667" lon="10.716026"><ele>939.4000000000001</ele><time>2026-04-29T17:43:36.017Z</time></trkpt><trkpt lat="44.0116924" lon="10.7158924"><ele>941.8000000000001</ele><time>2026-04-29T17:43:37.041Z</time></trkpt><trkpt lat="44.0117088" lon="10.7157277"><ele>944.2</ele><time>2026-04-29T17:43:38.025Z</time></trkpt><trkpt lat="44.0117172" lon="10.715562"><ele>946.6</ele><time>2026-04-29T17:43:39.013Z</time></trkpt><trkpt lat="44.0117258" lon="10.715409"><ele>949.0</ele><time>2026-04-29T17:43:40.019Z</time></trkpt><trkpt lat="44.0117283" lon="10.7152674"><ele>948.4000000000001</ele><time>2026-04-29T17:43:41.002Z</time></trkpt><trkpt lat="44.0117488" lon="10.7151542"><ele>947.8000000000001</ele><time>2026-04-29T17:43:42.023Z</time></trkpt><trkpt lat="44.0118076" lon="10.7150507"><ele>947.1999999999999</ele><time>2026-04-29T17:43:43.006Z</time></trkpt><trkpt lat="44.0118942" lon="10.7149672"><ele>946.5999999999999</ele><time>2026-04-29T17:43:44.011Z</time></trkpt><trkpt lat="44.0119955" lon="10.7148843"><ele>946.0</ele><time>2026-04-29T17:43:45.014Z</time></trkpt><trkpt lat="44.0120846" lon="10.7147793"><ele>946.0</ele><time>2026-04-29T17:43:46.019Z</time></trkpt><trkpt lat="44.0121583" lon="10.7146576"><ele>945.9999999999999</ele><time>2026-04-29T17:43:47.008Z</time></trkpt><trkpt lat="44.0122189" lon="10.7145261"><ele>945.9999999999999</ele><time>2026-04-29T17:43:48.022Z</time></trkpt><trkpt lat="44.012277" lon="10.7144045"><ele>946.0</ele><time>2026-04-29T17:43:49.012Z</time></trkpt><trkpt lat="44.0123359" lon="10.7142849"><ele>946.0</ele><time>2026-04-29T17:43:50.023Z</time></trkpt><trkpt lat="44.0123989" lon="10.7141618"><ele>944.4</ele><time>2026-04-29T17:43:51.022Z</time></trkpt><trkpt lat="44.0124525" lon="10.7140326"><ele>942.8</ele><time>2026-04-29T17:43:52.012Z</time></trkpt><trkpt lat="44.0124917" lon="10.7138947"><ele>941.1999999999999</ele><time>2026-04-29T17:43:53.019Z</time></trkpt><trkpt lat="44.0125137" lon="10.7137569"><ele>939.5999999999999</ele><time>2026-04-29T17:43:54.022Z</time></trkpt><trkpt lat="44.0125219" lon="10.7136238"><ele>938.0</ele><time>2026-04-29T17:43:55.029Z</time></trkpt><trkpt lat="44.0125285" lon="10.7135055"><ele>941.6666666666667</ele><time>2026-04-29T17:43:56.04Z</time></trkpt><trkpt lat="44.0125543" lon="10.7134186"><ele>945.3333333333334</ele><time>2026-04-29T17:43:57Z</time></trkpt><trkpt lat="44.0126095" lon="10.7133653"><ele>949.0</ele><time>2026-04-29T17:43:58.033Z</time></trkpt><trkpt lat="44.0126817" lon="10.7133218"><ele>952.6666666666667</ele><time>2026-04-29T17:43:59.033Z</time></trkpt><trkpt lat="44.0127694" lon="10.7132968"><ele>956.3333333333334</ele><time>2026-04-29T17:44:00.03Z</time></trkpt><trkpt lat="44.0128521" lon="10.7132566"><ele>960.0</ele><time>2026-04-29T17:44:01.009Z</time></trkpt><trkpt lat="44.0129172" lon="10.7132017"><ele>960.0</ele><time>2026-04-29T17:44:02.02Z</time></trkpt><trkpt lat="44.012972" lon="10.7131145"><ele>960.0</ele><time>2026-04-29T17:44:03.014Z</time></trkpt><trkpt lat="44.0130205" lon="10.7129885"><ele>960.0</ele><time>2026-04-29T17:44:04.012Z</time></trkpt><trkpt lat="44.0130714" lon="10.7128505"><ele>960.0</ele><time>2026-04-29T17:44:05.003Z</time></trkpt><trkpt lat="44.0131219" lon="10.7127047"><ele>960.0</ele><time>2026-04-29T17:44:06.019Z</time></trkpt><trkpt lat="44.013177" lon="10.712578"><ele>957.8</ele><time>2026-04-29T17:44:07.022Z</time></trkpt><trkpt lat="44.013228" lon="10.7124657"><ele>955.6</ele><time>2026-04-29T17:44:08.027Z</time></trkpt><trkpt lat="44.0132941" lon="10.7123473"><ele>953.4000000000001</ele><time>2026-04-29T17:44:09.008Z</time></trkpt><trkpt lat="44.0133549" lon="10.7122227"><ele>951.2</ele><time>2026-04-29T17:44:10.016Z</time></trkpt><trkpt lat="44.0134002" lon="10.712088"><ele>949.0</ele><time>2026-04-29T17:44:11.014Z</time></trkpt><trkpt lat="44.0134327" lon="10.7119547"><ele>952.4000000000001</ele><time>2026-04-29T17:44:12.014Z</time></trkpt><trkpt lat="44.0134586" lon="10.7118487"><ele>955.8000000000001</ele><time>2026-04-29T17:44:13.027Z</time></trkpt><trkpt lat="44.013496" lon="10.711758"><ele>959.1999999999999</ele><time>2026-04-29T17:44:14.025Z</time></trkpt><trkpt lat="44.0135635" lon="10.7116679"><ele>962.5999999999999</ele><time>2026-04-29T17:44:15.025Z</time></trkpt><trkpt lat="44.0136419" lon="10.7115761"><ele>966.0</ele><time>2026-04-29T17:44:16.019Z</time></trkpt><trkpt lat="44.0137212" lon="10.7114791"><ele>966.0</ele><time>2026-04-29T17:44:17.007Z</time></trkpt><trkpt lat="44.0137971" lon="10.7114025"><ele>965.9999999999999</ele><time>2026-04-29T17:44:18.012Z</time></trkpt><trkpt lat="44.0138558" lon="10.7113377"><ele>965.9999999999999</ele><time>2026-04-29T17:44:19.015Z</time></trkpt><trkpt lat="44.0138779" lon="10.7111572"><ele>966.0</ele><time>2026-04-29T17:44:21.015Z</time></trkpt><trkpt lat="44.0138672" lon="10.7110475"><ele>966.0</ele><time>2026-04-29T17:44:22.03Z</time></trkpt><trkpt lat="44.0138786" lon="10.7109366"><ele>964.75</ele><time>2026-04-29T17:44:23.011Z</time></trkpt><trkpt lat="44.0139157" lon="10.7108261"><ele>963.5</ele><time>2026-04-29T17:44:24.011Z</time></trkpt><trkpt lat="44.0139772" lon="10.7106955"><ele>962.25</ele><time>2026-04-29T17:44:25.004Z</time></trkpt><trkpt lat="44.0140532" lon="10.7105548"><ele>961.0</ele><time>2026-04-29T17:44:26.011Z</time></trkpt><trkpt lat="44.0141247" lon="10.7104155"><ele>965.0</ele><time>2026-04-29T17:44:27.01Z</time></trkpt><trkpt lat="44.0141922" lon="10.7102668"><ele>969.0</ele><time>2026-04-29T17:44:28.018Z</time></trkpt><trkpt lat="44.0142498" lon="10.7101099"><ele>973.0</ele><time>2026-04-29T17:44:29.021Z</time></trkpt><trkpt lat="44.0142943" lon="10.7099651"><ele>977.0</ele><time>2026-04-29T17:44:30.023Z</time></trkpt><trkpt lat="44.0143372" lon="10.7098354"><ele>977.0</ele><time>2026-04-29T17:44:31.04Z</time></trkpt><trkpt lat="44.0143927" lon="10.7097346"><ele>977.0</ele><time>2026-04-29T17:44:32.02Z</time></trkpt><trkpt lat="44.0144608" lon="10.7096485"><ele>977.0</ele><time>2026-04-29T17:44:33.019Z</time></trkpt><trkpt lat="44.0145106" lon="10.7095573"><ele>977.0</ele><time>2026-04-29T17:44:34.03Z</time></trkpt><trkpt lat="44.0145454" lon="10.7094372"><ele>977.0</ele><time>2026-04-29T17:44:35.015Z</time></trkpt><trkpt lat="44.0145686" lon="10.7092828"><ele>976.5</ele><time>2026-04-29T17:44:36.026Z</time></trkpt><trkpt lat="44.0145969" lon="10.7091179"><ele>976.0</ele><time>2026-04-29T17:44:37.025Z</time></trkpt><trkpt lat="44.0146155" lon="10.7089679"><ele>975.5</ele><time>2026-04-29T17:44:38.034Z</time></trkpt><trkpt lat="44.0146062" lon="10.7088174"><ele>975.0</ele><time>2026-04-29T17:44:39.017Z</time></trkpt><trkpt lat="44.0145844" lon="10.7086633"><ele>975.4</ele><time>2026-04-29T17:44:40.011Z</time></trkpt><trkpt lat="44.0145577" lon="10.7085192"><ele>975.8</ele><time>2026-04-29T17:44:41.012Z</time></trkpt><trkpt lat="44.0145419" lon="10.7084045"><ele>976.2</ele><time>2026-04-29T17:44:42.016Z</time></trkpt><trkpt lat="44.0145384" lon="10.7082896"><ele>976.6</ele><time>2026-04-29T17:44:43.021Z</time></trkpt><trkpt lat="44.0145713" lon="10.7081763"><ele>977.0</ele><time>2026-04-29T17:44:44.013Z</time></trkpt><trkpt lat="44.0146395" lon="10.7080286"><ele>977.0</ele><time>2026-04-29T17:44:45.004Z</time></trkpt><trkpt lat="44.0147172" lon="10.7078979"><ele>977.0</ele><time>2026-04-29T17:44:46.02Z</time></trkpt><trkpt lat="44.0147921" lon="10.7077764"><ele>977.0</ele><time>2026-04-29T17:44:47.017Z</time></trkpt><trkpt lat="44.0148484" lon="10.7076613"><ele>977.0</ele><time>2026-04-29T17:44:48.026Z</time></trkpt><trkpt lat="44.0148865" lon="10.7075288"><ele>977.0</ele><time>2026-04-29T17:44:49.014Z</time></trkpt><trkpt lat="44.0149036" lon="10.7073705"><ele>978.0</ele><time>2026-04-29T17:44:50.017Z</time></trkpt><trkpt lat="44.0149042" lon="10.7072262"><ele>979.0</ele><time>2026-04-29T17:44:51.008Z</time></trkpt><trkpt lat="44.0149266" lon="10.7071135"><ele>980.0</ele><time>2026-04-29T17:44:52.027Z</time></trkpt><trkpt lat="44.0149781" lon="10.7070076"><ele>981.0</ele><time>2026-04-29T17:44:53.013Z</time></trkpt><trkpt lat="44.0150338" lon="10.7069036"><ele>982.0</ele><time>2026-04-29T17:44:54.013Z</time></trkpt><trkpt lat="44.0150884" lon="10.7068031"><ele>984.8333333333333</ele><time>2026-04-29T17:44:55.018Z</time></trkpt><trkpt lat="44.0151422" lon="10.7067057"><ele>987.6666666666666</ele><time>2026-04-29T17:44:56.018Z</time></trkpt><trkpt lat="44.0151875" lon="10.7065984"><ele>990.5</ele><time>2026-04-29T17:44:57.014Z</time></trkpt><trkpt lat="44.0152261" lon="10.7064889"><ele>993.3333333333333</ele><time>2026-04-29T17:44:58.02Z</time></trkpt><trkpt lat="44.0152511" lon="10.7063744"><ele>996.1666666666666</ele><time>2026-04-29T17:44:59.014Z</time></trkpt><trkpt lat="44.0152604" lon="10.7062867"><ele>999.0</ele><time>2026-04-29T17:45:00.03Z</time></trkpt><trkpt lat="44.0152129" lon="10.7061359"><ele>1000.2</ele><time>2026-04-29T17:45:02.018Z</time></trkpt><trkpt lat="44.0151571" lon="10.7060627"><ele>1001.4000000000001</ele><time>2026-04-29T17:45:03.015Z</time></trkpt><trkpt lat="44.0150822" lon="10.7059989"><ele>1002.6</ele><time>2026-04-29T17:45:04.027Z</time></trkpt><trkpt lat="44.0149766" lon="10.7059612"><ele>1003.8</ele><time>2026-04-29T17:45:05.031Z</time></trkpt><trkpt lat="44.0148687" lon="10.7059305"><ele>1005.0</ele><time>2026-04-29T17:45:06.026Z</time></trkpt><trkpt lat="44.0147743" lon="10.7059305"><ele>1005.0</ele><time>2026-04-29T17:45:07.016Z</time></trkpt><trkpt lat="44.0147042" lon="10.7059704"><ele>1005.0</ele><time>2026-04-29T17:45:08.035Z</time></trkpt><trkpt lat="44.0146344" lon="10.7060297"><ele>1005.0</ele><time>2026-04-29T17:45:09.025Z</time></trkpt><trkpt lat="44.0145573" lon="10.7060975"><ele>1005.0</ele><time>2026-04-29T17:45:10.013Z</time></trkpt><trkpt lat="44.014479" lon="10.7061403"><ele>1005.0</ele><time>2026-04-29T17:45:11.016Z</time></trkpt><trkpt lat="44.0143923" lon="10.7061482"><ele>1005.0</ele><time>2026-04-29T17:45:12.012Z</time></trkpt><trkpt lat="44.0142987" lon="10.7061437"><ele>1002.2</ele><time>2026-04-29T17:45:13.023Z</time></trkpt><trkpt lat="44.0142019" lon="10.7061517"><ele>999.4</ele><time>2026-04-29T17:45:14.011Z</time></trkpt><trkpt lat="44.0141095" lon="10.7061905"><ele>996.5999999999999</ele><time>2026-04-29T17:45:15.021Z</time></trkpt><trkpt lat="44.014012" lon="10.7062355"><ele>993.8</ele><time>2026-04-29T17:45:16.009Z</time></trkpt><trkpt lat="44.0139061" lon="10.706264"><ele>991.0</ele><time>2026-04-29T17:45:17.019Z</time></trkpt><trkpt lat="44.0137831" lon="10.706251"><ele>990.0</ele><time>2026-04-29T17:45:18.01Z</time></trkpt><trkpt lat="44.0136736" lon="10.7062239"><ele>989.0</ele><time>2026-04-29T17:45:19.013Z</time></trkpt><trkpt lat="44.0135585" lon="10.7062001"><ele>988.0</ele><time>2026-04-29T17:45:20.025Z</time></trkpt><trkpt lat="44.0134458" lon="10.7061753"><ele>987.0</ele><time>2026-04-29T17:45:21.011Z</time></trkpt><trkpt lat="44.0133284" lon="10.7061481"><ele>988.0</ele><time>2026-04-29T17:45:22.026Z</time></trkpt><trkpt lat="44.0132062" lon="10.706135"><ele>989.0</ele><time>2026-04-29T17:45:23.001Z</time></trkpt><trkpt lat="44.0130775" lon="10.7061372"><ele>990.0</ele><time>2026-04-29T17:45:24.029Z</time></trkpt><trkpt lat="44.0129468" lon="10.7061467"><ele>991.0</ele><time>2026-04-29T17:45:25.011Z</time></trkpt><trkpt lat="44.0128266" lon="10.70614"><ele>990.9999999999999</ele><time>2026-04-29T17:45:26.02Z</time></trkpt><trkpt lat="44.012725" lon="10.7061266"><ele>991.0</ele><time>2026-04-29T17:45:27.015Z</time></trkpt><trkpt lat="44.012648" lon="10.7061325"><ele>991.0</ele><time>2026-04-29T17:45:28.015Z</time></trkpt><trkpt lat="44.0125842" lon="10.7061718"><ele>991.0</ele><time>2026-04-29T17:45:29.024Z</time></trkpt><trkpt lat="44.0125204" lon="10.7062433"><ele>990.9999999999999</ele><time>2026-04-29T17:45:30.03Z</time></trkpt><trkpt lat="44.012462" lon="10.7063127"><ele>991.0</ele><time>2026-04-29T17:45:31.018Z</time></trkpt><trkpt lat="44.0123895" lon="10.7063411"><ele>992.4</ele><time>2026-04-29T17:45:32.023Z</time></trkpt><trkpt lat="44.012286" lon="10.7063736"><ele>993.8</ele><time>2026-04-29T17:45:33.029Z</time></trkpt><trkpt lat="44.0121901" lon="10.7064109"><ele>995.1999999999999</ele><time>2026-04-29T17:45:34.012Z</time></trkpt><trkpt lat="44.0121174" lon="10.7064742"><ele>996.5999999999999</ele><time>2026-04-29T17:45:35.006Z</time></trkpt><trkpt lat="44.0120388" lon="10.7065534"><ele>998.0</ele><time>2026-04-29T17:45:36.029Z</time></trkpt><trkpt lat="44.0119445" lon="10.7065984"><ele>998.0</ele><time>2026-04-29T17:45:37.025Z</time></trkpt><trkpt lat="44.0118393" lon="10.7066463"><ele>998.0</ele><time>2026-04-29T17:45:38.024Z</time></trkpt><trkpt lat="44.0117282" lon="10.7066764"><ele>998.0</ele><time>2026-04-29T17:45:39.022Z</time></trkpt><trkpt lat="44.0116174" lon="10.7066924"><ele>998.0</ele><time>2026-04-29T17:45:40.031Z</time></trkpt><trkpt lat="44.0115041" lon="10.7066809"><ele>998.0</ele><time>2026-04-29T17:45:41.02Z</time></trkpt><trkpt lat="44.0113901" lon="10.7066468"><ele>997.5999999999999</ele><time>2026-04-29T17:45:42.025Z</time></trkpt><trkpt lat="44.0112766" lon="10.706616"><ele>997.1999999999999</ele><time>2026-04-29T17:45:43.01Z</time></trkpt><trkpt lat="44.0111722" lon="10.7065907"><ele>996.8</ele><time>2026-04-29T17:45:44.017Z</time></trkpt><trkpt lat="44.0110786" lon="10.7065726"><ele>996.4</ele><time>2026-04-29T17:45:45.019Z</time></trkpt><trkpt lat="44.0109939" lon="10.706543"><ele>996.0</ele><time>2026-04-29T17:45:46.015Z</time></trkpt><trkpt lat="44.0109192" lon="10.706484"><ele>996.0</ele><time>2026-04-29T17:45:47.015Z</time></trkpt><trkpt lat="44.0108573" lon="10.7063986"><ele>996.0</ele><time>2026-04-29T17:45:48.012Z</time></trkpt><trkpt lat="44.0108052" lon="10.7063188"><ele>996.0</ele><time>2026-04-29T17:45:49.016Z</time></trkpt><trkpt lat="44.010751" lon="10.7062673"><ele>996.0</ele><time>2026-04-29T17:45:50.014Z</time></trkpt><trkpt lat="44.0106839" lon="10.7062455"><ele>996.0</ele><time>2026-04-29T17:45:51.013Z</time></trkpt><trkpt lat="44.0106048" lon="10.7062546"><ele>996.0</ele><time>2026-04-29T17:45:52.02Z</time></trkpt><trkpt lat="44.0105206" lon="10.7062794"><ele>996.1666666666666</ele><time>2026-04-29T17:45:53.013Z</time></trkpt><trkpt lat="44.0104348" lon="10.7063243"><ele>996.3333333333333</ele><time>2026-04-29T17:45:54.023Z</time></trkpt><trkpt lat="44.0103535" lon="10.7063779"><ele>996.5</ele><time>2026-04-29T17:45:55.011Z</time></trkpt><trkpt lat="44.0102808" lon="10.7064074"><ele>996.6666666666666</ele><time>2026-04-29T17:45:56.007Z</time></trkpt><trkpt lat="44.0102126" lon="10.7064015"><ele>996.8333333333333</ele><time>2026-04-29T17:45:57.007Z</time></trkpt><trkpt lat="44.0101464" lon="10.7063462"><ele>997.0</ele><time>2026-04-29T17:45:58.011Z</time></trkpt><trkpt lat="44.0100671" lon="10.7062354"><ele>994.75</ele><time>2026-04-29T17:45:59.016Z</time></trkpt><trkpt lat="44.0099746" lon="10.7061134"><ele>992.5</ele><time>2026-04-29T17:46:00.02Z</time></trkpt><trkpt lat="44.0098949" lon="10.7059929"><ele>990.25</ele><time>2026-04-29T17:46:01.021Z</time></trkpt><trkpt lat="44.0098126" lon="10.7058876"><ele>988.0</ele><time>2026-04-29T17:46:02.023Z</time></trkpt><trkpt lat="44.0097306" lon="10.7057961"><ele>987.9999999999999</ele><time>2026-04-29T17:46:03.011Z</time></trkpt><trkpt lat="44.0096493" lon="10.7057306"><ele>988.0</ele><time>2026-04-29T17:46:04.013Z</time></trkpt><trkpt lat="44.0095746" lon="10.7056518"><ele>988.0</ele><time>2026-04-29T17:46:05.023Z</time></trkpt><trkpt lat="44.0095245" lon="10.7055574"><ele>988.0</ele><time>2026-04-29T17:46:06.023Z</time></trkpt><trkpt lat="44.0094969" lon="10.7054467"><ele>987.9999999999999</ele><time>2026-04-29T17:46:07.039Z</time></trkpt><trkpt lat="44.0094823" lon="10.705342"><ele>988.0</ele><time>2026-04-29T17:46:08.009Z</time></trkpt><trkpt lat="44.0094644" lon="10.7052405"><ele>987.4999999999999</ele><time>2026-04-29T17:46:09.014Z</time></trkpt><trkpt lat="44.009426" lon="10.7051682"><ele>987.0</ele><time>2026-04-29T17:46:10.02Z</time></trkpt><trkpt lat="44.0093568" lon="10.7051009"><ele>986.5</ele><time>2026-04-29T17:46:11.028Z</time></trkpt><trkpt lat="44.0092888" lon="10.7050321"><ele>986.0</ele><time>2026-04-29T17:46:12.023Z</time></trkpt><trkpt lat="44.0092244" lon="10.7049688"><ele>985.4999999999999</ele><time>2026-04-29T17:46:13.037Z</time></trkpt><trkpt lat="44.0091682" lon="10.7049112"><ele>985.0</ele><time>2026-04-29T17:46:14.013Z</time></trkpt><trkpt lat="44.0091046" lon="10.7048591"><ele>985.0</ele><time>2026-04-29T17:46:15.008Z</time></trkpt><trkpt lat="44.0090364" lon="10.704819"><ele>985.0000000000001</ele><time>2026-04-29T17:46:16.028Z</time></trkpt><trkpt lat="44.008966" lon="10.7047872"><ele>985.0</ele><time>2026-04-29T17:46:17.013Z</time></trkpt><trkpt lat="44.0088879" lon="10.7047541"><ele>985.0</ele><time>2026-04-29T17:46:18.03Z</time></trkpt><trkpt lat="44.00883" lon="10.7047124"><ele>985.0000000000001</ele><time>2026-04-29T17:46:19.019Z</time></trkpt><trkpt lat="44.0087937" lon="10.7046311"><ele>985.0</ele><time>2026-04-29T17:46:20.017Z</time></trkpt><trkpt lat="44.0087727" lon="10.7045476"><ele>985.0</ele><time>2026-04-29T17:46:21.015Z</time></trkpt><trkpt lat="44.0088049" lon="10.7043987"><ele>985.6</ele><time>2026-04-29T17:46:23.011Z</time></trkpt><trkpt lat="44.0088517" lon="10.7043283"><ele>986.2</ele><time>2026-04-29T17:46:24.005Z</time></trkpt><trkpt lat="44.0088884" lon="10.7042525"><ele>986.8</ele><time>2026-04-29T17:46:25.013Z</time></trkpt><trkpt lat="44.0088803" lon="10.704068"><ele>987.4</ele><time>2026-04-29T17:46:27.018Z</time></trkpt><trkpt lat="44.0088413" lon="10.7039424"><ele>988.0</ele><time>2026-04-29T17:46:28.023Z</time></trkpt><trkpt lat="44.0087998" lon="10.7038088"><ele>988.0</ele><time>2026-04-29T17:46:29.003Z</time></trkpt><trkpt lat="44.0087576" lon="10.7036716"><ele>988.0</ele><time>2026-04-29T17:46:30.023Z</time></trkpt><trkpt lat="44.00872" lon="10.7035256"><ele>988.0</ele><time>2026-04-29T17:46:31.022Z</time></trkpt><trkpt lat="44.0086601" lon="10.7033881"><ele>988.0</ele><time>2026-04-29T17:46:32.014Z</time></trkpt><trkpt lat="44.0086047" lon="10.7032615"><ele>988.0</ele><time>2026-04-29T17:46:33.021Z</time></trkpt><trkpt lat="44.0085682" lon="10.7031231"><ele>988.4</ele><time>2026-04-29T17:46:34.017Z</time></trkpt><trkpt lat="44.0085476" lon="10.7029852"><ele>988.8</ele><time>2026-04-29T17:46:35.014Z</time></trkpt><trkpt lat="44.0085315" lon="10.702837"><ele>989.2</ele><time>2026-04-29T17:46:36.01Z</time></trkpt><trkpt lat="44.0085239" lon="10.7027038"><ele>989.6</ele><time>2026-04-29T17:46:37.014Z</time></trkpt><trkpt lat="44.0085245" lon="10.7025655"><ele>990.0</ele><time>2026-04-29T17:46:38.009Z</time></trkpt><trkpt lat="44.0085189" lon="10.7024277"><ele>991.8</ele><time>2026-04-29T17:46:39.005Z</time></trkpt><trkpt lat="44.0084985" lon="10.7022901"><ele>993.6</ele><time>2026-04-29T17:46:40.024Z</time></trkpt><trkpt lat="44.0084576" lon="10.7021573"><ele>995.4000000000001</ele><time>2026-04-29T17:46:41.019Z</time></trkpt><trkpt lat="44.0084224" lon="10.7020302"><ele>997.2</ele><time>2026-04-29T17:46:42.008Z</time></trkpt><trkpt lat="44.0084071" lon="10.7019185"><ele>999.0</ele><time>2026-04-29T17:46:43.008Z</time></trkpt><trkpt lat="44.0084006" lon="10.7018029"><ele>997.8000000000001</ele><time>2026-04-29T17:46:44.015Z</time></trkpt><trkpt lat="44.0083946" lon="10.7016825"><ele>996.6000000000001</ele><time>2026-04-29T17:46:45.011Z</time></trkpt><trkpt lat="44.0083893" lon="10.7015547"><ele>995.4</ele><time>2026-04-29T17:46:46.016Z</time></trkpt><trkpt lat="44.0083103" lon="10.7014152"><ele>994.2</ele><time>2026-04-29T17:46:48.017Z</time></trkpt><trkpt lat="44.0082495" lon="10.7013626"><ele>993.0</ele><time>2026-04-29T17:46:49.031Z</time></trkpt><trkpt lat="44.0081734" lon="10.7013104"><ele>993.0</ele><time>2026-04-29T17:46:50.008Z</time></trkpt><trkpt lat="44.0080955" lon="10.701249"><ele>993.0</ele><time>2026-04-29T17:46:51.001Z</time></trkpt><trkpt lat="44.0080163" lon="10.7011711"><ele>993.0</ele><time>2026-04-29T17:46:52.014Z</time></trkpt><trkpt lat="44.0079433" lon="10.7010974"><ele>993.0</ele><time>2026-04-29T17:46:53.017Z</time></trkpt><trkpt lat="44.0078629" lon="10.7010118"><ele>993.0</ele><time>2026-04-29T17:46:54.032Z</time></trkpt><trkpt lat="44.0077737" lon="10.7008924"><ele>991.8</ele><time>2026-04-29T17:46:55.013Z</time></trkpt><trkpt lat="44.0077032" lon="10.7007558"><ele>990.5999999999999</ele><time>2026-04-29T17:46:56.014Z</time></trkpt><trkpt lat="44.007656" lon="10.7006262"><ele>989.4000000000001</ele><time>2026-04-29T17:46:57.012Z</time></trkpt><trkpt lat="44.0076044" lon="10.7005015"><ele>988.2</ele><time>2026-04-29T17:46:58.016Z</time></trkpt><trkpt lat="44.0075474" lon="10.7003954"><ele>987.0</ele><time>2026-04-29T17:46:59.028Z</time></trkpt><trkpt lat="44.0074797" lon="10.7003162"><ele>989.2</ele><time>2026-04-29T17:47:00.021Z</time></trkpt><trkpt lat="44.0074108" lon="10.7002309"><ele>991.4000000000001</ele><time>2026-04-29T17:47:01.001Z</time></trkpt><trkpt lat="44.0073354" lon="10.7001465"><ele>993.5999999999999</ele><time>2026-04-29T17:47:02.019Z</time></trkpt><trkpt lat="44.0072621" lon="10.7000505"><ele>995.8</ele><time>2026-04-29T17:47:03.007Z</time></trkpt><trkpt lat="44.0071926" lon="10.6999694"><ele>998.0</ele><time>2026-04-29T17:47:04.029Z</time></trkpt><trkpt lat="44.00713" lon="10.6998933"><ele>998.0</ele><time>2026-04-29T17:47:05.019Z</time></trkpt><trkpt lat="44.0070905" lon="10.6998127"><ele>998.0</ele><time>2026-04-29T17:47:06.009Z</time></trkpt><trkpt lat="44.0071059" lon="10.6996297"><ele>998.0</ele><time>2026-04-29T17:47:08.012Z</time></trkpt><trkpt lat="44.0071256" lon="10.6995009"><ele>998.0</ele><time>2026-04-29T17:47:09.014Z</time></trkpt><trkpt lat="44.0071354" lon="10.6993578"><ele>998.0</ele><time>2026-04-29T17:47:10.009Z</time></trkpt><trkpt lat="44.0071471" lon="10.6992055"><ele>998.4</ele><time>2026-04-29T17:47:11.008Z</time></trkpt><trkpt lat="44.0071564" lon="10.6990585"><ele>998.8</ele><time>2026-04-29T17:47:12.018Z</time></trkpt><trkpt lat="44.0071542" lon="10.6989293"><ele>999.2</ele><time>2026-04-29T17:47:13.004Z</time></trkpt><trkpt lat="44.0071286" lon="10.6988066"><ele>999.6</ele><time>2026-04-29T17:47:14.013Z</time></trkpt><trkpt lat="44.0070603" lon="10.698697"><ele>1000.0</ele><time>2026-04-29T17:47:15.023Z</time></trkpt><trkpt lat="44.0069835" lon="10.6986048"><ele>1002.0</ele><time>2026-04-29T17:47:16.009Z</time></trkpt><trkpt lat="44.0068819" lon="10.6985229"><ele>1004.0</ele><time>2026-04-29T17:47:17.014Z</time></trkpt><trkpt lat="44.0067728" lon="10.6984191"><ele>1006.0</ele><time>2026-04-29T17:47:18.023Z</time></trkpt><trkpt lat="44.0066694" lon="10.6983148"><ele>1008.0</ele><time>2026-04-29T17:47:19.007Z</time></trkpt><trkpt lat="44.0065772" lon="10.6982093"><ele>1003.5</ele><time>2026-04-29T17:47:20.021Z</time></trkpt><trkpt lat="44.0064781" lon="10.6981178"><ele>999.0</ele><time>2026-04-29T17:47:21.019Z</time></trkpt><trkpt lat="44.0063727" lon="10.6980376"><ele>994.5</ele><time>2026-04-29T17:47:22.021Z</time></trkpt><trkpt lat="44.0062666" lon="10.6979698"><ele>990.0</ele><time>2026-04-29T17:47:23.014Z</time></trkpt><trkpt lat="44.0061537" lon="10.6979068"><ele>990.0</ele><time>2026-04-29T17:47:24.011Z</time></trkpt><trkpt lat="44.0060423" lon="10.6978565"><ele>990.0</ele><time>2026-04-29T17:47:25.018Z</time></trkpt><trkpt lat="44.0059311" lon="10.697823"><ele>990.0</ele><time>2026-04-29T17:47:26.017Z</time></trkpt><trkpt lat="44.0058231" lon="10.6978016"><ele>990.0</ele><time>2026-04-29T17:47:27.014Z</time></trkpt><trkpt lat="44.0057083" lon="10.6977886"><ele>990.75</ele><time>2026-04-29T17:47:28.019Z</time></trkpt><trkpt lat="44.005594" lon="10.6977977"><ele>991.5</ele><time>2026-04-29T17:47:29.01Z</time></trkpt><trkpt lat="44.0054714" lon="10.6978042"><ele>992.25</ele><time>2026-04-29T17:47:30.01Z</time></trkpt><trkpt lat="44.0053598" lon="10.6978052"><ele>993.0</ele><time>2026-04-29T17:47:31.012Z</time></trkpt><trkpt lat="44.0052419" lon="10.697797"><ele>993.0</ele><time>2026-04-29T17:47:32.016Z</time></trkpt><trkpt lat="44.0051331" lon="10.6977901"><ele>993.0</ele><time>2026-04-29T17:47:33.015Z</time></trkpt><trkpt lat="44.0050183" lon="10.6977811"><ele>993.0</ele><time>2026-04-29T17:47:34.013Z</time></trkpt><trkpt lat="44.0049059" lon="10.6977723"><ele>993.0</ele><time>2026-04-29T17:47:35.023Z</time></trkpt><trkpt lat="44.004796" lon="10.6977534"><ele>993.0</ele><time>2026-04-29T17:47:36.01Z</time></trkpt><trkpt lat="44.0046791" lon="10.6977294"><ele>997.8</ele><time>2026-04-29T17:47:37.014Z</time></trkpt><trkpt lat="44.0045675" lon="10.6977017"><ele>1002.5999999999999</ele><time>2026-04-29T17:47:38.02Z</time></trkpt><trkpt lat="44.0044568" lon="10.6976809"><ele>1007.4000000000001</ele><time>2026-04-29T17:47:39.015Z</time></trkpt><trkpt lat="44.0043582" lon="10.6976788"><ele>1012.2</ele><time>2026-04-29T17:47:40.016Z</time></trkpt><trkpt lat="44.0042633" lon="10.6976891"><ele>1017.0</ele><time>2026-04-29T17:47:41.01Z</time></trkpt><trkpt lat="44.0041738" lon="10.6977196"><ele>1013.3333333333334</ele><time>2026-04-29T17:47:42.012Z</time></trkpt><trkpt lat="44.0040852" lon="10.6977438"><ele>1009.6666666666667</ele><time>2026-04-29T17:47:43.012Z</time></trkpt><trkpt lat="44.0040133" lon="10.6977664"><ele>1006.0</ele><time>2026-04-29T17:47:44.021Z</time></trkpt><trkpt lat="44.0039346" lon="10.6977513"><ele>1002.3333333333334</ele><time>2026-04-29T17:47:45.031Z</time></trkpt><trkpt lat="44.0038683" lon="10.6977028"><ele>998.6666666666667</ele><time>2026-04-29T17:47:46.024Z</time></trkpt><trkpt lat="44.0037903" lon="10.6976202"><ele>995.0</ele><time>2026-04-29T17:47:47.041Z</time></trkpt><trkpt lat="44.0037145" lon="10.697496"><ele>995.0</ele><time>2026-04-29T17:47:48.014Z</time></trkpt><trkpt lat="44.0036323" lon="10.6973548"><ele>995.0</ele><time>2026-04-29T17:47:49.005Z</time></trkpt><trkpt lat="44.0035579" lon="10.6972282"><ele>995.0</ele><time>2026-04-29T17:47:50.021Z</time></trkpt><trkpt lat="44.0034914" lon="10.6971157"><ele>995.0</ele><time>2026-04-29T17:47:51.013Z</time></trkpt><trkpt lat="44.003419" lon="10.697022"><ele>995.0000000000001</ele><time>2026-04-29T17:47:52.01Z</time></trkpt><trkpt lat="44.0033511" lon="10.6969205"><ele>995.0</ele><time>2026-04-29T17:47:53.011Z</time></trkpt><trkpt lat="44.0032967" lon="10.6968174"><ele>995.0</ele><time>2026-04-29T17:47:54.018Z</time></trkpt><trkpt lat="44.0032563" lon="10.6967146"><ele>995.0</ele><time>2026-04-29T17:47:55.008Z</time></trkpt><trkpt lat="44.0032199" lon="10.696616"><ele>995.0000000000001</ele><time>2026-04-29T17:47:56.025Z</time></trkpt><trkpt lat="44.0031754" lon="10.6965108"><ele>995.0</ele><time>2026-04-29T17:47:57.015Z</time></trkpt><trkpt lat="44.0031165" lon="10.6964242"><ele>996.0</ele><time>2026-04-29T17:47:58.013Z</time></trkpt><trkpt lat="44.003037" lon="10.6963582"><ele>997.0</ele><time>2026-04-29T17:47:59.018Z</time></trkpt><trkpt lat="44.002946" lon="10.6963174"><ele>998.0</ele><time>2026-04-29T17:48:00.022Z</time></trkpt><trkpt lat="44.0028257" lon="10.6963455"><ele>999.0</ele><time>2026-04-29T17:48:01.012Z</time></trkpt><trkpt lat="44.0026907" lon="10.6963838"><ele>1000.0</ele><time>2026-04-29T17:48:02.022Z</time></trkpt><trkpt lat="44.00255" lon="10.6964299"><ele>999.2</ele><time>2026-04-29T17:48:03.005Z</time></trkpt><trkpt lat="44.0024191" lon="10.6964567"><ele>998.4</ele><time>2026-04-29T17:48:04.013Z</time></trkpt><trkpt lat="44.0023025" lon="10.696467"><ele>997.5999999999999</ele><time>2026-04-29T17:48:05.011Z</time></trkpt><trkpt lat="44.002204" lon="10.6964626"><ele>996.8</ele><time>2026-04-29T17:48:06.017Z</time></trkpt><trkpt lat="44.0021043" lon="10.6964568"><ele>996.0</ele><time>2026-04-29T17:48:07.019Z</time></trkpt><trkpt lat="44.0020276" lon="10.6964382"><ele>996.0</ele><time>2026-04-29T17:48:08.026Z</time></trkpt><trkpt lat="44.0019589" lon="10.6963926"><ele>996.0</ele><time>2026-04-29T17:48:09.04Z</time></trkpt><trkpt lat="44.0018942" lon="10.6963194"><ele>996.0</ele><time>2026-04-29T17:48:10.018Z</time></trkpt><trkpt lat="44.0018461" lon="10.6962231"><ele>996.0</ele><time>2026-04-29T17:48:11.02Z</time></trkpt><trkpt lat="44.0018049" lon="10.6961106"><ele>996.0</ele><time>2026-04-29T17:48:12.016Z</time></trkpt><trkpt lat="44.0017583" lon="10.6959986"><ele>996.0</ele><time>2026-04-29T17:48:13.01Z</time></trkpt><trkpt lat="44.0017055" lon="10.6958974"><ele>996.4</ele><time>2026-04-29T17:48:14.009Z</time></trkpt><trkpt lat="44.0016231" lon="10.6958265"><ele>996.8</ele><time>2026-04-29T17:48:15.017Z</time></trkpt><trkpt lat="44.001536" lon="10.6957788"><ele>997.1999999999999</ele><time>2026-04-29T17:48:16.023Z</time></trkpt><trkpt lat="44.0014459" lon="10.6957617"><ele>997.5999999999999</ele><time>2026-04-29T17:48:17.019Z</time></trkpt><trkpt lat="44.0013379" lon="10.6957711"><ele>998.0</ele><time>2026-04-29T17:48:18.017Z</time></trkpt><trkpt lat="44.0012298" lon="10.6957943"><ele>998.0</ele><time>2026-04-29T17:48:19.014Z</time></trkpt><trkpt lat="44.0011192" lon="10.6958272"><ele>998.0</ele><time>2026-04-29T17:48:20.013Z</time></trkpt><trkpt lat="44.0010128" lon="10.695859"><ele>998.0</ele><time>2026-04-29T17:48:21.026Z</time></trkpt><trkpt lat="44.0009123" lon="10.6958886"><ele>998.0</ele><time>2026-04-29T17:48:22.015Z</time></trkpt><trkpt lat="44.0008159" lon="10.6959122"><ele>998.0</ele><time>2026-04-29T17:48:23.02Z</time></trkpt><trkpt lat="44.0007299" lon="10.6959147"><ele>997.0</ele><time>2026-04-29T17:48:24.019Z</time></trkpt><trkpt lat="44.0006505" lon="10.6958798"><ele>996.0</ele><time>2026-04-29T17:48:25.012Z</time></trkpt><trkpt lat="44.000551" lon="10.6958194"><ele>995.0</ele><time>2026-04-29T17:48:26.016Z</time></trkpt><trkpt lat="44.0004447" lon="10.6957551"><ele>994.0</ele><time>2026-04-29T17:48:27.004Z</time></trkpt><trkpt lat="44.0003353" lon="10.6956918"><ele>993.0</ele><time>2026-04-29T17:48:28.026Z</time></trkpt><trkpt lat="44.0002256" lon="10.6956268"><ele>993.0</ele><time>2026-04-29T17:48:29.024Z</time></trkpt><trkpt lat="44.000119" lon="10.6955784"><ele>993.0</ele><time>2026-04-29T17:48:30.015Z</time></trkpt><trkpt lat="44.0000136" lon="10.695539"><ele>993.0</ele><time>2026-04-29T17:48:31.011Z</time></trkpt><trkpt lat="43.999912" lon="10.6954896"><ele>993.0</ele><time>2026-04-29T17:48:32.016Z</time></trkpt><trkpt lat="43.9998222" lon="10.6954216"><ele>993.0</ele><time>2026-04-29T17:48:33.022Z</time></trkpt><trkpt lat="43.9997377" lon="10.6953519"><ele>993.0</ele><time>2026-04-29T17:48:34.017Z</time></trkpt><trkpt lat="43.9996545" lon="10.6952779"><ele>993.0</ele><time>2026-04-29T17:48:35.008Z</time></trkpt><trkpt lat="43.9995668" lon="10.6952239"><ele>993.0</ele><time>2026-04-29T17:48:36.018Z</time></trkpt><trkpt lat="43.9994808" lon="10.6951676"><ele>993.0</ele><time>2026-04-29T17:48:37.012Z</time></trkpt><trkpt lat="43.9993952" lon="10.6951125"><ele>993.0</ele><time>2026-04-29T17:48:38.016Z</time></trkpt><trkpt lat="43.9993171" lon="10.695032"><ele>992.5999999999999</ele><time>2026-04-29T17:48:39.009Z</time></trkpt><trkpt lat="43.9992403" lon="10.694937"><ele>992.1999999999999</ele><time>2026-04-29T17:48:40.016Z</time></trkpt><trkpt lat="43.9991673" lon="10.6948536"><ele>991.8</ele><time>2026-04-29T17:48:41.01Z</time></trkpt><trkpt lat="43.9990945" lon="10.6947746"><ele>991.4</ele><time>2026-04-29T17:48:42.022Z</time></trkpt><trkpt lat="43.9990223" lon="10.6946923"><ele>991.0</ele><time>2026-04-29T17:48:43.02Z</time></trkpt><trkpt lat="43.998953" lon="10.6945943"><ele>989.8</ele><time>2026-04-29T17:48:44.018Z</time></trkpt><trkpt lat="43.9989011" lon="10.6944701"><ele>988.5999999999999</ele><time>2026-04-29T17:48:45.027Z</time></trkpt><trkpt lat="43.9988542" lon="10.6943434"><ele>987.4</ele><time>2026-04-29T17:48:46.013Z</time></trkpt><trkpt lat="43.9988122" lon="10.6942233"><ele>986.2</ele><time>2026-04-29T17:48:47.015Z</time></trkpt><trkpt lat="43.9987655" lon="10.6941098"><ele>985.0</ele><time>2026-04-29T17:48:48.02Z</time></trkpt><trkpt lat="43.9987125" lon="10.6939932"><ele>984.2</ele><time>2026-04-29T17:48:49.022Z</time></trkpt><trkpt lat="43.9986516" lon="10.6938862"><ele>983.4</ele><time>2026-04-29T17:48:50.02Z</time></trkpt><trkpt lat="43.9985819" lon="10.6937856"><ele>982.5999999999999</ele><time>2026-04-29T17:48:51.007Z</time></trkpt><trkpt lat="43.9984993" lon="10.693699"><ele>981.8</ele><time>2026-04-29T17:48:52.018Z</time></trkpt><trkpt lat="43.9984093" lon="10.6936329"><ele>981.0</ele><time>2026-04-29T17:48:53.02Z</time></trkpt><trkpt lat="43.9983191" lon="10.693585"><ele>981.0</ele><time>2026-04-29T17:48:54.025Z</time></trkpt><trkpt lat="43.9982266" lon="10.6935564"><ele>980.9999999999999</ele><time>2026-04-29T17:48:55.019Z</time></trkpt><trkpt lat="43.9981314" lon="10.6935427"><ele>980.9999999999999</ele><time>2026-04-29T17:48:56.034Z</time></trkpt><trkpt lat="43.9980359" lon="10.6935431"><ele>981.0</ele><time>2026-04-29T17:48:57.024Z</time></trkpt><trkpt lat="43.9979448" lon="10.6935486"><ele>981.0</ele><time>2026-04-29T17:48:58.018Z</time></trkpt><trkpt lat="43.9978648" lon="10.6935519"><ele>981.0</ele><time>2026-04-29T17:48:59.02Z</time></trkpt><trkpt lat="43.9977892" lon="10.6935249"><ele>981.0</ele><time>2026-04-29T17:49:00.021Z</time></trkpt><trkpt lat="43.9977204" lon="10.6934791"><ele>981.0</ele><time>2026-04-29T17:49:01.023Z</time></trkpt><trkpt lat="43.9976622" lon="10.6934248"><ele>981.0</ele><time>2026-04-29T17:49:02.012Z</time></trkpt><trkpt lat="43.9976081" lon="10.6933626"><ele>981.0</ele><time>2026-04-29T17:49:03.013Z</time></trkpt><trkpt lat="43.9975404" lon="10.6932336"><ele>981.0</ele><time>2026-04-29T17:49:05.016Z</time></trkpt><trkpt lat="43.9974867" lon="10.693094"><ele>978.8333333333334</ele><time>2026-04-29T17:49:07.018Z</time></trkpt><trkpt lat="43.997399" lon="10.6929811"><ele>976.6666666666667</ele><time>2026-04-29T17:49:08.997Z</time></trkpt><trkpt lat="43.9973306" lon="10.692951"><ele>974.5</ele><time>2026-04-29T17:49:10.024Z</time></trkpt><trkpt lat="43.9972555" lon="10.6929585"><ele>972.3333333333334</ele><time>2026-04-29T17:49:11.007Z</time></trkpt><trkpt lat="43.9971773" lon="10.6929779"><ele>970.1666666666667</ele><time>2026-04-29T17:49:12.013Z</time></trkpt><trkpt lat="43.9971047" lon="10.6929933"><ele>968.0</ele><time>2026-04-29T17:49:13.007Z</time></trkpt><trkpt lat="43.9969908" lon="10.6930133"><ele>968.0000000000001</ele><time>2026-04-29T17:49:15.01Z</time></trkpt><trkpt lat="43.996889" lon="10.6929855"><ele>968.0</ele><time>2026-04-29T17:49:17.016Z</time></trkpt><trkpt lat="43.996804" lon="10.692897"><ele>968.0</ele><time>2026-04-29T17:49:19.022Z</time></trkpt><trkpt lat="43.9967674" lon="10.692813"><ele>968.0</ele><time>2026-04-29T17:49:20.019Z</time></trkpt><trkpt lat="43.9967281" lon="10.6927127"><ele>968.0000000000001</ele><time>2026-04-29T17:49:21.017Z</time></trkpt><trkpt lat="43.9966972" lon="10.6926222"><ele>968.0</ele><time>2026-04-29T17:49:22.026Z</time></trkpt><trkpt lat="43.9966878" lon="10.6925334"><ele>967.8333333333334</ele><time>2026-04-29T17:49:23.006Z</time></trkpt><trkpt lat="43.9966951" lon="10.6924179"><ele>967.6666666666667</ele><time>2026-04-29T17:49:24.028Z</time></trkpt><trkpt lat="43.9967005" lon="10.6922986"><ele>967.5</ele><time>2026-04-29T17:49:25.024Z</time></trkpt><trkpt lat="43.9967068" lon="10.6921905"><ele>967.3333333333333</ele><time>2026-04-29T17:49:26.039Z</time></trkpt><trkpt lat="43.9967009" lon="10.6920864"><ele>967.1666666666666</ele><time>2026-04-29T17:49:27.011Z</time></trkpt><trkpt lat="43.9966984" lon="10.6919861"><ele>967.0</ele><time>2026-04-29T17:49:28.026Z</time></trkpt><trkpt lat="43.9966905" lon="10.6918934"><ele>966.3333333333333</ele><time>2026-04-29T17:49:29.029Z</time></trkpt><trkpt lat="43.9966466" lon="10.6917263"><ele>965.6666666666666</ele><time>2026-04-29T17:49:31.031Z</time></trkpt><trkpt lat="43.9966036" lon="10.6916551"><ele>965.0</ele><time>2026-04-29T17:49:32.021Z</time></trkpt><trkpt lat="43.996546" lon="10.691592"><ele>964.3333333333333</ele><time>2026-04-29T17:49:33.021Z</time></trkpt><trkpt lat="43.9964808" lon="10.6915376"><ele>963.6666666666666</ele><time>2026-04-29T17:49:34.024Z</time></trkpt><trkpt lat="43.9964189" lon="10.6914911"><ele>963.0</ele><time>2026-04-29T17:49:35.021Z</time></trkpt><trkpt lat="43.996351" lon="10.6914535"><ele>963.0</ele><time>2026-04-29T17:49:36.018Z</time></trkpt><trkpt lat="43.9962799" lon="10.6914028"><ele>963.0</ele><time>2026-04-29T17:49:37.018Z</time></trkpt><trkpt lat="43.9962111" lon="10.6913382"><ele>963.0</ele><time>2026-04-29T17:49:38.017Z</time></trkpt><trkpt lat="43.9961525" lon="10.6912552"><ele>963.0</ele><time>2026-04-29T17:49:39.017Z</time></trkpt><trkpt lat="43.9960979" lon="10.6911814"><ele>963.0</ele><time>2026-04-29T17:49:40.025Z</time></trkpt><trkpt lat="43.9960382" lon="10.6911074"><ele>963.0</ele><time>2026-04-29T17:49:41.011Z</time></trkpt><trkpt lat="43.9959915" lon="10.6910211"><ele>963.6666666666666</ele><time>2026-04-29T17:49:42.02Z</time></trkpt><trkpt lat="43.9959523" lon="10.6909275"><ele>964.3333333333333</ele><time>2026-04-29T17:49:43.019Z</time></trkpt><trkpt lat="43.9959151" lon="10.690835"><ele>965.0</ele><time>2026-04-29T17:49:44.022Z</time></trkpt><trkpt lat="43.9958749" lon="10.6907359"><ele>965.6666666666666</ele><time>2026-04-29T17:49:45.022Z</time></trkpt><trkpt lat="43.9958419" lon="10.6906283"><ele>966.3333333333333</ele><time>2026-04-29T17:49:46.019Z</time></trkpt><trkpt lat="43.9958081" lon="10.6905164"><ele>967.0</ele><time>2026-04-29T17:49:47.017Z</time></trkpt><trkpt lat="43.9957772" lon="10.6904065"><ele>962.3333333333333</ele><time>2026-04-29T17:49:48.017Z</time></trkpt><trkpt lat="43.9957449" lon="10.6902874"><ele>957.6666666666666</ele><time>2026-04-29T17:49:49.016Z</time></trkpt><trkpt lat="43.9957107" lon="10.6901744"><ele>953.0</ele><time>2026-04-29T17:49:50.024Z</time></trkpt><trkpt lat="43.9956789" lon="10.690068"><ele>948.3333333333333</ele><time>2026-04-29T17:49:51.014Z</time></trkpt><trkpt lat="43.9956449" lon="10.6899647"><ele>943.6666666666666</ele><time>2026-04-29T17:49:52.017Z</time></trkpt><trkpt lat="43.9955906" lon="10.6898588"><ele>939.0</ele><time>2026-04-29T17:49:53.015Z</time></trkpt><trkpt lat="43.9955364" lon="10.6897502"><ele>939.0</ele><time>2026-04-29T17:49:54.016Z</time></trkpt><trkpt lat="43.9954823" lon="10.689643"><ele>939.0</ele><time>2026-04-29T17:49:55.024Z</time></trkpt><trkpt lat="43.9954351" lon="10.6895734"><ele>939.0</ele><time>2026-04-29T17:49:56.022Z</time></trkpt><trkpt lat="43.995379" lon="10.6895308"><ele>939.0</ele><time>2026-04-29T17:49:57.021Z</time></trkpt><trkpt lat="43.9952832" lon="10.6895254"><ele>939.0</ele><time>2026-04-29T17:49:59.019Z</time></trkpt><trkpt lat="43.9951774" lon="10.6895801"><ele>939.0</ele><time>2026-04-29T17:50:01.007Z</time></trkpt><trkpt lat="43.9951135" lon="10.6896146"><ele>939.0</ele><time>2026-04-29T17:50:02.003Z</time></trkpt><trkpt lat="43.9950398" lon="10.6896322"><ele>939.0000000000001</ele><time>2026-04-29T17:50:03.012Z</time></trkpt><trkpt lat="43.9949745" lon="10.6896407"><ele>939.0000000000001</ele><time>2026-04-29T17:50:04.005Z</time></trkpt><trkpt lat="43.9948566" lon="10.689635"><ele>939.0</ele><time>2026-04-29T17:50:06.02Z</time></trkpt><trkpt lat="43.9947274" lon="10.6895604"><ele>939.0</ele><time>2026-04-29T17:50:08.018Z</time></trkpt><trkpt lat="43.9946405" lon="10.6895183"><ele>935.6666666666666</ele><time>2026-04-29T17:50:09.011Z</time></trkpt><trkpt lat="43.9945515" lon="10.6895041"><ele>932.3333333333333</ele><time>2026-04-29T17:50:10.013Z</time></trkpt><trkpt lat="43.9944564" lon="10.6895056"><ele>929.0</ele><time>2026-04-29T17:50:11.034Z</time></trkpt><trkpt lat="43.9943738" lon="10.6895114"><ele>925.6666666666666</ele><time>2026-04-29T17:50:12.021Z</time></trkpt><trkpt lat="43.9943028" lon="10.6895116"><ele>922.3333333333333</ele><time>2026-04-29T17:50:13.021Z</time></trkpt><trkpt lat="43.9942308" lon="10.689501"><ele>919.0</ele><time>2026-04-29T17:50:14.021Z</time></trkpt><trkpt lat="43.9941629" lon="10.6894673"><ele>920.3333333333333</ele><time>2026-04-29T17:50:15.02Z</time></trkpt><trkpt lat="43.9940889" lon="10.6894117"><ele>921.6666666666666</ele><time>2026-04-29T17:50:16.015Z</time></trkpt><trkpt lat="43.994015" lon="10.6893375"><ele>923.0</ele><time>2026-04-29T17:50:16.999Z</time></trkpt><trkpt lat="43.9939509" lon="10.6892595"><ele>924.3333333333333</ele><time>2026-04-29T17:50:18.036Z</time></trkpt><trkpt lat="43.9938839" lon="10.6891969"><ele>925.6666666666666</ele><time>2026-04-29T17:50:19.029Z</time></trkpt><trkpt lat="43.9938044" lon="10.6891426"><ele>927.0</ele><time>2026-04-29T17:50:20.018Z</time></trkpt><trkpt lat="43.9937149" lon="10.6891006"><ele>927.0</ele><time>2026-04-29T17:50:21.007Z</time></trkpt><trkpt lat="43.9936241" lon="10.6890597"><ele>927.0</ele><time>2026-04-29T17:50:22.018Z</time></trkpt><trkpt lat="43.9935364" lon="10.689018"><ele>927.0</ele><time>2026-04-29T17:50:22.995Z</time></trkpt><trkpt lat="43.9934519" lon="10.688979"><ele>927.0</ele><time>2026-04-29T17:50:24.011Z</time></trkpt><trkpt lat="43.9933538" lon="10.6889653"><ele>927.0</ele><time>2026-04-29T17:50:25Z</time></trkpt><trkpt lat="43.9932608" lon="10.68895"><ele>925.2</ele><time>2026-04-29T17:50:26.008Z</time></trkpt><trkpt lat="43.9931717" lon="10.6889278"><ele>923.4000000000001</ele><time>2026-04-29T17:50:27.019Z</time></trkpt><trkpt lat="43.9930924" lon="10.6888974"><ele>921.5999999999999</ele><time>2026-04-29T17:50:28.02Z</time></trkpt><trkpt lat="43.9930141" lon="10.68882"><ele>919.8</ele><time>2026-04-29T17:50:29.015Z</time></trkpt><trkpt lat="43.9929422" lon="10.6887148"><ele>918.0</ele><time>2026-04-29T17:50:30.022Z</time></trkpt><trkpt lat="43.9928726" lon="10.6886228"><ele>919.0</ele><time>2026-04-29T17:50:31.024Z</time></trkpt><trkpt lat="43.9927785" lon="10.6885574"><ele>920.0</ele><time>2026-04-29T17:50:32.022Z</time></trkpt><trkpt lat="43.9926732" lon="10.6885173"><ele>921.0</ele><time>2026-04-29T17:50:33.017Z</time></trkpt><trkpt lat="43.992568" lon="10.6884962"><ele>922.0</ele><time>2026-04-29T17:50:34.016Z</time></trkpt><trkpt lat="43.9924692" lon="10.6884743"><ele>923.0</ele><time>2026-04-29T17:50:35.036Z</time></trkpt><trkpt lat="43.9923893" lon="10.6884546"><ele>923.0</ele><time>2026-04-29T17:50:36.022Z</time></trkpt><trkpt lat="43.9922786" lon="10.6884106"><ele>923.0</ele><time>2026-04-29T17:50:38.016Z</time></trkpt><trkpt lat="43.9922137" lon="10.6883743"><ele>923.0</ele><time>2026-04-29T17:50:39.03Z</time></trkpt><trkpt lat="43.9921341" lon="10.6883334"><ele>923.0</ele><time>2026-04-29T17:50:40.033Z</time></trkpt><trkpt lat="43.9920448" lon="10.6883013"><ele>923.0</ele><time>2026-04-29T17:50:41.01Z</time></trkpt><trkpt lat="43.9919566" lon="10.6882869"><ele>923.0000000000001</ele><time>2026-04-29T17:50:42.024Z</time></trkpt><trkpt lat="43.9918726" lon="10.6882797"><ele>923.0</ele><time>2026-04-29T17:50:43.009Z</time></trkpt><trkpt lat="43.9917949" lon="10.6882712"><ele>923.0</ele><time>2026-04-29T17:50:44.021Z</time></trkpt><trkpt lat="43.9917152" lon="10.688218"><ele>923.0</ele><time>2026-04-29T17:50:45.016Z</time></trkpt><trkpt lat="43.9916322" lon="10.6881616"><ele>923.0000000000001</ele><time>2026-04-29T17:50:46.007Z</time></trkpt><trkpt lat="43.9915462" lon="10.688119"><ele>923.0</ele><time>2026-04-29T17:50:47.011Z</time></trkpt><trkpt lat="43.9914479" lon="10.6880811"><ele>919.0</ele><time>2026-04-29T17:50:48.015Z</time></trkpt><trkpt lat="43.9913341" lon="10.6880509"><ele>915.0</ele><time>2026-04-29T17:50:49.021Z</time></trkpt><trkpt lat="43.99122" lon="10.6880286"><ele>911.0</ele><time>2026-04-29T17:50:50.026Z</time></trkpt><trkpt lat="43.9911054" lon="10.6880225"><ele>907.0</ele><time>2026-04-29T17:50:51.015Z</time></trkpt><trkpt lat="43.9909985" lon="10.6880228"><ele>906.9999999999999</ele><time>2026-04-29T17:50:52.016Z</time></trkpt><trkpt lat="43.9909029" lon="10.6880448"><ele>907.0</ele><time>2026-04-29T17:50:53.009Z</time></trkpt><trkpt lat="43.9908272" lon="10.6880663"><ele>907.0</ele><time>2026-04-29T17:50:54.005Z</time></trkpt><trkpt lat="43.990758" lon="10.6880488"><ele>907.0</ele><time>2026-04-29T17:50:55.014Z</time></trkpt><trkpt lat="43.9906852" lon="10.6880066"><ele>906.9999999999999</ele><time>2026-04-29T17:50:56.024Z</time></trkpt><trkpt lat="43.990626" lon="10.6879616"><ele>907.0</ele><time>2026-04-29T17:50:57.008Z</time></trkpt><trkpt lat="43.990531" lon="10.6878483"><ele>909.9999999999999</ele><time>2026-04-29T17:50:59.024Z</time></trkpt><trkpt lat="43.9904911" lon="10.6877591"><ele>913.0</ele><time>2026-04-29T17:51:00.049Z</time></trkpt><trkpt lat="43.9904555" lon="10.6876511"><ele>916.0</ele><time>2026-04-29T17:51:01.019Z</time></trkpt><trkpt lat="43.9904239" lon="10.6875268"><ele>919.0</ele><time>2026-04-29T17:51:02.013Z</time></trkpt><trkpt lat="43.9903962" lon="10.6874006"><ele>921.9999999999999</ele><time>2026-04-29T17:51:03.036Z</time></trkpt><trkpt lat="43.9903646" lon="10.6872871"><ele>925.0</ele><time>2026-04-29T17:51:04.025Z</time></trkpt><trkpt lat="43.9903295" lon="10.6871837"><ele>925.0</ele><time>2026-04-29T17:51:05.03Z</time></trkpt><trkpt lat="43.990295" lon="10.6871012"><ele>925.0</ele><time>2026-04-29T17:51:06.037Z</time></trkpt><trkpt lat="43.9902083" lon="10.6869807"><ele>925.0</ele><time>2026-04-29T17:51:08.035Z</time></trkpt><trkpt lat="43.9900945" lon="10.6869442"><ele>925.0</ele><time>2026-04-29T17:51:10.022Z</time></trkpt><trkpt lat="43.9899976" lon="10.6870311"><ele>925.0</ele><time>2026-04-29T17:51:12.015Z</time></trkpt><trkpt lat="43.9898915" lon="10.6871113"><ele>920.2</ele><time>2026-04-29T17:51:14.028Z</time></trkpt><trkpt lat="43.9898274" lon="10.6871132"><ele>915.4</ele><time>2026-04-29T17:51:15.01Z</time></trkpt><trkpt lat="43.9897181" lon="10.6870652"><ele>910.5999999999999</ele><time>2026-04-29T17:51:17.016Z</time></trkpt><trkpt lat="43.9895864" lon="10.6870221"><ele>905.8</ele><time>2026-04-29T17:51:19.013Z</time></trkpt><trkpt lat="43.9895156" lon="10.6870094"><ele>901.0</ele><time>2026-04-29T17:51:20.022Z</time></trkpt><trkpt lat="43.9893795" lon="10.6870466"><ele>900.9999999999999</ele><time>2026-04-29T17:51:22.005Z</time></trkpt><trkpt lat="43.9892714" lon="10.6870923"><ele>901.0</ele><time>2026-04-29T17:51:24.019Z</time></trkpt><trkpt lat="43.9891942" lon="10.6870596"><ele>901.0</ele><time>2026-04-29T17:51:26.014Z</time></trkpt><trkpt lat="43.989161" lon="10.6869819"><ele>901.0</ele><time>2026-04-29T17:51:27.021Z</time></trkpt><trkpt lat="43.9891309" lon="10.6868996"><ele>900.9999999999999</ele><time>2026-04-29T17:51:28.026Z</time></trkpt><trkpt lat="43.9891159" lon="10.6867732"><ele>901.0</ele><time>2026-04-29T17:51:29.013Z</time></trkpt><trkpt lat="43.9891039" lon="10.686641"><ele>898.8</ele><time>2026-04-29T17:51:30.024Z</time></trkpt><trkpt lat="43.9890753" lon="10.6865203"><ele>896.5999999999999</ele><time>2026-04-29T17:51:31.038Z</time></trkpt><trkpt lat="43.9890358" lon="10.6863993"><ele>894.4</ele><time>2026-04-29T17:51:32.012Z</time></trkpt><trkpt lat="43.9889986" lon="10.6862942"><ele>892.2</ele><time>2026-04-29T17:51:33.022Z</time></trkpt><trkpt lat="43.9889536" lon="10.6862057"><ele>890.0</ele><time>2026-04-29T17:51:34.017Z</time></trkpt><trkpt lat="43.9888795" lon="10.686106"><ele>890.0000000000001</ele><time>2026-04-29T17:51:36.017Z</time></trkpt><trkpt lat="43.9888137" lon="10.6860818"><ele>890.0</ele><time>2026-04-29T17:51:38.014Z</time></trkpt><trkpt lat="43.9887403" lon="10.6861907"><ele>890.0</ele><time>2026-04-29T17:51:40.016Z</time></trkpt><trkpt lat="43.9887083" lon="10.6862678"><ele>890.0</ele><time>2026-04-29T17:51:41.026Z</time></trkpt><trkpt lat="43.9886757" lon="10.6863536"><ele>890.0000000000001</ele><time>2026-04-29T17:51:42.029Z</time></trkpt><trkpt lat="43.9886339" lon="10.6864344"><ele>890.0</ele><time>2026-04-29T17:51:43.024Z</time></trkpt><trkpt lat="43.9885754" lon="10.6864935"><ele>890.0000000000001</ele><time>2026-04-29T17:51:44.063Z</time></trkpt><trkpt lat="43.988501" lon="10.6865145"><ele>890.0</ele><time>2026-04-29T17:51:45.026Z</time></trkpt><trkpt lat="43.9884234" lon="10.6865131"><ele>890.0</ele><time>2026-04-29T17:51:46.029Z</time></trkpt><trkpt lat="43.9883549" lon="10.6864872"><ele>890.0</ele><time>2026-04-29T17:51:47.02Z</time></trkpt><trkpt lat="43.988288" lon="10.6864388"><ele>890.0000000000001</ele><time>2026-04-29T17:51:48.035Z</time></trkpt><trkpt lat="43.9882205" lon="10.686388"><ele>890.0</ele><time>2026-04-29T17:51:49.029Z</time></trkpt><trkpt lat="43.9881479" lon="10.6863494"><ele>889.0000000000001</ele><time>2026-04-29T17:51:50.024Z</time></trkpt><trkpt lat="43.9880723" lon="10.6863287"><ele>888.0</ele><time>2026-04-29T17:51:51.011Z</time></trkpt><trkpt lat="43.9879968" lon="10.6863238"><ele>887.0</ele><time>2026-04-29T17:51:52.03Z</time></trkpt><trkpt lat="43.9879271" lon="10.6863116"><ele>886.0</ele><time>2026-04-29T17:51:53.019Z</time></trkpt><trkpt lat="43.9878302" lon="10.6862433"><ele>885.0000000000001</ele><time>2026-04-29T17:51:55.014Z</time></trkpt><trkpt lat="43.9877676" lon="10.6861369"><ele>884.0</ele><time>2026-04-29T17:51:57.022Z</time></trkpt><trkpt lat="43.9877388" lon="10.6859811"><ele>884.0000000000001</ele><time>2026-04-29T17:51:58.999Z</time></trkpt><trkpt lat="43.9877351" lon="10.685885"><ele>884.0</ele><time>2026-04-29T17:52:00.024Z</time></trkpt><trkpt lat="43.9877427" lon="10.6857891"><ele>884.0</ele><time>2026-04-29T17:52:01.016Z</time></trkpt><trkpt lat="43.987751" lon="10.685678"><ele>884.0</ele><time>2026-04-29T17:52:02.013Z</time></trkpt><trkpt lat="43.9877388" lon="10.6855673"><ele>884.0000000000001</ele><time>2026-04-29T17:52:03.01Z</time></trkpt><trkpt lat="43.9877098" lon="10.6854691"><ele>884.0</ele><time>2026-04-29T17:52:04.02Z</time></trkpt><trkpt lat="43.9876598" lon="10.6853926"><ele>884.0000000000001</ele><time>2026-04-29T17:52:05.022Z</time></trkpt><trkpt lat="43.9875997" lon="10.6853407"><ele>884.0</ele><time>2026-04-29T17:52:06.015Z</time></trkpt><trkpt lat="43.9875219" lon="10.6853064"><ele>884.0</ele><time>2026-04-29T17:52:07.031Z</time></trkpt><trkpt lat="43.9874315" lon="10.6852898"><ele>884.0</ele><time>2026-04-29T17:52:08.021Z</time></trkpt><trkpt lat="43.987331" lon="10.6852751"><ele>884.0000000000001</ele><time>2026-04-29T17:52:09.007Z</time></trkpt><trkpt lat="43.9872289" lon="10.6852511"><ele>884.0</ele><time>2026-04-29T17:52:10.013Z</time></trkpt><trkpt lat="43.9871357" lon="10.6852098"><ele>884.1666666666667</ele><time>2026-04-29T17:52:11.002Z</time></trkpt><trkpt lat="43.9870383" lon="10.6851683"><ele>884.3333333333334</ele><time>2026-04-29T17:52:12.031Z</time></trkpt><trkpt lat="43.9869496" lon="10.6851569"><ele>884.5</ele><time>2026-04-29T17:52:13.021Z</time></trkpt><trkpt lat="43.9868671" lon="10.6851415"><ele>884.6666666666667</ele><time>2026-04-29T17:52:14.02Z</time></trkpt><trkpt lat="43.9867885" lon="10.6851187"><ele>884.8333333333334</ele><time>2026-04-29T17:52:15.006Z</time></trkpt><trkpt lat="43.986709" lon="10.6850897"><ele>885.0</ele><time>2026-04-29T17:52:16.021Z</time></trkpt><trkpt lat="43.9866273" lon="10.6850539"><ele>883.1666666666666</ele><time>2026-04-29T17:52:17.01Z</time></trkpt><trkpt lat="43.9865556" lon="10.6850215"><ele>881.3333333333333</ele><time>2026-04-29T17:52:18.02Z</time></trkpt><trkpt lat="43.986486" lon="10.6849892"><ele>879.5</ele><time>2026-04-29T17:52:19.019Z</time></trkpt><trkpt lat="43.9863717" lon="10.6849109"><ele>877.6666666666666</ele><time>2026-04-29T17:52:21.009Z</time></trkpt><trkpt lat="43.9863082" lon="10.6848636"><ele>875.8333333333333</ele><time>2026-04-29T17:52:22.027Z</time></trkpt><trkpt lat="43.9862422" lon="10.6848261"><ele>874.0</ele><time>2026-04-29T17:52:23.03Z</time></trkpt><trkpt lat="43.9861782" lon="10.6847996"><ele>873.9999999999999</ele><time>2026-04-29T17:52:24.025Z</time></trkpt><trkpt lat="43.9861085" lon="10.6847882"><ele>874.0</ele><time>2026-04-29T17:52:25.024Z</time></trkpt><trkpt lat="43.9860223" lon="10.6847896"><ele>874.0</ele><time>2026-04-29T17:52:26.023Z</time></trkpt><trkpt lat="43.9859281" lon="10.6847959"><ele>874.0</ele><time>2026-04-29T17:52:27.026Z</time></trkpt><trkpt lat="43.9858309" lon="10.6847836"><ele>873.9999999999999</ele><time>2026-04-29T17:52:28.023Z</time></trkpt><trkpt lat="43.9857336" lon="10.684754"><ele>874.0</ele><time>2026-04-29T17:52:29.011Z</time></trkpt><trkpt lat="43.9856379" lon="10.684718"><ele>873.0</ele><time>2026-04-29T17:52:30.019Z</time></trkpt><trkpt lat="43.9855561" lon="10.6846695"><ele>872.0</ele><time>2026-04-29T17:52:31.012Z</time></trkpt><trkpt lat="43.9854922" lon="10.6846285"><ele>871.0</ele><time>2026-04-29T17:52:32.021Z</time></trkpt><trkpt lat="43.9854303" lon="10.6846038"><ele>870.0</ele><time>2026-04-29T17:52:33.017Z</time></trkpt><trkpt lat="43.9853645" lon="10.6845953"><ele>869.0</ele><time>2026-04-29T17:52:34.023Z</time></trkpt><trkpt lat="43.9852918" lon="10.6845986"><ele>868.0</ele><time>2026-04-29T17:52:35.025Z</time></trkpt><trkpt lat="43.9852202" lon="10.6845997"><ele>867.0</ele><time>2026-04-29T17:52:36.018Z</time></trkpt><trkpt lat="43.9851539" lon="10.6845683"><ele>867.0</ele><time>2026-04-29T17:52:37.01Z</time></trkpt><trkpt lat="43.9850869" lon="10.6845127"><ele>867.0</ele><time>2026-04-29T17:52:38.03Z</time></trkpt><trkpt lat="43.9850306" lon="10.6844421"><ele>867.0</ele><time>2026-04-29T17:52:39.005Z</time></trkpt><trkpt lat="43.9849737" lon="10.6843498"><ele>867.0</ele><time>2026-04-29T17:52:40.014Z</time></trkpt><trkpt lat="43.9849162" lon="10.6842599"><ele>867.0</ele><time>2026-04-29T17:52:41.016Z</time></trkpt><trkpt lat="43.984868" lon="10.6841834"><ele>867.0</ele><time>2026-04-29T17:52:42.012Z</time></trkpt><trkpt lat="43.9848194" lon="10.6841174"><ele>868.5</ele><time>2026-04-29T17:52:43.019Z</time></trkpt><trkpt lat="43.9847548" lon="10.6840471"><ele>870.0</ele><time>2026-04-29T17:52:44.018Z</time></trkpt><trkpt lat="43.9846822" lon="10.6839816"><ele>871.5</ele><time>2026-04-29T17:52:45.016Z</time></trkpt><trkpt lat="43.9846118" lon="10.6839221"><ele>873.0</ele><time>2026-04-29T17:52:46.021Z</time></trkpt><trkpt lat="43.9845399" lon="10.6838644"><ele>874.5</ele><time>2026-04-29T17:52:47.029Z</time></trkpt><trkpt lat="43.9844629" lon="10.6838331"><ele>876.0</ele><time>2026-04-29T17:52:48.009Z</time></trkpt><trkpt lat="43.9843826" lon="10.6838345"><ele>876.0</ele><time>2026-04-29T17:52:49.015Z</time></trkpt><trkpt lat="43.9843004" lon="10.6838628"><ele>875.9999999999999</ele><time>2026-04-29T17:52:50.025Z</time></trkpt><trkpt lat="43.9842152" lon="10.6839063"><ele>875.9999999999999</ele><time>2026-04-29T17:52:51.018Z</time></trkpt><trkpt lat="43.9841226" lon="10.6839252"><ele>876.0</ele><time>2026-04-29T17:52:52.018Z</time></trkpt><trkpt lat="43.9840231" lon="10.68392"><ele>876.0</ele><time>2026-04-29T17:52:53.022Z</time></trkpt><trkpt lat="43.9839209" lon="10.6838907"><ele>874.8333333333334</ele><time>2026-04-29T17:52:53.992Z</time></trkpt><trkpt lat="43.9838244" lon="10.6838577"><ele>873.6666666666667</ele><time>2026-04-29T17:52:55.033Z</time></trkpt><trkpt lat="43.983749" lon="10.6838319"><ele>872.5</ele><time>2026-04-29T17:52:56.013Z</time></trkpt><trkpt lat="43.9836734" lon="10.683825"><ele>871.3333333333334</ele><time>2026-04-29T17:52:57.024Z</time></trkpt><trkpt lat="43.9836005" lon="10.6838538"><ele>870.1666666666667</ele><time>2026-04-29T17:52:58.036Z</time></trkpt><trkpt lat="43.9835395" lon="10.6839239"><ele>869.0</ele><time>2026-04-29T17:52:59.016Z</time></trkpt><trkpt lat="43.9834937" lon="10.6840172"><ele>869.0000000000001</ele><time>2026-04-29T17:53:00.021Z</time></trkpt><trkpt lat="43.9834395" lon="10.6840829"><ele>869.0</ele><time>2026-04-29T17:53:01.013Z</time></trkpt><trkpt lat="43.9833803" lon="10.684114"><ele>869.0</ele><time>2026-04-29T17:53:02.006Z</time></trkpt><trkpt lat="43.9833107" lon="10.6841405"><ele>869.0</ele><time>2026-04-29T17:53:03.007Z</time></trkpt><trkpt lat="43.9832363" lon="10.6841768"><ele>869.0000000000001</ele><time>2026-04-29T17:53:04.014Z</time></trkpt><trkpt lat="43.9831663" lon="10.6842391"><ele>869.0</ele><time>2026-04-29T17:53:05.021Z</time></trkpt><trkpt lat="43.9830961" lon="10.6843123"><ele>866.0</ele><time>2026-04-29T17:53:06.024Z</time></trkpt><trkpt lat="43.9830159" lon="10.6844487"><ele>863.0</ele><time>2026-04-29T17:53:07.016Z</time></trkpt><trkpt lat="43.9829317" lon="10.6845945"><ele>860.0</ele><time>2026-04-29T17:53:08.02Z</time></trkpt><trkpt lat="43.9828528" lon="10.6847175"><ele>857.0</ele><time>2026-04-29T17:53:09.017Z</time></trkpt><trkpt lat="43.9827804" lon="10.684825"><ele>857.0</ele><time>2026-04-29T17:53:10.017Z</time></trkpt><trkpt lat="43.9827075" lon="10.6849148"><ele>857.0</ele><time>2026-04-29T17:53:11.021Z</time></trkpt><trkpt lat="43.9826317" lon="10.684984"><ele>857.0</ele><time>2026-04-29T17:53:12.007Z</time></trkpt><trkpt lat="43.9825538" lon="10.6850457"><ele>857.0</ele><time>2026-04-29T17:53:13.012Z</time></trkpt><trkpt lat="43.9824561" lon="10.6851047"><ele>857.0</ele><time>2026-04-29T17:53:14.023Z</time></trkpt><trkpt lat="43.982369" lon="10.6851808"><ele>855.5000000000001</ele><time>2026-04-29T17:53:15.02Z</time></trkpt><trkpt lat="43.9822944" lon="10.6852514"><ele>854.0</ele><time>2026-04-29T17:53:16.028Z</time></trkpt><trkpt lat="43.9822151" lon="10.6853071"><ele>852.5</ele><time>2026-04-29T17:53:17.02Z</time></trkpt><trkpt lat="43.9821304" lon="10.6853362"><ele>851.0</ele><time>2026-04-29T17:53:18.021Z</time></trkpt><trkpt lat="43.9820558" lon="10.6853386"><ele>849.5000000000001</ele><time>2026-04-29T17:53:19.001Z</time></trkpt><trkpt lat="43.9819906" lon="10.6853088"><ele>848.0</ele><time>2026-04-29T17:53:20.025Z</time></trkpt><trkpt lat="43.981919" lon="10.6852518"><ele>850.1666666666667</ele><time>2026-04-29T17:53:21.017Z</time></trkpt><trkpt lat="43.9818713" lon="10.6851774"><ele>852.3333333333334</ele><time>2026-04-29T17:53:22.023Z</time></trkpt><trkpt lat="43.9818326" lon="10.6850746"><ele>854.5</ele><time>2026-04-29T17:53:23.017Z</time></trkpt><trkpt lat="43.9818045" lon="10.6849638"><ele>856.6666666666667</ele><time>2026-04-29T17:53:24.009Z</time></trkpt><trkpt lat="43.9817809" lon="10.6848658"><ele>858.8333333333334</ele><time>2026-04-29T17:53:25.021Z</time></trkpt><trkpt lat="43.9817421" lon="10.6847905"><ele>861.0</ele><time>2026-04-29T17:53:26.022Z</time></trkpt><trkpt lat="43.9816193" lon="10.6847193"><ele>861.0</ele><time>2026-04-29T17:53:28.02Z</time></trkpt><trkpt lat="43.9815364" lon="10.6846905"><ele>860.9999999999999</ele><time>2026-04-29T17:53:29.009Z</time></trkpt><trkpt lat="43.9814545" lon="10.6846757"><ele>860.9999999999999</ele><time>2026-04-29T17:53:30.027Z</time></trkpt><trkpt lat="43.9813893" lon="10.6846528"><ele>861.0</ele><time>2026-04-29T17:53:31.02Z</time></trkpt><trkpt lat="43.9812823" lon="10.6845699"><ele>861.0</ele><time>2026-04-29T17:53:33.016Z</time></trkpt><trkpt lat="43.9812358" lon="10.6844121"><ele>863.8</ele><time>2026-04-29T17:53:35.012Z</time></trkpt><trkpt lat="43.9812316" lon="10.6842337"><ele>866.5999999999999</ele><time>2026-04-29T17:53:37.006Z</time></trkpt><trkpt lat="43.9812099" lon="10.6840794"><ele>869.4</ele><time>2026-04-29T17:53:39.004Z</time></trkpt><trkpt lat="43.9811148" lon="10.6840961"><ele>872.2</ele><time>2026-04-29T17:53:41.021Z</time></trkpt><trkpt lat="43.9810409" lon="10.6841238"><ele>875.0</ele><time>2026-04-29T17:53:42.008Z</time></trkpt><trkpt lat="43.9809634" lon="10.6841278"><ele>875.0000000000001</ele><time>2026-04-29T17:53:43.011Z</time></trkpt><trkpt lat="43.9808871" lon="10.6841153"><ele>875.0</ele><time>2026-04-29T17:53:44.028Z</time></trkpt><trkpt lat="43.9808148" lon="10.6840822"><ele>875.0</ele><time>2026-04-29T17:53:45.022Z</time></trkpt><trkpt lat="43.9807521" lon="10.684041"><ele>875.0</ele><time>2026-04-29T17:53:46.028Z</time></trkpt><trkpt lat="43.9806889" lon="10.6839806"><ele>875.0000000000001</ele><time>2026-04-29T17:53:47.02Z</time></trkpt><trkpt lat="43.9805782" lon="10.683935"><ele>875.0</ele><time>2026-04-29T17:53:49.016Z</time></trkpt><trkpt lat="43.9804686" lon="10.6838765"><ele>875.8333333333334</ele><time>2026-04-29T17:53:51.025Z</time></trkpt><trkpt lat="43.9804217" lon="10.683795"><ele>876.6666666666667</ele><time>2026-04-29T17:53:52.032Z</time></trkpt><trkpt lat="43.980379" lon="10.6837032"><ele>877.5</ele><time>2026-04-29T17:53:53.035Z</time></trkpt><trkpt lat="43.9803365" lon="10.6836229"><ele>878.3333333333333</ele><time>2026-04-29T17:53:54.037Z</time></trkpt><trkpt lat="43.9802753" lon="10.683556"><ele>879.1666666666666</ele><time>2026-04-29T17:53:55.024Z</time></trkpt><trkpt lat="43.9801907" lon="10.6835044"><ele>880.0</ele><time>2026-04-29T17:53:56.023Z</time></trkpt><trkpt lat="43.980097" lon="10.6834877"><ele>878.6666666666666</ele><time>2026-04-29T17:53:57.015Z</time></trkpt><trkpt lat="43.9800028" lon="10.683477"><ele>877.3333333333333</ele><time>2026-04-29T17:53:58.02Z</time></trkpt><trkpt lat="43.9799116" lon="10.6834657"><ele>876.0</ele><time>2026-04-29T17:53:59.013Z</time></trkpt><trkpt lat="43.9798277" lon="10.6834373"><ele>874.6666666666667</ele><time>2026-04-29T17:54:00.026Z</time></trkpt><trkpt lat="43.9797547" lon="10.6834103"><ele>873.3333333333334</ele><time>2026-04-29T17:54:01.02Z</time></trkpt><trkpt lat="43.979682" lon="10.683374"><ele>872.0</ele><time>2026-04-29T17:54:02.019Z</time></trkpt><trkpt lat="43.9796095" lon="10.6833256"><ele>872.0</ele><time>2026-04-29T17:54:03.018Z</time></trkpt><trkpt lat="43.9795288" lon="10.6832662"><ele>872.0</ele><time>2026-04-29T17:54:04.018Z</time></trkpt><trkpt lat="43.9794338" lon="10.6832196"><ele>872.0</ele><time>2026-04-29T17:54:05.02Z</time></trkpt><trkpt lat="43.9793436" lon="10.6831845"><ele>872.0</ele><time>2026-04-29T17:54:06.022Z</time></trkpt><trkpt lat="43.9792552" lon="10.6831507"><ele>872.0</ele><time>2026-04-29T17:54:07.013Z</time></trkpt><trkpt lat="43.9791666" lon="10.6831136"><ele>870.0</ele><time>2026-04-29T17:54:08.019Z</time></trkpt><trkpt lat="43.9790743" lon="10.6830841"><ele>868.0</ele><time>2026-04-29T17:54:09.01Z</time></trkpt><trkpt lat="43.9789748" lon="10.6830589"><ele>866.0</ele><time>2026-04-29T17:54:10.026Z</time></trkpt><trkpt lat="43.9788718" lon="10.6830484"><ele>864.0</ele><time>2026-04-29T17:54:11.017Z</time></trkpt><trkpt lat="43.9787722" lon="10.6830255"><ele>862.0</ele><time>2026-04-29T17:54:12.024Z</time></trkpt><trkpt lat="43.9786501" lon="10.6830081"><ele>862.0</ele><time>2026-04-29T17:54:13.004Z</time></trkpt><trkpt lat="43.9785396" lon="10.6830112"><ele>862.0</ele><time>2026-04-29T17:54:14.027Z</time></trkpt><trkpt lat="43.9784314" lon="10.6830262"><ele>862.0</ele><time>2026-04-29T17:54:15.025Z</time></trkpt><trkpt lat="43.9783388" lon="10.6830345"><ele>862.0</ele><time>2026-04-29T17:54:16.006Z</time></trkpt><trkpt lat="43.9782494" lon="10.6830431"><ele>862.0</ele><time>2026-04-29T17:54:17.023Z</time></trkpt><trkpt lat="43.9781635" lon="10.6830457"><ele>860.0</ele><time>2026-04-29T17:54:18.007Z</time></trkpt><trkpt lat="43.9780734" lon="10.6830342"><ele>858.0</ele><time>2026-04-29T17:54:19.022Z</time></trkpt><trkpt lat="43.9779873" lon="10.6829928"><ele>856.0</ele><time>2026-04-29T17:54:20.012Z</time></trkpt><trkpt lat="43.9779021" lon="10.6829377"><ele>854.0</ele><time>2026-04-29T17:54:21.024Z</time></trkpt><trkpt lat="43.9778174" lon="10.682885"><ele>852.0</ele><time>2026-04-29T17:54:22.014Z</time></trkpt><trkpt lat="43.9777365" lon="10.6828511"><ele>852.0</ele><time>2026-04-29T17:54:23.008Z</time></trkpt><trkpt lat="43.9776583" lon="10.6828609"><ele>852.0</ele><time>2026-04-29T17:54:24.01Z</time></trkpt><trkpt lat="43.9775713" lon="10.6828998"><ele>852.0</ele><time>2026-04-29T17:54:25.004Z</time></trkpt><trkpt lat="43.9774706" lon="10.6829896"><ele>852.0</ele><time>2026-04-29T17:54:26.015Z</time></trkpt><trkpt lat="43.9773712" lon="10.6830864"><ele>852.0</ele><time>2026-04-29T17:54:27.015Z</time></trkpt><trkpt lat="43.977282" lon="10.6831682"><ele>850.8</ele><time>2026-04-29T17:54:28.01Z</time></trkpt><trkpt lat="43.9771954" lon="10.6832398"><ele>849.6</ele><time>2026-04-29T17:54:29.026Z</time></trkpt><trkpt lat="43.9771096" lon="10.6833121"><ele>848.4</ele><time>2026-04-29T17:54:30.015Z</time></trkpt><trkpt lat="43.9770313" lon="10.6833781"><ele>847.1999999999999</ele><time>2026-04-29T17:54:31.02Z</time></trkpt><trkpt lat="43.976953" lon="10.6834467"><ele>846.0</ele><time>2026-04-29T17:54:32.013Z</time></trkpt><trkpt lat="43.9768833" lon="10.6834999"><ele>846.0</ele><time>2026-04-29T17:54:33.017Z</time></trkpt><trkpt lat="43.9768071" lon="10.6835476"><ele>846.0</ele><time>2026-04-29T17:54:34.019Z</time></trkpt><trkpt lat="43.9767186" lon="10.6835999"><ele>846.0</ele><time>2026-04-29T17:54:35.01Z</time></trkpt><trkpt lat="43.9766276" lon="10.6836451"><ele>846.0</ele><time>2026-04-29T17:54:36.023Z</time></trkpt><trkpt lat="43.9765439" lon="10.6836929"><ele>846.0</ele><time>2026-04-29T17:54:37.02Z</time></trkpt><trkpt lat="43.9764542" lon="10.6837383"><ele>841.0</ele><time>2026-04-29T17:54:38.008Z</time></trkpt><trkpt lat="43.9763642" lon="10.6837985"><ele>836.0</ele><time>2026-04-29T17:54:39.017Z</time></trkpt><trkpt lat="43.9762806" lon="10.6838594"><ele>831.0</ele><time>2026-04-29T17:54:40.022Z</time></trkpt><trkpt lat="43.9761964" lon="10.6839285"><ele>826.0</ele><time>2026-04-29T17:54:41.016Z</time></trkpt><trkpt lat="43.9761066" lon="10.6839987"><ele>821.0</ele><time>2026-04-29T17:54:42.033Z</time></trkpt><trkpt lat="43.9760141" lon="10.6840621"><ele>821.0</ele><time>2026-04-29T17:54:43.007Z</time></trkpt><trkpt lat="43.9759277" lon="10.6841159"><ele>821.0</ele><time>2026-04-29T17:54:44.034Z</time></trkpt><trkpt lat="43.9758447" lon="10.6841709"><ele>821.0</ele><time>2026-04-29T17:54:45.015Z</time></trkpt><trkpt lat="43.975762" lon="10.6842386"><ele>821.0</ele><time>2026-04-29T17:54:46.012Z</time></trkpt><trkpt lat="43.9756785" lon="10.684307"><ele>821.0</ele><time>2026-04-29T17:54:47.018Z</time></trkpt><trkpt lat="43.9755976" lon="10.6843633"><ele>822.1666666666667</ele><time>2026-04-29T17:54:48.021Z</time></trkpt><trkpt lat="43.9755161" lon="10.6844085"><ele>823.3333333333334</ele><time>2026-04-29T17:54:49.015Z</time></trkpt><trkpt lat="43.975435" lon="10.684429"><ele>824.5</ele><time>2026-04-29T17:54:50.034Z</time></trkpt><trkpt lat="43.9753605" lon="10.6844258"><ele>825.6666666666667</ele><time>2026-04-29T17:54:51.011Z</time></trkpt><trkpt lat="43.9752943" lon="10.6843871"><ele>826.8333333333334</ele><time>2026-04-29T17:54:52.011Z</time></trkpt><trkpt lat="43.9752392" lon="10.6843112"><ele>828.0</ele><time>2026-04-29T17:54:53.014Z</time></trkpt><trkpt lat="43.975191" lon="10.6842338"><ele>828.0</ele><time>2026-04-29T17:54:54.009Z</time></trkpt><trkpt lat="43.975146" lon="10.684134"><ele>828.0</ele><time>2026-04-29T17:54:55.017Z</time></trkpt><trkpt lat="43.975114" lon="10.6840228"><ele>828.0</ele><time>2026-04-29T17:54:56.013Z</time></trkpt><trkpt lat="43.97509" lon="10.6839282"><ele>828.0</ele><time>2026-04-29T17:54:57.01Z</time></trkpt><trkpt lat="43.9750996" lon="10.6838169"><ele>828.0</ele><time>2026-04-29T17:54:58.024Z</time></trkpt><trkpt lat="43.9751334" lon="10.6836864"><ele>828.0</ele><time>2026-04-29T17:54:59.006Z</time></trkpt><trkpt lat="43.9751784" lon="10.6835556"><ele>829.8333333333334</ele><time>2026-04-29T17:55:00.015Z</time></trkpt><trkpt lat="43.9752151" lon="10.6834279"><ele>831.6666666666667</ele><time>2026-04-29T17:55:01.013Z</time></trkpt><trkpt lat="43.9752418" lon="10.683315"><ele>833.5</ele><time>2026-04-29T17:55:02.011Z</time></trkpt><trkpt lat="43.9752738" lon="10.6832169"><ele>835.3333333333334</ele><time>2026-04-29T17:55:03.024Z</time></trkpt><trkpt lat="43.975297" lon="10.683115"><ele>837.1666666666667</ele><time>2026-04-29T17:55:04.022Z</time></trkpt><trkpt lat="43.9753145" lon="10.6830109"><ele>839.0</ele><time>2026-04-29T17:55:05.01Z</time></trkpt><trkpt lat="43.9753226" lon="10.6829011"><ele>839.0000000000001</ele><time>2026-04-29T17:55:06.014Z</time></trkpt><trkpt lat="43.9753424" lon="10.6828177"><ele>839.0</ele><time>2026-04-29T17:55:07.013Z</time></trkpt><trkpt lat="43.9753822" lon="10.6827401"><ele>839.0</ele><time>2026-04-29T17:55:08.031Z</time></trkpt><trkpt lat="43.9754283" lon="10.6826519"><ele>839.0</ele><time>2026-04-29T17:55:09.017Z</time></trkpt><trkpt lat="43.9754891" lon="10.6825566"><ele>839.0000000000001</ele><time>2026-04-29T17:55:10.015Z</time></trkpt><trkpt lat="43.9755507" lon="10.6824446"><ele>839.0</ele><time>2026-04-29T17:55:11.017Z</time></trkpt><trkpt lat="43.9756036" lon="10.682323"><ele>837.4000000000001</ele><time>2026-04-29T17:55:12.022Z</time></trkpt><trkpt lat="43.975656" lon="10.6821883"><ele>835.8</ele><time>2026-04-29T17:55:13.002Z</time></trkpt><trkpt lat="43.9757187" lon="10.6820698"><ele>834.2</ele><time>2026-04-29T17:55:14.012Z</time></trkpt><trkpt lat="43.9757823" lon="10.6819652"><ele>832.5999999999999</ele><time>2026-04-29T17:55:15.013Z</time></trkpt><trkpt lat="43.9758547" lon="10.6818567"><ele>831.0</ele><time>2026-04-29T17:55:16.011Z</time></trkpt><trkpt lat="43.975917" lon="10.6817371"><ele>833.8</ele><time>2026-04-29T17:55:17.01Z</time></trkpt><trkpt lat="43.9759738" lon="10.6816129"><ele>836.5999999999999</ele><time>2026-04-29T17:55:18.016Z</time></trkpt><trkpt lat="43.9760217" lon="10.6814941"><ele>839.4</ele><time>2026-04-29T17:55:19.018Z</time></trkpt><trkpt lat="43.9760538" lon="10.681362"><ele>842.2</ele><time>2026-04-29T17:55:20.028Z</time></trkpt><trkpt lat="43.9760765" lon="10.6812268"><ele>845.0</ele><time>2026-04-29T17:55:21.006Z</time></trkpt><trkpt lat="43.9760746" lon="10.6810532"><ele>845.0</ele><time>2026-04-29T17:55:22.019Z</time></trkpt><trkpt lat="43.9760398" lon="10.6808588"><ele>845.0</ele><time>2026-04-29T17:55:23.008Z</time></trkpt><trkpt lat="43.9760053" lon="10.6806776"><ele>845.0</ele><time>2026-04-29T17:55:24.017Z</time></trkpt><trkpt lat="43.97598" lon="10.6805313"><ele>845.0</ele><time>2026-04-29T17:55:25.012Z</time></trkpt><trkpt lat="43.9759513" lon="10.6803903"><ele>845.3333333333334</ele><time>2026-04-29T17:55:26.018Z</time></trkpt><trkpt lat="43.9759089" lon="10.6802649"><ele>845.6666666666667</ele><time>2026-04-29T17:55:27.004Z</time></trkpt><trkpt lat="43.9758614" lon="10.680172"><ele>846.0</ele><time>2026-04-29T17:55:28.01Z</time></trkpt><trkpt lat="43.9758156" lon="10.6800831"><ele>846.3333333333333</ele><time>2026-04-29T17:55:29.007Z</time></trkpt><trkpt lat="43.9757607" lon="10.6800081"><ele>846.6666666666666</ele><time>2026-04-29T17:55:30.009Z</time></trkpt><trkpt lat="43.975686" lon="10.6799598"><ele>847.0</ele><time>2026-04-29T17:55:31.007Z</time></trkpt><trkpt lat="43.9755997" lon="10.6799224"><ele>840.6</ele><time>2026-04-29T17:55:32.01Z</time></trkpt><trkpt lat="43.9755044" lon="10.6799034"><ele>834.2</ele><time>2026-04-29T17:55:33.02Z</time></trkpt><trkpt lat="43.9754102" lon="10.6799077"><ele>827.8</ele><time>2026-04-29T17:55:34.005Z</time></trkpt><trkpt lat="43.9753132" lon="10.6799094"><ele>821.4</ele><time>2026-04-29T17:55:35.01Z</time></trkpt><trkpt lat="43.9752129" lon="10.6799154"><ele>815.0</ele><time>2026-04-29T17:55:36.003Z</time></trkpt><trkpt lat="43.9751209" lon="10.6799176"><ele>815.0000000000001</ele><time>2026-04-29T17:55:37.008Z</time></trkpt><trkpt lat="43.9750322" lon="10.6798924"><ele>815.0</ele><time>2026-04-29T17:55:38.021Z</time></trkpt><trkpt lat="43.9749535" lon="10.6798498"><ele>815.0</ele><time>2026-04-29T17:55:39.014Z</time></trkpt><trkpt lat="43.9748722" lon="10.6798052"><ele>815.0</ele><time>2026-04-29T17:55:40.017Z</time></trkpt><trkpt lat="43.9748007" lon="10.679758"><ele>815.0000000000001</ele><time>2026-04-29T17:55:41.007Z</time></trkpt><trkpt lat="43.9747271" lon="10.67972"><ele>815.0</ele><time>2026-04-29T17:55:42.019Z</time></trkpt><trkpt lat="43.9746314" lon="10.6796753"><ele>814.6</ele><time>2026-04-29T17:55:43.02Z</time></trkpt><trkpt lat="43.9745306" lon="10.6796255"><ele>814.2</ele><time>2026-04-29T17:55:44.006Z</time></trkpt><trkpt lat="43.97444" lon="10.679567"><ele>813.8</ele><time>2026-04-29T17:55:45.013Z</time></trkpt><trkpt lat="43.9743544" lon="10.6794965"><ele>813.4</ele><time>2026-04-29T17:55:46.011Z</time></trkpt><trkpt lat="43.9742645" lon="10.6794055"><ele>813.0</ele><time>2026-04-29T17:55:47.017Z</time></trkpt><trkpt lat="43.9741814" lon="10.6793102"><ele>807.2</ele><time>2026-04-29T17:55:48.015Z</time></trkpt><trkpt lat="43.9741013" lon="10.6792039"><ele>801.4</ele><time>2026-04-29T17:55:49.025Z</time></trkpt><trkpt lat="43.9740386" lon="10.6790942"><ele>795.6</ele><time>2026-04-29T17:55:50.017Z</time></trkpt><trkpt lat="43.9739768" lon="10.6789818"><ele>789.8000000000001</ele><time>2026-04-29T17:55:51.015Z</time></trkpt><trkpt lat="43.973916" lon="10.6788968"><ele>784.0</ele><time>2026-04-29T17:55:52.019Z</time></trkpt><trkpt lat="43.9738556" lon="10.6788169"><ele>783.9999999999999</ele><time>2026-04-29T17:55:53.014Z</time></trkpt><trkpt lat="43.9738062" lon="10.6787492"><ele>784.0</ele><time>2026-04-29T17:55:54.024Z</time></trkpt><trkpt lat="43.9737036" lon="10.6787155"><ele>784.0</ele><time>2026-04-29T17:55:56.012Z</time></trkpt><trkpt lat="43.9736258" lon="10.6787285"><ele>784.0</ele><time>2026-04-29T17:55:57.008Z</time></trkpt><trkpt lat="43.9735381" lon="10.6787451"><ele>783.9999999999999</ele><time>2026-04-29T17:55:58.024Z</time></trkpt><trkpt lat="43.9734566" lon="10.6787513"><ele>784.0</ele><time>2026-04-29T17:55:59.019Z</time></trkpt><trkpt lat="43.9733655" lon="10.6787251"><ele>783.6</ele><time>2026-04-29T17:56:00.028Z</time></trkpt><trkpt lat="43.9732723" lon="10.6786837"><ele>783.2</ele><time>2026-04-29T17:56:01.02Z</time></trkpt><trkpt lat="43.9731836" lon="10.6786213"><ele>782.8000000000001</ele><time>2026-04-29T17:56:02.012Z</time></trkpt><trkpt lat="43.9730973" lon="10.6785497"><ele>782.4000000000001</ele><time>2026-04-29T17:56:03.017Z</time></trkpt><trkpt lat="43.9730278" lon="10.6784784"><ele>782.0</ele><time>2026-04-29T17:56:04.015Z</time></trkpt><trkpt lat="43.9729523" lon="10.678449"><ele>782.0000000000001</ele><time>2026-04-29T17:56:05.021Z</time></trkpt><trkpt lat="43.9728704" lon="10.6784509"><ele>782.0</ele><time>2026-04-29T17:56:06.034Z</time></trkpt><trkpt lat="43.9727907" lon="10.6784703"><ele>782.0</ele><time>2026-04-29T17:56:07.009Z</time></trkpt><trkpt lat="43.9727131" lon="10.6784943"><ele>782.0</ele><time>2026-04-29T17:56:08.025Z</time></trkpt><trkpt lat="43.9726108" lon="10.6784964"><ele>782.0000000000001</ele><time>2026-04-29T17:56:10.015Z</time></trkpt><trkpt lat="43.9725691" lon="10.6784233"><ele>782.0</ele><time>2026-04-29T17:56:11.028Z</time></trkpt><trkpt lat="43.972527" lon="10.678313"><ele>782.0000000000001</ele><time>2026-04-29T17:56:12.01Z</time></trkpt><trkpt lat="43.9724958" lon="10.6781989"><ele>782.0</ele><time>2026-04-29T17:56:13.012Z</time></trkpt><trkpt lat="43.9724751" lon="10.6780891"><ele>782.0</ele><time>2026-04-29T17:56:14.018Z</time></trkpt><trkpt lat="43.9724801" lon="10.6779764"><ele>782.0</ele><time>2026-04-29T17:56:15.023Z</time></trkpt><trkpt lat="43.9725022" lon="10.6778811"><ele>782.0000000000001</ele><time>2026-04-29T17:56:16.008Z</time></trkpt><trkpt lat="43.9725364" lon="10.6777889"><ele>782.0</ele><time>2026-04-29T17:56:17.026Z</time></trkpt><trkpt lat="43.972574" lon="10.6776908"><ele>783.3333333333334</ele><time>2026-04-29T17:56:18.035Z</time></trkpt><trkpt lat="43.9726057" lon="10.6775749"><ele>784.6666666666667</ele><time>2026-04-29T17:56:19.002Z</time></trkpt><trkpt lat="43.9726324" lon="10.6774505"><ele>786.0</ele><time>2026-04-29T17:56:20.015Z</time></trkpt><trkpt lat="43.9726554" lon="10.6773293"><ele>787.3333333333333</ele><time>2026-04-29T17:56:21.006Z</time></trkpt><trkpt lat="43.9726799" lon="10.6772117"><ele>788.6666666666666</ele><time>2026-04-29T17:56:22.031Z</time></trkpt><trkpt lat="43.9727019" lon="10.6771014"><ele>790.0</ele><time>2026-04-29T17:56:23.008Z</time></trkpt><trkpt lat="43.972736" lon="10.6769922"><ele>789.6666666666666</ele><time>2026-04-29T17:56:24.02Z</time></trkpt><trkpt lat="43.9727694" lon="10.6768763"><ele>789.3333333333333</ele><time>2026-04-29T17:56:25.008Z</time></trkpt><trkpt lat="43.9727811" lon="10.6767606"><ele>789.0</ele><time>2026-04-29T17:56:26.014Z</time></trkpt><trkpt lat="43.9727696" lon="10.6766408"><ele>788.6666666666667</ele><time>2026-04-29T17:56:27.022Z</time></trkpt><trkpt lat="43.972736" lon="10.6765319"><ele>788.3333333333334</ele><time>2026-04-29T17:56:28.004Z</time></trkpt><trkpt lat="43.9726912" lon="10.6764384"><ele>788.0</ele><time>2026-04-29T17:56:29.029Z</time></trkpt><trkpt lat="43.972629" lon="10.6763689"><ele>788.0</ele><time>2026-04-29T17:56:30.021Z</time></trkpt><trkpt lat="43.9725491" lon="10.6763239"><ele>788.0</ele><time>2026-04-29T17:56:31.017Z</time></trkpt><trkpt lat="43.9724638" lon="10.6762737"><ele>788.0</ele><time>2026-04-29T17:56:32.01Z</time></trkpt><trkpt lat="43.9723819" lon="10.6762078"><ele>788.0</ele><time>2026-04-29T17:56:33.009Z</time></trkpt><trkpt lat="43.9723192" lon="10.6761122"><ele>788.0</ele><time>2026-04-29T17:56:34.003Z</time></trkpt><trkpt lat="43.9722781" lon="10.6759954"><ele>783.5000000000001</ele><time>2026-04-29T17:56:35.013Z</time></trkpt><trkpt lat="43.9722475" lon="10.6758837"><ele>779.0</ele><time>2026-04-29T17:56:36.037Z</time></trkpt><trkpt lat="43.9722305" lon="10.6757455"><ele>774.5</ele><time>2026-04-29T17:56:37.028Z</time></trkpt><trkpt lat="43.9722054" lon="10.6756121"><ele>770.0</ele><time>2026-04-29T17:56:38.019Z</time></trkpt><trkpt lat="43.9721812" lon="10.6755043"><ele>765.5</ele><time>2026-04-29T17:56:39.005Z</time></trkpt><trkpt lat="43.9721529" lon="10.6754112"><ele>761.0</ele><time>2026-04-29T17:56:40.012Z</time></trkpt><trkpt lat="43.9721122" lon="10.6753201"><ele>760.5999999999999</ele><time>2026-04-29T17:56:41.009Z</time></trkpt><trkpt lat="43.9720774" lon="10.6752336"><ele>760.2</ele><time>2026-04-29T17:56:42.023Z</time></trkpt><trkpt lat="43.9720384" lon="10.6750812"><ele>759.8</ele><time>2026-04-29T17:56:44.023Z</time></trkpt><trkpt lat="43.9719896" lon="10.6749724"><ele>759.4000000000001</ele><time>2026-04-29T17:56:46.023Z</time></trkpt><trkpt lat="43.9719041" lon="10.674912"><ele>759.0</ele><time>2026-04-29T17:56:48.013Z</time></trkpt><trkpt lat="43.9717795" lon="10.6749247"><ele>756.2</ele><time>2026-04-29T17:56:50.019Z</time></trkpt><trkpt lat="43.9716533" lon="10.6749327"><ele>753.4000000000001</ele><time>2026-04-29T17:56:52.034Z</time></trkpt><trkpt lat="43.9715351" lon="10.6749287"><ele>750.6</ele><time>2026-04-29T17:56:54.034Z</time></trkpt><trkpt lat="43.9714749" lon="10.67489"><ele>747.8</ele><time>2026-04-29T17:56:55.008Z</time></trkpt><trkpt lat="43.9714172" lon="10.6748478"><ele>745.0</ele><time>2026-04-29T17:56:56.012Z</time></trkpt><trkpt lat="43.9713415" lon="10.6747956"><ele>745.0</ele><time>2026-04-29T17:56:57.009Z</time></trkpt><trkpt lat="43.9712645" lon="10.6747276"><ele>745.0</ele><time>2026-04-29T17:56:58.015Z</time></trkpt><trkpt lat="43.971195" lon="10.6746581"><ele>745.0</ele><time>2026-04-29T17:56:59.013Z</time></trkpt><trkpt lat="43.9711242" lon="10.6745979"><ele>745.0</ele><time>2026-04-29T17:57:00.018Z</time></trkpt><trkpt lat="43.9710581" lon="10.6745371"><ele>745.0</ele><time>2026-04-29T17:57:01.016Z</time></trkpt><trkpt lat="43.9709923" lon="10.6744989"><ele>745.0</ele><time>2026-04-29T17:57:02.027Z</time></trkpt><trkpt lat="43.9709289" lon="10.6744799"><ele>743.0</ele><time>2026-04-29T17:57:03.011Z</time></trkpt><trkpt lat="43.9707903" lon="10.6745032"><ele>741.0</ele><time>2026-04-29T17:57:05.018Z</time></trkpt><trkpt lat="43.9707054" lon="10.6745373"><ele>739.0</ele><time>2026-04-29T17:57:06.039Z</time></trkpt><trkpt lat="43.9706218" lon="10.6745732"><ele>737.0</ele><time>2026-04-29T17:57:07.01Z</time></trkpt><trkpt lat="43.9705321" lon="10.6746051"><ele>735.0</ele><time>2026-04-29T17:57:08.029Z</time></trkpt><trkpt lat="43.9704348" lon="10.674629"><ele>735.0</ele><time>2026-04-29T17:57:09.016Z</time></trkpt><trkpt lat="43.9703357" lon="10.674643"><ele>735.0</ele><time>2026-04-29T17:57:10.024Z</time></trkpt><trkpt lat="43.9702392" lon="10.6746582"><ele>735.0</ele><time>2026-04-29T17:57:11.021Z</time></trkpt><trkpt lat="43.9701356" lon="10.6746553"><ele>735.0</ele><time>2026-04-29T17:57:12.014Z</time></trkpt><trkpt lat="43.9700273" lon="10.6746308"><ele>735.0</ele><time>2026-04-29T17:57:13.023Z</time></trkpt><trkpt lat="43.9699159" lon="10.6746022"><ele>734.4</ele><time>2026-04-29T17:57:14.01Z</time></trkpt><trkpt lat="43.9698042" lon="10.6745564"><ele>733.8</ele><time>2026-04-29T17:57:15.022Z</time></trkpt><trkpt lat="43.9697042" lon="10.6744977"><ele>733.2</ele><time>2026-04-29T17:57:16.024Z</time></trkpt><trkpt lat="43.9696151" lon="10.6744381"><ele>732.6</ele><time>2026-04-29T17:57:17.013Z</time></trkpt><trkpt lat="43.9695458" lon="10.6743505"><ele>732.0</ele><time>2026-04-29T17:57:18.023Z</time></trkpt><trkpt lat="43.9694922" lon="10.6742364"><ele>732.0</ele><time>2026-04-29T17:57:19.019Z</time></trkpt><trkpt lat="43.9694435" lon="10.6741336"><ele>732.0</ele><time>2026-04-29T17:57:20.017Z</time></trkpt><trkpt lat="43.9693834" lon="10.6740353"><ele>732.0</ele><time>2026-04-29T17:57:21.02Z</time></trkpt><trkpt lat="43.9693067" lon="10.6739565"><ele>732.0</ele><time>2026-04-29T17:57:22.015Z</time></trkpt><trkpt lat="43.9692224" lon="10.6738633"><ele>732.0</ele><time>2026-04-29T17:57:23.018Z</time></trkpt><trkpt lat="43.9691417" lon="10.6737735"><ele>732.0</ele><time>2026-04-29T17:57:24.008Z</time></trkpt><trkpt lat="43.9690579" lon="10.6737096"><ele>732.0</ele><time>2026-04-29T17:57:25.023Z</time></trkpt><trkpt lat="43.968973" lon="10.673663"><ele>732.0</ele><time>2026-04-29T17:57:26.018Z</time></trkpt><trkpt lat="43.9688878" lon="10.6736295"><ele>732.0</ele><time>2026-04-29T17:57:27.009Z</time></trkpt><trkpt lat="43.9688092" lon="10.6735991"><ele>732.0</ele><time>2026-04-29T17:57:28.027Z</time></trkpt><trkpt lat="43.9687251" lon="10.673585"><ele>732.0</ele><time>2026-04-29T17:57:29.029Z</time></trkpt><trkpt lat="43.9686334" lon="10.6735717"><ele>731.0</ele><time>2026-04-29T17:57:30.016Z</time></trkpt><trkpt lat="43.9685274" lon="10.6735701"><ele>730.0</ele><time>2026-04-29T17:57:31.022Z</time></trkpt><trkpt lat="43.9684113" lon="10.6735994"><ele>729.0</ele><time>2026-04-29T17:57:32.008Z</time></trkpt><trkpt lat="43.968308" lon="10.6736394"><ele>728.0</ele><time>2026-04-29T17:57:33.032Z</time></trkpt><trkpt lat="43.968212" lon="10.6736742"><ele>727.0</ele><time>2026-04-29T17:57:34.023Z</time></trkpt><trkpt lat="43.968134" lon="10.673712"><ele>727.0</ele><time>2026-04-29T17:57:35.017Z</time></trkpt><trkpt lat="43.9680718" lon="10.6737557"><ele>727.0</ele><time>2026-04-29T17:57:36.021Z</time></trkpt><trkpt lat="43.9680162" lon="10.6738074"><ele>727.0</ele><time>2026-04-29T17:57:37.02Z</time></trkpt><trkpt lat="43.9679714" lon="10.6738695"><ele>727.0</ele><time>2026-04-29T17:57:38.016Z</time></trkpt><trkpt lat="43.9679324" lon="10.6739426"><ele>727.0</ele><time>2026-04-29T17:57:39.012Z</time></trkpt><trkpt lat="43.9678796" lon="10.6740094"><ele>727.0</ele><time>2026-04-29T17:57:40.017Z</time></trkpt><trkpt lat="43.967748" lon="10.6740445"><ele>727.0</ele><time>2026-04-29T17:57:42.014Z</time></trkpt><trkpt lat="43.9676798" lon="10.6740343"><ele>727.0</ele><time>2026-04-29T17:57:43.022Z</time></trkpt><trkpt lat="43.9676171" lon="10.6739884"><ele>727.0</ele><time>2026-04-29T17:57:44.019Z</time></trkpt><trkpt lat="43.9675634" lon="10.6739268"><ele>727.0</ele><time>2026-04-29T17:57:45.015Z</time></trkpt><trkpt lat="43.9675006" lon="10.673877"><ele>727.0</ele><time>2026-04-29T17:57:46.013Z</time></trkpt><trkpt lat="43.9674198" lon="10.6738424"><ele>727.0</ele><time>2026-04-29T17:57:47.013Z</time></trkpt><trkpt lat="43.9673281" lon="10.6738315"><ele>725.4000000000001</ele><time>2026-04-29T17:57:48.037Z</time></trkpt><trkpt lat="43.9672319" lon="10.6738328"><ele>723.8000000000001</ele><time>2026-04-29T17:57:49.018Z</time></trkpt><trkpt lat="43.9671281" lon="10.6738469"><ele>722.2</ele><time>2026-04-29T17:57:50.019Z</time></trkpt><trkpt lat="43.9670392" lon="10.6738582"><ele>720.6</ele><time>2026-04-29T17:57:51.011Z</time></trkpt><trkpt lat="43.9669519" lon="10.6738677"><ele>719.0</ele><time>2026-04-29T17:57:52.016Z</time></trkpt><trkpt lat="43.966875" lon="10.673863"><ele>719.0</ele><time>2026-04-29T17:57:53.007Z</time></trkpt><trkpt lat="43.9668211" lon="10.6738058"><ele>719.0</ele><time>2026-04-29T17:57:54.006Z</time></trkpt><trkpt lat="43.9667682" lon="10.6737151"><ele>719.0</ele><time>2026-04-29T17:57:55.012Z</time></trkpt><trkpt lat="43.9667193" lon="10.6736052"><ele>719.0</ele><time>2026-04-29T17:57:56.015Z</time></trkpt><trkpt lat="43.9666651" lon="10.6735068"><ele>719.0</ele><time>2026-04-29T17:57:57.017Z</time></trkpt><trkpt lat="43.9666083" lon="10.6734261"><ele>719.0</ele><time>2026-04-29T17:57:58.01Z</time></trkpt><trkpt lat="43.9665553" lon="10.6733754"><ele>718.2</ele><time>2026-04-29T17:57:59.012Z</time></trkpt><trkpt lat="43.9664434" lon="10.6733921"><ele>717.4000000000001</ele><time>2026-04-29T17:58:01.024Z</time></trkpt><trkpt lat="43.9664064" lon="10.6735225"><ele>716.6</ele><time>2026-04-29T17:58:03.015Z</time></trkpt><trkpt lat="43.9663838" lon="10.6736276"><ele>715.8</ele><time>2026-04-29T17:58:04.033Z</time></trkpt><trkpt lat="43.9663583" lon="10.6737106"><ele>715.0</ele><time>2026-04-29T17:58:05.015Z</time></trkpt><trkpt lat="43.9663188" lon="10.673862"><ele>713.4</ele><time>2026-04-29T17:58:07.024Z</time></trkpt><trkpt lat="43.9662672" lon="10.6740133"><ele>711.8</ele><time>2026-04-29T17:58:09.008Z</time></trkpt><trkpt lat="43.966236" lon="10.6741004"><ele>710.2</ele><time>2026-04-29T17:58:10.025Z</time></trkpt><trkpt lat="43.9661731" lon="10.6742677"><ele>708.6</ele><time>2026-04-29T17:58:12.015Z</time></trkpt><trkpt lat="43.966121" lon="10.6743519"><ele>707.0</ele><time>2026-04-29T17:58:13.008Z</time></trkpt><trkpt lat="43.9660705" lon="10.6744083"><ele>707.0</ele><time>2026-04-29T17:58:14.028Z</time></trkpt><trkpt lat="43.9659508" lon="10.6744346"><ele>707.0</ele><time>2026-04-29T17:58:16.025Z</time></trkpt><trkpt lat="43.9658811" lon="10.6744202"><ele>707.0</ele><time>2026-04-29T17:58:17.016Z</time></trkpt><trkpt lat="43.9658139" lon="10.6743887"><ele>707.0</ele><time>2026-04-29T17:58:18.022Z</time></trkpt><trkpt lat="43.9657544" lon="10.6743518"><ele>707.0</ele><time>2026-04-29T17:58:19.013Z</time></trkpt><trkpt lat="43.9657034" lon="10.6742824"><ele>707.0</ele><time>2026-04-29T17:58:20.024Z</time></trkpt><trkpt lat="43.9656522" lon="10.6742076"><ele>705.8333333333333</ele><time>2026-04-29T17:58:21.024Z</time></trkpt><trkpt lat="43.9656036" lon="10.6741247"><ele>704.6666666666666</ele><time>2026-04-29T17:58:22.009Z</time></trkpt><trkpt lat="43.9655554" lon="10.6740375"><ele>703.5</ele><time>2026-04-29T17:58:23.02Z</time></trkpt><trkpt lat="43.9655145" lon="10.6739397"><ele>702.3333333333334</ele><time>2026-04-29T17:58:24.021Z</time></trkpt><trkpt lat="43.9654755" lon="10.6738434"><ele>701.1666666666667</ele><time>2026-04-29T17:58:25.021Z</time></trkpt><trkpt lat="43.9654296" lon="10.6737424"><ele>700.0</ele><time>2026-04-29T17:58:26.008Z</time></trkpt><trkpt lat="43.965384" lon="10.6736416"><ele>701.1666666666667</ele><time>2026-04-29T17:58:27.014Z</time></trkpt><trkpt lat="43.9653365" lon="10.6735579"><ele>702.3333333333334</ele><time>2026-04-29T17:58:28.011Z</time></trkpt><trkpt lat="43.9652935" lon="10.6734868"><ele>703.5</ele><time>2026-04-29T17:58:29.013Z</time></trkpt><trkpt lat="43.9652424" lon="10.6734354"><ele>704.6666666666666</ele><time>2026-04-29T17:58:30.014Z</time></trkpt><trkpt lat="43.9651748" lon="10.6733906"><ele>705.8333333333333</ele><time>2026-04-29T17:58:31.01Z</time></trkpt><trkpt lat="43.9650927" lon="10.6733703"><ele>707.0</ele><time>2026-04-29T17:58:32.029Z</time></trkpt><trkpt lat="43.9650051" lon="10.6733582"><ele>703.6666666666666</ele><time>2026-04-29T17:58:33.011Z</time></trkpt><trkpt lat="43.9649253" lon="10.6733271"><ele>700.3333333333333</ele><time>2026-04-29T17:58:34.021Z</time></trkpt><trkpt lat="43.9648496" lon="10.6732768"><ele>697.0</ele><time>2026-04-29T17:58:35.013Z</time></trkpt><trkpt lat="43.9647814" lon="10.6732209"><ele>693.6666666666666</ele><time>2026-04-29T17:58:36.012Z</time></trkpt><trkpt lat="43.9647172" lon="10.6731695"><ele>690.3333333333334</ele><time>2026-04-29T17:58:36.997Z</time></trkpt><trkpt lat="43.9646495" lon="10.6731452"><ele>687.0</ele><time>2026-04-29T17:58:38.013Z</time></trkpt><trkpt lat="43.9645612" lon="10.6731411"><ele>687.0</ele><time>2026-04-29T17:58:38.983Z</time></trkpt><trkpt lat="43.9644908" lon="10.673148"><ele>687.0</ele><time>2026-04-29T17:58:40.016Z</time></trkpt><trkpt lat="43.9644127" lon="10.6731775"><ele>687.0</ele><time>2026-04-29T17:58:41.013Z</time></trkpt><trkpt lat="43.9643554" lon="10.6732263"><ele>687.0</ele><time>2026-04-29T17:58:42.012Z</time></trkpt><trkpt lat="43.9643038" lon="10.6732773"><ele>687.0</ele><time>2026-04-29T17:58:43.014Z</time></trkpt><trkpt lat="43.9642473" lon="10.6733783"><ele>687.0</ele><time>2026-04-29T17:58:45.016Z</time></trkpt><trkpt lat="43.9641997" lon="10.6732735"><ele>686.0</ele><time>2026-04-29T17:59:17.007Z</time></trkpt><trkpt lat="43.9640968" lon="10.6733275"><ele>685.0</ele><time>2026-04-29T17:59:20.02Z</time></trkpt><trkpt lat="43.9639989" lon="10.6734494"><ele>684.0</ele><time>2026-04-29T17:59:22.029Z</time></trkpt><trkpt lat="43.9639531" lon="10.6735271"><ele>683.0</ele><time>2026-04-29T17:59:23.013Z</time></trkpt><trkpt lat="43.9639042" lon="10.6736084"><ele>682.0</ele><time>2026-04-29T17:59:24.028Z</time></trkpt><trkpt lat="43.9638627" lon="10.6736929"><ele>680.8333333333334</ele><time>2026-04-29T17:59:25.018Z</time></trkpt><trkpt lat="43.9638161" lon="10.6737797"><ele>679.6666666666667</ele><time>2026-04-29T17:59:26.023Z</time></trkpt><trkpt lat="43.9637645" lon="10.6738622"><ele>678.5</ele><time>2026-04-29T17:59:27.008Z</time></trkpt><trkpt lat="43.9637239" lon="10.6739604"><ele>677.3333333333334</ele><time>2026-04-29T17:59:28.014Z</time></trkpt><trkpt lat="43.9636838" lon="10.6740565"><ele>676.1666666666666</ele><time>2026-04-29T17:59:29.019Z</time></trkpt><trkpt lat="43.9636367" lon="10.674147"><ele>675.0</ele><time>2026-04-29T17:59:30.019Z</time></trkpt><trkpt lat="43.9635914" lon="10.6742305"><ele>675.0</ele><time>2026-04-29T17:59:31.012Z</time></trkpt><trkpt lat="43.9635302" lon="10.6743142"><ele>675.0</ele><time>2026-04-29T17:59:32.027Z</time></trkpt><trkpt lat="43.963467" lon="10.6743869"><ele>675.0</ele><time>2026-04-29T17:59:33.011Z</time></trkpt><trkpt lat="43.96341" lon="10.6744679"><ele>675.0</ele><time>2026-04-29T17:59:34.021Z</time></trkpt><trkpt lat="43.9633426" lon="10.6745509"><ele>675.0</ele><time>2026-04-29T17:59:35.022Z</time></trkpt><trkpt lat="43.9632714" lon="10.6746362"><ele>675.0</ele><time>2026-04-29T17:59:36.029Z</time></trkpt><trkpt lat="43.9631943" lon="10.6747176"><ele>674.4</ele><time>2026-04-29T17:59:37.004Z</time></trkpt><trkpt lat="43.9631127" lon="10.6747902"><ele>673.8</ele><time>2026-04-29T17:59:38.023Z</time></trkpt><trkpt lat="43.9630357" lon="10.6748594"><ele>673.2</ele><time>2026-04-29T17:59:39.007Z</time></trkpt><trkpt lat="43.9629626" lon="10.6749237"><ele>672.6</ele><time>2026-04-29T17:59:40.017Z</time></trkpt><trkpt lat="43.9628856" lon="10.674992"><ele>672.0</ele><time>2026-04-29T17:59:41.029Z</time></trkpt><trkpt lat="43.962807" lon="10.6750573"><ele>672.0</ele><time>2026-04-29T17:59:42.013Z</time></trkpt><trkpt lat="43.9627337" lon="10.6750999"><ele>672.0</ele><time>2026-04-29T17:59:43.011Z</time></trkpt><trkpt lat="43.9626557" lon="10.6751422"><ele>672.0</ele><time>2026-04-29T17:59:44.02Z</time></trkpt><trkpt lat="43.9625643" lon="10.675176"><ele>672.0</ele><time>2026-04-29T17:59:45.026Z</time></trkpt><trkpt lat="43.9624696" lon="10.6752112"><ele>672.0</ele><time>2026-04-29T17:59:46.013Z</time></trkpt><trkpt lat="43.9623697" lon="10.6752486"><ele>670.2</ele><time>2026-04-29T17:59:47.027Z</time></trkpt><trkpt lat="43.9622782" lon="10.6752946"><ele>668.4000000000001</ele><time>2026-04-29T17:59:48.007Z</time></trkpt><trkpt lat="43.9621875" lon="10.675355"><ele>666.5999999999999</ele><time>2026-04-29T17:59:49.017Z</time></trkpt><trkpt lat="43.9620995" lon="10.6754201"><ele>664.8</ele><time>2026-04-29T17:59:50.02Z</time></trkpt><trkpt lat="43.9620229" lon="10.6754924"><ele>663.0</ele><time>2026-04-29T17:59:51.012Z</time></trkpt><trkpt lat="43.9619508" lon="10.6755646"><ele>663.0</ele><time>2026-04-29T17:59:52.018Z</time></trkpt><trkpt lat="43.9618885" lon="10.6756329"><ele>663.0</ele><time>2026-04-29T17:59:53.009Z</time></trkpt><trkpt lat="43.9618283" lon="10.6756939"><ele>663.0</ele><time>2026-04-29T17:59:54.024Z</time></trkpt><trkpt lat="43.9617399" lon="10.6757346"><ele>663.0</ele><time>2026-04-29T17:59:55.027Z</time></trkpt><trkpt lat="43.9616409" lon="10.6757593"><ele>663.0</ele><time>2026-04-29T17:59:56.025Z</time></trkpt><trkpt lat="43.961555" lon="10.6757738"><ele>663.0</ele><time>2026-04-29T17:59:57.017Z</time></trkpt><trkpt lat="43.9614628" lon="10.6757894"><ele>663.4</ele><time>2026-04-29T17:59:58.013Z</time></trkpt><trkpt lat="43.9613598" lon="10.6758214"><ele>663.8</ele><time>2026-04-29T17:59:59.014Z</time></trkpt><trkpt lat="43.9612512" lon="10.6758584"><ele>664.2</ele><time>2026-04-29T18:00:00.015Z</time></trkpt><trkpt lat="43.961137" lon="10.675895"><ele>664.6</ele><time>2026-04-29T18:00:01.013Z</time></trkpt><trkpt lat="43.9610314" lon="10.6759416"><ele>665.0</ele><time>2026-04-29T18:00:02.023Z</time></trkpt><trkpt lat="43.9609193" lon="10.6759711"><ele>664.4</ele><time>2026-04-29T18:00:03.006Z</time></trkpt><trkpt lat="43.9608025" lon="10.6759834"><ele>663.8</ele><time>2026-04-29T18:00:04.015Z</time></trkpt><trkpt lat="43.9606961" lon="10.6759877"><ele>663.2</ele><time>2026-04-29T18:00:05.013Z</time></trkpt><trkpt lat="43.9606096" lon="10.6759919"><ele>662.6</ele><time>2026-04-29T18:00:06.025Z</time></trkpt><trkpt lat="43.9605324" lon="10.6759788"><ele>662.0</ele><time>2026-04-29T18:00:07.024Z</time></trkpt><trkpt lat="43.9604577" lon="10.6759276"><ele>662.0</ele><time>2026-04-29T18:00:08.009Z</time></trkpt><trkpt lat="43.9603827" lon="10.6758577"><ele>662.0</ele><time>2026-04-29T18:00:09.018Z</time></trkpt><trkpt lat="43.9603065" lon="10.6757837"><ele>662.0</ele><time>2026-04-29T18:00:10.014Z</time></trkpt><trkpt lat="43.9602313" lon="10.675709"><ele>662.0</ele><time>2026-04-29T18:00:11.046Z</time></trkpt><trkpt lat="43.9601559" lon="10.6756305"><ele>662.0</ele><time>2026-04-29T18:00:12.012Z</time></trkpt><trkpt lat="43.9600735" lon="10.6755663"><ele>663.3333333333333</ele><time>2026-04-29T18:00:13.008Z</time></trkpt><trkpt lat="43.9599925" lon="10.6755078"><ele>664.6666666666666</ele><time>2026-04-29T18:00:14.014Z</time></trkpt><trkpt lat="43.9599097" lon="10.6754628"><ele>666.0</ele><time>2026-04-29T18:00:15.012Z</time></trkpt><trkpt lat="43.9598335" lon="10.6754329"><ele>667.3333333333334</ele><time>2026-04-29T18:00:16.023Z</time></trkpt><trkpt lat="43.9597651" lon="10.6754132"><ele>668.6666666666667</ele><time>2026-04-29T18:00:17.03Z</time></trkpt><trkpt lat="43.9596554" lon="10.675476"><ele>670.0</ele><time>2026-04-29T18:00:19.019Z</time></trkpt><trkpt lat="43.9596039" lon="10.6755706"><ele>670.0</ele><time>2026-04-29T18:00:20.005Z</time></trkpt><trkpt lat="43.9595358" lon="10.6757121"><ele>670.0</ele><time>2026-04-29T18:00:21.016Z</time></trkpt><trkpt lat="43.9594723" lon="10.6758508"><ele>670.0</ele><time>2026-04-29T18:00:22.01Z</time></trkpt><trkpt lat="43.959414" lon="10.6759877"><ele>670.0</ele><time>2026-04-29T18:00:23.011Z</time></trkpt><trkpt lat="43.959357" lon="10.6761044"><ele>669.3333333333334</ele><time>2026-04-29T18:00:24.011Z</time></trkpt><trkpt lat="43.9593076" lon="10.6762117"><ele>668.6666666666667</ele><time>2026-04-29T18:00:25.015Z</time></trkpt><trkpt lat="43.9592639" lon="10.6763068"><ele>668.0</ele><time>2026-04-29T18:00:26.015Z</time></trkpt><trkpt lat="43.9592058" lon="10.6763795"><ele>667.3333333333334</ele><time>2026-04-29T18:00:27.022Z</time></trkpt><trkpt lat="43.959141" lon="10.6764425"><ele>666.6666666666666</ele><time>2026-04-29T18:00:28.013Z</time></trkpt><trkpt lat="43.959062" lon="10.6764674"><ele>666.0</ele><time>2026-04-29T18:00:29.02Z</time></trkpt><trkpt lat="43.9589771" lon="10.6765069"><ele>668.0</ele><time>2026-04-29T18:00:30.014Z</time></trkpt><trkpt lat="43.9588888" lon="10.6765307"><ele>670.0</ele><time>2026-04-29T18:00:31.014Z</time></trkpt><trkpt lat="43.9588057" lon="10.6765363"><ele>672.0</ele><time>2026-04-29T18:00:32.035Z</time></trkpt><trkpt lat="43.9587155" lon="10.6765148"><ele>674.0</ele><time>2026-04-29T18:00:33.004Z</time></trkpt><trkpt lat="43.9586239" lon="10.676484"><ele>676.0</ele><time>2026-04-29T18:00:34.008Z</time></trkpt><trkpt lat="43.9585376" lon="10.676464"><ele>678.0</ele><time>2026-04-29T18:00:35.01Z</time></trkpt><trkpt lat="43.9584588" lon="10.6764513"><ele>677.2</ele><time>2026-04-29T18:00:36.002Z</time></trkpt><trkpt lat="43.9583656" lon="10.6764394"><ele>676.4</ele><time>2026-04-29T18:00:37.014Z</time></trkpt><trkpt lat="43.9582763" lon="10.6764284"><ele>675.6</ele><time>2026-04-29T18:00:38.015Z</time></trkpt><trkpt lat="43.9581832" lon="10.6764178"><ele>674.8000000000001</ele><time>2026-04-29T18:00:39.008Z</time></trkpt><trkpt lat="43.9580973" lon="10.6764085"><ele>674.0</ele><time>2026-04-29T18:00:40.017Z</time></trkpt><trkpt lat="43.9580156" lon="10.6763673"><ele>674.0</ele><time>2026-04-29T18:00:41.018Z</time></trkpt><trkpt lat="43.9579468" lon="10.6762939"><ele>674.0</ele><time>2026-04-29T18:00:42.021Z</time></trkpt><trkpt lat="43.9578763" lon="10.676205"><ele>674.0</ele><time>2026-04-29T18:00:43.001Z</time></trkpt><trkpt lat="43.9578083" lon="10.6761011"><ele>674.0</ele><time>2026-04-29T18:00:44.018Z</time></trkpt><trkpt lat="43.9577425" lon="10.6759887"><ele>674.0</ele><time>2026-04-29T18:00:45.009Z</time></trkpt><trkpt lat="43.9576699" lon="10.6758862"><ele>672.8000000000001</ele><time>2026-04-29T18:00:46.019Z</time></trkpt><trkpt lat="43.9575974" lon="10.6757931"><ele>671.6</ele><time>2026-04-29T18:00:47.008Z</time></trkpt><trkpt lat="43.9575264" lon="10.6757114"><ele>670.4</ele><time>2026-04-29T18:00:48.03Z</time></trkpt><trkpt lat="43.9574508" lon="10.6756486"><ele>669.2</ele><time>2026-04-29T18:00:49.014Z</time></trkpt><trkpt lat="43.9573723" lon="10.6755913"><ele>668.0</ele><time>2026-04-29T18:00:50.013Z</time></trkpt><trkpt lat="43.957292" lon="10.6755412"><ele>668.0</ele><time>2026-04-29T18:00:51.027Z</time></trkpt><trkpt lat="43.9572122" lon="10.6754777"><ele>668.0</ele><time>2026-04-29T18:00:52.021Z</time></trkpt><trkpt lat="43.9571339" lon="10.6754091"><ele>668.0</ele><time>2026-04-29T18:00:53.028Z</time></trkpt><trkpt lat="43.9570667" lon="10.675342"><ele>668.0</ele><time>2026-04-29T18:00:54.005Z</time></trkpt><trkpt lat="43.9570029" lon="10.6752868"><ele>668.0</ele><time>2026-04-29T18:00:55.022Z</time></trkpt><trkpt lat="43.9569232" lon="10.6752415"><ele>668.0</ele><time>2026-04-29T18:00:56.012Z</time></trkpt><trkpt lat="43.956843" lon="10.6752302"><ele>667.2</ele><time>2026-04-29T18:00:57.006Z</time></trkpt><trkpt lat="43.9567524" lon="10.6752544"><ele>666.4</ele><time>2026-04-29T18:00:58.003Z</time></trkpt><trkpt lat="43.9566612" lon="10.6752881"><ele>665.6</ele><time>2026-04-29T18:00:59.025Z</time></trkpt><trkpt lat="43.9565628" lon="10.6753174"><ele>664.8000000000001</ele><time>2026-04-29T18:01:00.014Z</time></trkpt><trkpt lat="43.9564622" lon="10.6753392"><ele>664.0</ele><time>2026-04-29T18:01:01.013Z</time></trkpt><trkpt lat="43.9563616" lon="10.67536"><ele>663.2</ele><time>2026-04-29T18:01:02.01Z</time></trkpt><trkpt lat="43.9562696" lon="10.6753546"><ele>662.4000000000001</ele><time>2026-04-29T18:01:03.021Z</time></trkpt><trkpt lat="43.9561902" lon="10.6753257"><ele>661.6</ele><time>2026-04-29T18:01:04.018Z</time></trkpt><trkpt lat="43.9561055" lon="10.6752744"><ele>660.8</ele><time>2026-04-29T18:01:05.013Z</time></trkpt><trkpt lat="43.956021" lon="10.6751994"><ele>660.0</ele><time>2026-04-29T18:01:06.016Z</time></trkpt><trkpt lat="43.9559304" lon="10.6751149"><ele>662.0</ele><time>2026-04-29T18:01:07.015Z</time></trkpt><trkpt lat="43.9558382" lon="10.6750299"><ele>664.0</ele><time>2026-04-29T18:01:08.036Z</time></trkpt><trkpt lat="43.9557516" lon="10.6749453"><ele>666.0</ele><time>2026-04-29T18:01:09.018Z</time></trkpt><trkpt lat="43.9556651" lon="10.6748892"><ele>668.0</ele><time>2026-04-29T18:01:10.025Z</time></trkpt><trkpt lat="43.9555839" lon="10.6748644"><ele>670.0</ele><time>2026-04-29T18:01:11.014Z</time></trkpt><trkpt lat="43.9555202" lon="10.6748709"><ele>670.0</ele><time>2026-04-29T18:01:12.038Z</time></trkpt><trkpt lat="43.9554054" lon="10.6749518"><ele>670.0</ele><time>2026-04-29T18:01:14.025Z</time></trkpt><trkpt lat="43.9553349" lon="10.675016"><ele>670.0</ele><time>2026-04-29T18:01:15.032Z</time></trkpt><trkpt lat="43.9552536" lon="10.6751095"><ele>670.0</ele><time>2026-04-29T18:01:16.015Z</time></trkpt><trkpt lat="43.9551665" lon="10.6752072"><ele>670.0</ele><time>2026-04-29T18:01:17Z</time></trkpt><trkpt lat="43.9550692" lon="10.6752966"><ele>669.1666666666667</ele><time>2026-04-29T18:01:18.021Z</time></trkpt><trkpt lat="43.9549798" lon="10.6753787"><ele>668.3333333333334</ele><time>2026-04-29T18:01:19.016Z</time></trkpt><trkpt lat="43.9548956" lon="10.675451"><ele>667.5</ele><time>2026-04-29T18:01:20.024Z</time></trkpt><trkpt lat="43.9548188" lon="10.675524"><ele>666.6666666666666</ele><time>2026-04-29T18:01:21.019Z</time></trkpt><trkpt lat="43.9547499" lon="10.675564"><ele>665.8333333333333</ele><time>2026-04-29T18:01:22.006Z</time></trkpt><trkpt lat="43.9546781" lon="10.6755686"><ele>665.0</ele><time>2026-04-29T18:01:23.011Z</time></trkpt><trkpt lat="43.9546002" lon="10.6755526"><ele>665.0</ele><time>2026-04-29T18:01:24.009Z</time></trkpt><trkpt lat="43.9545169" lon="10.6755208"><ele>665.0</ele><time>2026-04-29T18:01:25.013Z</time></trkpt><trkpt lat="43.9544403" lon="10.6754796"><ele>665.0</ele><time>2026-04-29T18:01:26.014Z</time></trkpt><trkpt lat="43.9543512" lon="10.6754334"><ele>665.0</ele><time>2026-04-29T18:01:27.008Z</time></trkpt><trkpt lat="43.9542443" lon="10.6753858"><ele>665.0</ele><time>2026-04-29T18:01:28.014Z</time></trkpt><trkpt lat="43.9541368" lon="10.6753391"><ele>665.4</ele><time>2026-04-29T18:01:29.032Z</time></trkpt><trkpt lat="43.9540299" lon="10.6752916"><ele>665.8</ele><time>2026-04-29T18:01:30.02Z</time></trkpt><trkpt lat="43.953926" lon="10.6752381"><ele>666.2</ele><time>2026-04-29T18:01:31.015Z</time></trkpt><trkpt lat="43.9538295" lon="10.6751875"><ele>666.6</ele><time>2026-04-29T18:01:32.023Z</time></trkpt><trkpt lat="43.9537388" lon="10.6751208"><ele>667.0</ele><time>2026-04-29T18:01:33.015Z</time></trkpt><trkpt lat="43.9536522" lon="10.6750521"><ele>667.6</ele><time>2026-04-29T18:01:34.025Z</time></trkpt><trkpt lat="43.9535712" lon="10.674964"><ele>668.2</ele><time>2026-04-29T18:01:35.016Z</time></trkpt><trkpt lat="43.9534936" lon="10.6748751"><ele>668.8</ele><time>2026-04-29T18:01:36.018Z</time></trkpt><trkpt lat="43.9534293" lon="10.6747813"><ele>669.4</ele><time>2026-04-29T18:01:37.012Z</time></trkpt><trkpt lat="43.9533826" lon="10.6746825"><ele>670.0</ele><time>2026-04-29T18:01:38.006Z</time></trkpt><trkpt lat="43.9533469" lon="10.6745761"><ele>670.0</ele><time>2026-04-29T18:01:39.013Z</time></trkpt><trkpt lat="43.9533183" lon="10.6744675"><ele>670.0</ele><time>2026-04-29T18:01:40.02Z</time></trkpt><trkpt lat="43.9532976" lon="10.6743496"><ele>670.0</ele><time>2026-04-29T18:01:41.02Z</time></trkpt><trkpt lat="43.9532777" lon="10.6742435"><ele>670.0</ele><time>2026-04-29T18:01:42.013Z</time></trkpt><trkpt lat="43.9532642" lon="10.6741365"><ele>670.0</ele><time>2026-04-29T18:01:43.02Z</time></trkpt><trkpt lat="43.9532393" lon="10.6740558"><ele>670.0</ele><time>2026-04-29T18:01:44.014Z</time></trkpt><trkpt lat="43.9531904" lon="10.6739946"><ele>669.0</ele><time>2026-04-29T18:01:45.024Z</time></trkpt><trkpt lat="43.9531277" lon="10.6739344"><ele>668.0</ele><time>2026-04-29T18:01:46.025Z</time></trkpt><trkpt lat="43.9530552" lon="10.6738842"><ele>667.0</ele><time>2026-04-29T18:01:47.011Z</time></trkpt><trkpt lat="43.9529744" lon="10.6738289"><ele>666.0</ele><time>2026-04-29T18:01:48.025Z</time></trkpt><trkpt lat="43.9529039" lon="10.6737683"><ele>665.0</ele><time>2026-04-29T18:01:49.032Z</time></trkpt><trkpt lat="43.9528337" lon="10.6736934"><ele>664.0</ele><time>2026-04-29T18:01:50.033Z</time></trkpt><trkpt lat="43.9527764" lon="10.6736189"><ele>662.6</ele><time>2026-04-29T18:01:51.031Z</time></trkpt><trkpt lat="43.952728" lon="10.6735485"><ele>661.2</ele><time>2026-04-29T18:01:52.018Z</time></trkpt><trkpt lat="43.9526809" lon="10.673486"><ele>659.8000000000001</ele><time>2026-04-29T18:01:53.012Z</time></trkpt><trkpt lat="43.9525687" lon="10.6733958"><ele>658.4000000000001</ele><time>2026-04-29T18:01:55.014Z</time></trkpt><trkpt lat="43.9525052" lon="10.673364"><ele>657.0</ele><time>2026-04-29T18:01:56.028Z</time></trkpt><trkpt lat="43.9523924" lon="10.6732966"><ele>657.0</ele><time>2026-04-29T18:01:58.022Z</time></trkpt><trkpt lat="43.9523315" lon="10.6732287"><ele>657.0</ele><time>2026-04-29T18:01:58.995Z</time></trkpt><trkpt lat="43.9522632" lon="10.6731435"><ele>657.0</ele><time>2026-04-29T18:02:00.026Z</time></trkpt><trkpt lat="43.9522073" lon="10.6730518"><ele>657.0</ele><time>2026-04-29T18:02:01.005Z</time></trkpt><trkpt lat="43.9521569" lon="10.6729605"><ele>657.0</ele><time>2026-04-29T18:02:02.017Z</time></trkpt><trkpt lat="43.9521037" lon="10.6728755"><ele>657.0</ele><time>2026-04-29T18:02:03.015Z</time></trkpt><trkpt lat="43.9520582" lon="10.6727864"><ele>654.6666666666666</ele><time>2026-04-29T18:02:04.018Z</time></trkpt><trkpt lat="43.9520195" lon="10.6727103"><ele>652.3333333333334</ele><time>2026-04-29T18:02:05.003Z</time></trkpt><trkpt lat="43.9519792" lon="10.6726344"><ele>650.0</ele><time>2026-04-29T18:02:06.016Z</time></trkpt><trkpt lat="43.9518805" lon="10.6725123"><ele>647.6666666666667</ele><time>2026-04-29T18:02:08.023Z</time></trkpt><trkpt lat="43.951815" lon="10.6724737"><ele>645.3333333333334</ele><time>2026-04-29T18:02:09.002Z</time></trkpt><trkpt lat="43.9517424" lon="10.6724614"><ele>643.0</ele><time>2026-04-29T18:02:10.015Z</time></trkpt><trkpt lat="43.9516599" lon="10.6724558"><ele>643.0</ele><time>2026-04-29T18:02:11.011Z</time></trkpt><trkpt lat="43.9515638" lon="10.6724554"><ele>643.0</ele><time>2026-04-29T18:02:12.009Z</time></trkpt><trkpt lat="43.9514666" lon="10.6724436"><ele>643.0</ele><time>2026-04-29T18:02:13.008Z</time></trkpt><trkpt lat="43.9513806" lon="10.6724183"><ele>643.0</ele><time>2026-04-29T18:02:14.015Z</time></trkpt><trkpt lat="43.9513099" lon="10.6723851"><ele>643.0</ele><time>2026-04-29T18:02:15.023Z</time></trkpt><trkpt lat="43.9512433" lon="10.6723654"><ele>643.0</ele><time>2026-04-29T18:02:16.017Z</time></trkpt><trkpt lat="43.9511794" lon="10.6723577"><ele>643.0</ele><time>2026-04-29T18:02:17.014Z</time></trkpt><trkpt lat="43.9511022" lon="10.672363"><ele>643.0</ele><time>2026-04-29T18:02:18.027Z</time></trkpt><trkpt lat="43.9510305" lon="10.6723686"><ele>643.0</ele><time>2026-04-29T18:02:19.007Z</time></trkpt><trkpt lat="43.9509564" lon="10.6723836"><ele>643.0</ele><time>2026-04-29T18:02:20.023Z</time></trkpt><trkpt lat="43.9508792" lon="10.6724032"><ele>643.0</ele><time>2026-04-29T18:02:21.011Z</time></trkpt><trkpt lat="43.9508021" lon="10.6724287"><ele>643.0</ele><time>2026-04-29T18:02:22.013Z</time></trkpt><trkpt lat="43.9507261" lon="10.6724409"><ele>642.3333333333334</ele><time>2026-04-29T18:02:23.012Z</time></trkpt><trkpt lat="43.9506509" lon="10.6724349"><ele>641.6666666666667</ele><time>2026-04-29T18:02:24.026Z</time></trkpt><trkpt lat="43.9505701" lon="10.6724131"><ele>641.0</ele><time>2026-04-29T18:02:25.008Z</time></trkpt><trkpt lat="43.95049" lon="10.6723881"><ele>640.3333333333334</ele><time>2026-04-29T18:02:26.021Z</time></trkpt><trkpt lat="43.9504135" lon="10.6723664"><ele>639.6666666666666</ele><time>2026-04-29T18:02:27.006Z</time></trkpt><trkpt lat="43.9503322" lon="10.6723599"><ele>639.0</ele><time>2026-04-29T18:02:28.015Z</time></trkpt><trkpt lat="43.9502564" lon="10.6723643"><ele>639.0000000000001</ele><time>2026-04-29T18:02:29.011Z</time></trkpt><trkpt lat="43.9501739" lon="10.6723503"><ele>639.0</ele><time>2026-04-29T18:02:30.026Z</time></trkpt><trkpt lat="43.9500964" lon="10.672327"><ele>639.0</ele><time>2026-04-29T18:02:31.005Z</time></trkpt><trkpt lat="43.9500265" lon="10.6723124"><ele>639.0</ele><time>2026-04-29T18:02:32.014Z</time></trkpt><trkpt lat="43.949956" lon="10.6722958"><ele>639.0</ele><time>2026-04-29T18:02:33.025Z</time></trkpt><trkpt lat="43.9498919" lon="10.6722789"><ele>639.0000000000001</ele><time>2026-04-29T18:02:34.019Z</time></trkpt><trkpt lat="43.9498273" lon="10.6722409"><ele>639.0</ele><time>2026-04-29T18:02:35.005Z</time></trkpt><trkpt lat="43.9497629" lon="10.6721757"><ele>636.5</ele><time>2026-04-29T18:02:36.012Z</time></trkpt><trkpt lat="43.9497124" lon="10.6720938"><ele>634.0</ele><time>2026-04-29T18:02:36.996Z</time></trkpt><trkpt lat="43.9496637" lon="10.6720304"><ele>631.5</ele><time>2026-04-29T18:02:38.02Z</time></trkpt><trkpt lat="43.9496189" lon="10.6719613"><ele>629.0</ele><time>2026-04-29T18:02:39.01Z</time></trkpt><trkpt lat="43.9495838" lon="10.671798"><ele>626.5</ele><time>2026-04-29T18:02:41.014Z</time></trkpt><trkpt lat="43.9495614" lon="10.6717006"><ele>624.0</ele><time>2026-04-29T18:02:42.003Z</time></trkpt><trkpt lat="43.9495366" lon="10.6715966"><ele>623.3333333333334</ele><time>2026-04-29T18:02:43.018Z</time></trkpt><trkpt lat="43.9495091" lon="10.6714997"><ele>622.6666666666666</ele><time>2026-04-29T18:02:44.03Z</time></trkpt><trkpt lat="43.9494807" lon="10.6714054"><ele>622.0</ele><time>2026-04-29T18:02:45.021Z</time></trkpt><trkpt lat="43.9494508" lon="10.671303"><ele>621.3333333333333</ele><time>2026-04-29T18:02:46.012Z</time></trkpt><trkpt lat="43.9494136" lon="10.6712059"><ele>620.6666666666666</ele><time>2026-04-29T18:02:47.011Z</time></trkpt><trkpt lat="43.9493714" lon="10.6711058"><ele>620.0</ele><time>2026-04-29T18:02:48.005Z</time></trkpt><trkpt lat="43.9493247" lon="10.6710249"><ele>617.5</ele><time>2026-04-29T18:02:49.013Z</time></trkpt><trkpt lat="43.9492837" lon="10.6709463"><ele>615.0</ele><time>2026-04-29T18:02:50.01Z</time></trkpt><trkpt lat="43.9492373" lon="10.6708868"><ele>612.5</ele><time>2026-04-29T18:02:51.001Z</time></trkpt><trkpt lat="43.9491253" lon="10.6708544"><ele>610.0</ele><time>2026-04-29T18:02:53.009Z</time></trkpt><trkpt lat="43.9490142" lon="10.6708032"><ele>607.5</ele><time>2026-04-29T18:02:54.998Z</time></trkpt><trkpt lat="43.9489709" lon="10.6707385"><ele>605.0</ele><time>2026-04-29T18:02:56.007Z</time></trkpt><trkpt lat="43.9489497" lon="10.6706542"><ele>605.0</ele><time>2026-04-29T18:02:57.015Z</time></trkpt><trkpt lat="43.9489266" lon="10.6705422"><ele>605.0</ele><time>2026-04-29T18:02:58Z</time></trkpt><trkpt lat="43.9489051" lon="10.6704434"><ele>605.0</ele><time>2026-04-29T18:02:59.009Z</time></trkpt><trkpt lat="43.9488806" lon="10.6703511"><ele>605.0</ele><time>2026-04-29T18:03:00.003Z</time></trkpt><trkpt lat="43.948848" lon="10.6702568"><ele>605.0</ele><time>2026-04-29T18:03:01.016Z</time></trkpt><trkpt lat="43.9488146" lon="10.6701777"><ele>605.0</ele><time>2026-04-29T18:03:02.023Z</time></trkpt><trkpt lat="43.9487343" lon="10.6700688"><ele>603.1666666666666</ele><time>2026-04-29T18:03:04.01Z</time></trkpt><trkpt lat="43.9486311" lon="10.6700404"><ele>601.3333333333333</ele><time>2026-04-29T18:03:06Z</time></trkpt><trkpt lat="43.9485666" lon="10.6700276"><ele>599.5</ele><time>2026-04-29T18:03:06.995Z</time></trkpt><trkpt lat="43.9484983" lon="10.6700104"><ele>597.6666666666666</ele><time>2026-04-29T18:03:08.012Z</time></trkpt><trkpt lat="43.9484134" lon="10.6700011"><ele>595.8333333333334</ele><time>2026-04-29T18:03:09.017Z</time></trkpt><trkpt lat="43.9483321" lon="10.6699934"><ele>594.0</ele><time>2026-04-29T18:03:10.017Z</time></trkpt><trkpt lat="43.9482473" lon="10.6699922"><ele>594.0</ele><time>2026-04-29T18:03:11.015Z</time></trkpt><trkpt lat="43.948162" lon="10.6699718"><ele>594.0</ele><time>2026-04-29T18:03:12.018Z</time></trkpt><trkpt lat="43.948059" lon="10.669942"><ele>594.0</ele><time>2026-04-29T18:03:13.009Z</time></trkpt><trkpt lat="43.9479428" lon="10.6699208"><ele>594.0</ele><time>2026-04-29T18:03:14.021Z</time></trkpt><trkpt lat="43.9478015" lon="10.6699062"><ele>594.0</ele><time>2026-04-29T18:03:15.008Z</time></trkpt><trkpt lat="43.947673" lon="10.6699034"><ele>594.0</ele><time>2026-04-29T18:03:16.006Z</time></trkpt><trkpt lat="43.9475592" lon="10.6699022"><ele>594.0</ele><time>2026-04-29T18:03:17.01Z</time></trkpt><trkpt lat="43.947461" lon="10.6699066"><ele>594.0</ele><time>2026-04-29T18:03:18.015Z</time></trkpt><trkpt lat="43.9473683" lon="10.6699254"><ele>594.0</ele><time>2026-04-29T18:03:18.996Z</time></trkpt><trkpt lat="43.9472726" lon="10.669942"><ele>594.2</ele><time>2026-04-29T18:03:20.013Z</time></trkpt><trkpt lat="43.9471853" lon="10.6699596"><ele>594.4</ele><time>2026-04-29T18:03:21.018Z</time></trkpt><trkpt lat="43.947105" lon="10.6699636"><ele>594.6</ele><time>2026-04-29T18:03:22.009Z</time></trkpt><trkpt lat="43.9470213" lon="10.6699451"><ele>594.8</ele><time>2026-04-29T18:03:23.019Z</time></trkpt><trkpt lat="43.9469386" lon="10.6698768"><ele>595.0</ele><time>2026-04-29T18:03:24Z</time></trkpt><trkpt lat="43.9468698" lon="10.6697747"><ele>595.0</ele><time>2026-04-29T18:03:25.008Z</time></trkpt><trkpt lat="43.9468061" lon="10.6696719"><ele>595.0</ele><time>2026-04-29T18:03:26Z</time></trkpt><trkpt lat="43.9467425" lon="10.669576"><ele>595.0</ele><time>2026-04-29T18:03:27.008Z</time></trkpt><trkpt lat="43.9466842" lon="10.6695091"><ele>595.0</ele><time>2026-04-29T18:03:27.992Z</time></trkpt><trkpt lat="43.9466151" lon="10.6694767"><ele>595.0</ele><time>2026-04-29T18:03:29.013Z</time></trkpt><trkpt lat="43.9465166" lon="10.6694658"><ele>595.0</ele><time>2026-04-29T18:03:30.017Z</time></trkpt><trkpt lat="43.9464141" lon="10.6694628"><ele>594.6</ele><time>2026-04-29T18:03:31.007Z</time></trkpt><trkpt lat="43.9463156" lon="10.6694513"><ele>594.2</ele><time>2026-04-29T18:03:32.01Z</time></trkpt><trkpt lat="43.9462265" lon="10.6694353"><ele>593.8</ele><time>2026-04-29T18:03:33.012Z</time></trkpt><trkpt lat="43.9461386" lon="10.6694355"><ele>593.4</ele><time>2026-04-29T18:03:34.015Z</time></trkpt><trkpt lat="43.9460471" lon="10.6694573"><ele>593.0</ele><time>2026-04-29T18:03:35.015Z</time></trkpt><trkpt lat="43.9459637" lon="10.6694934"><ele>593.0</ele><time>2026-04-29T18:03:36.015Z</time></trkpt><trkpt lat="43.9458942" lon="10.6695333"><ele>593.0</ele><time>2026-04-29T18:03:37.009Z</time></trkpt><trkpt lat="43.9458521" lon="10.6696017"><ele>593.0</ele><time>2026-04-29T18:03:38.016Z</time></trkpt><trkpt lat="43.9458207" lon="10.6696846"><ele>593.0</ele><time>2026-04-29T18:03:39.006Z</time></trkpt><trkpt lat="43.9457608" lon="10.6697483"><ele>593.0</ele><time>2026-04-29T18:03:40.024Z</time></trkpt><trkpt lat="43.9456737" lon="10.6697284"><ele>593.0</ele><time>2026-04-29T18:03:41.023Z</time></trkpt><trkpt lat="43.945586" lon="10.6696771"><ele>593.4</ele><time>2026-04-29T18:03:42.012Z</time></trkpt><trkpt lat="43.9454975" lon="10.6696072"><ele>593.8</ele><time>2026-04-29T18:03:43.011Z</time></trkpt><trkpt lat="43.945409" lon="10.6695403"><ele>594.2</ele><time>2026-04-29T18:03:44.02Z</time></trkpt><trkpt lat="43.9453265" lon="10.6694837"><ele>594.6</ele><time>2026-04-29T18:03:45.009Z</time></trkpt><trkpt lat="43.9452539" lon="10.6694266"><ele>595.0</ele><time>2026-04-29T18:03:46.019Z</time></trkpt><trkpt lat="43.9451851" lon="10.6693659"><ele>596.3333333333334</ele><time>2026-04-29T18:03:47.022Z</time></trkpt><trkpt lat="43.945124" lon="10.6692944"><ele>597.6666666666667</ele><time>2026-04-29T18:03:48.024Z</time></trkpt><trkpt lat="43.945068" lon="10.6692131"><ele>599.0</ele><time>2026-04-29T18:03:49.008Z</time></trkpt><trkpt lat="43.9450074" lon="10.6691255"><ele>600.3333333333334</ele><time>2026-04-29T18:03:50.027Z</time></trkpt><trkpt lat="43.944948" lon="10.669049"><ele>601.6666666666666</ele><time>2026-04-29T18:03:51.006Z</time></trkpt><trkpt lat="43.9448845" lon="10.6689937"><ele>603.0</ele><time>2026-04-29T18:03:52.021Z</time></trkpt><trkpt lat="43.9448188" lon="10.6689595"><ele>603.0</ele><time>2026-04-29T18:03:53.008Z</time></trkpt><trkpt lat="43.9447478" lon="10.6689613"><ele>603.0</ele><time>2026-04-29T18:03:54.02Z</time></trkpt><trkpt lat="43.9446797" lon="10.6689705"><ele>603.0</ele><time>2026-04-29T18:03:55.006Z</time></trkpt><trkpt lat="43.9445764" lon="10.6690101"><ele>603.0</ele><time>2026-04-29T18:03:57.01Z</time></trkpt><trkpt lat="43.9445508" lon="10.6690903"><ele>603.0</ele><time>2026-04-29T18:04:00.014Z</time></trkpt><trkpt lat="43.9445166" lon="10.6691743"><ele>603.0</ele><time>2026-04-29T18:04:07.015Z</time></trkpt><trkpt lat="43.9444572" lon="10.6690399"><ele>603.0</ele><time>2026-04-29T18:04:25.017Z</time></trkpt><trkpt lat="43.9443983" lon="10.6689091"><ele>603.0</ele><time>2026-04-29T18:04:27.019Z</time></trkpt><trkpt lat="43.9443007" lon="10.6688357"><ele>603.0</ele><time>2026-04-29T18:04:29.011Z</time></trkpt><trkpt lat="43.9441753" lon="10.6688293"><ele>603.0</ele><time>2026-04-29T18:04:31.007Z</time></trkpt><trkpt lat="43.9441095" lon="10.6688348"><ele>603.0</ele><time>2026-04-29T18:04:32.019Z</time></trkpt><trkpt lat="43.9439993" lon="10.6688857"><ele>603.6</ele><time>2026-04-29T18:04:34.021Z</time></trkpt><trkpt lat="43.9439104" lon="10.6690222"><ele>604.1999999999999</ele><time>2026-04-29T18:04:36.015Z</time></trkpt><trkpt lat="43.9438619" lon="10.6691055"><ele>604.8</ele><time>2026-04-29T18:04:37.025Z</time></trkpt><trkpt lat="43.9438051" lon="10.6691805"><ele>605.4</ele><time>2026-04-29T18:04:38.012Z</time></trkpt><trkpt lat="43.9437431" lon="10.6692472"><ele>606.0</ele><time>2026-04-29T18:04:39.012Z</time></trkpt><trkpt lat="43.943624" lon="10.6692875"><ele>606.0</ele><time>2026-04-29T18:04:41.013Z</time></trkpt><trkpt lat="43.9435642" lon="10.6692381"><ele>606.0</ele><time>2026-04-29T18:04:42.035Z</time></trkpt><trkpt lat="43.9435042" lon="10.669172"><ele>606.0</ele><time>2026-04-29T18:04:43.016Z</time></trkpt><trkpt lat="43.9434479" lon="10.6691029"><ele>606.0</ele><time>2026-04-29T18:04:44.015Z</time></trkpt><trkpt lat="43.9433406" lon="10.6689989"><ele>606.0</ele><time>2026-04-29T18:04:46.026Z</time></trkpt><trkpt lat="43.9432702" lon="10.6689777"><ele>606.0</ele><time>2026-04-29T18:04:47.02Z</time></trkpt><trkpt lat="43.9431852" lon="10.6689902"><ele>608.6</ele><time>2026-04-29T18:04:48.017Z</time></trkpt><trkpt lat="43.9430959" lon="10.668993"><ele>611.2</ele><time>2026-04-29T18:04:48.995Z</time></trkpt><trkpt lat="43.943011" lon="10.6689751"><ele>613.8</ele><time>2026-04-29T18:04:50.027Z</time></trkpt><trkpt lat="43.9429208" lon="10.6689239"><ele>616.4</ele><time>2026-04-29T18:04:51.011Z</time></trkpt><trkpt lat="43.9428256" lon="10.6688694"><ele>619.0</ele><time>2026-04-29T18:04:52.018Z</time></trkpt><trkpt lat="43.9427296" lon="10.6688274"><ele>619.0</ele><time>2026-04-29T18:04:53.017Z</time></trkpt><trkpt lat="43.9426525" lon="10.6687754"><ele>619.0</ele><time>2026-04-29T18:04:54.018Z</time></trkpt><trkpt lat="43.9425854" lon="10.6687077"><ele>619.0</ele><time>2026-04-29T18:04:55.02Z</time></trkpt><trkpt lat="43.9425178" lon="10.6686347"><ele>619.0</ele><time>2026-04-29T18:04:56.022Z</time></trkpt><trkpt lat="43.942446" lon="10.6685464"><ele>619.0</ele><time>2026-04-29T18:04:57.017Z</time></trkpt><trkpt lat="43.9423761" lon="10.668452"><ele>619.0</ele><time>2026-04-29T18:04:58.025Z</time></trkpt><trkpt lat="43.9423205" lon="10.6683488"><ele>621.0</ele><time>2026-04-29T18:04:59.014Z</time></trkpt><trkpt lat="43.9422655" lon="10.6682238"><ele>623.0</ele><time>2026-04-29T18:05:00.009Z</time></trkpt><trkpt lat="43.9422122" lon="10.6680803"><ele>625.0</ele><time>2026-04-29T18:05:01.004Z</time></trkpt><trkpt lat="43.9421482" lon="10.6679471"><ele>627.0</ele><time>2026-04-29T18:05:02.01Z</time></trkpt><trkpt lat="43.9420822" lon="10.6678184"><ele>626.3333333333334</ele><time>2026-04-29T18:05:03.013Z</time></trkpt><trkpt lat="43.9420182" lon="10.6676908"><ele>625.6666666666666</ele><time>2026-04-29T18:05:04.024Z</time></trkpt><trkpt lat="43.9419655" lon="10.6675747"><ele>625.0</ele><time>2026-04-29T18:05:05.015Z</time></trkpt><trkpt lat="43.9419281" lon="10.6674741"><ele>624.3333333333333</ele><time>2026-04-29T18:05:06.025Z</time></trkpt><trkpt lat="43.9418773" lon="10.6673908"><ele>623.6666666666666</ele><time>2026-04-29T18:05:07.018Z</time></trkpt><trkpt lat="43.9418278" lon="10.6673185"><ele>623.0</ele><time>2026-04-29T18:05:08.006Z</time></trkpt><trkpt lat="43.9417633" lon="10.6672587"><ele>624.8333333333333</ele><time>2026-04-29T18:05:09.016Z</time></trkpt><trkpt lat="43.9416694" lon="10.6672561"><ele>626.6666666666666</ele><time>2026-04-29T18:05:11.011Z</time></trkpt><trkpt lat="43.9416359" lon="10.6673576"><ele>628.5</ele><time>2026-04-29T18:05:13.009Z</time></trkpt><trkpt lat="43.9416382" lon="10.6674512"><ele>630.3333333333334</ele><time>2026-04-29T18:05:14.018Z</time></trkpt><trkpt lat="43.9416485" lon="10.6675464"><ele>632.1666666666667</ele><time>2026-04-29T18:05:14.999Z</time></trkpt><trkpt lat="43.9416563" lon="10.667646"><ele>634.0</ele><time>2026-04-29T18:05:16.021Z</time></trkpt><trkpt lat="43.9416463" lon="10.6677593"><ele>634.0</ele><time>2026-04-29T18:05:16.985Z</time></trkpt><trkpt lat="43.9416344" lon="10.6678731"><ele>634.0</ele><time>2026-04-29T18:05:18.021Z</time></trkpt><trkpt lat="43.9416165" lon="10.6679738"><ele>634.0</ele><time>2026-04-29T18:05:19.024Z</time></trkpt><trkpt lat="43.9415336" lon="10.6681369"><ele>634.0</ele><time>2026-04-29T18:05:21.023Z</time></trkpt><trkpt lat="43.9414737" lon="10.6682271"><ele>634.0</ele><time>2026-04-29T18:05:22.011Z</time></trkpt><trkpt lat="43.9414228" lon="10.6683103"><ele>634.0</ele><time>2026-04-29T18:05:23.02Z</time></trkpt><trkpt lat="43.94138" lon="10.6683802"><ele>634.0</ele><time>2026-04-29T18:05:24.015Z</time></trkpt><trkpt lat="43.9412887" lon="10.6684457"><ele>634.0</ele><time>2026-04-29T18:05:26.03Z</time></trkpt><trkpt lat="43.9412156" lon="10.6683799"><ele>634.0</ele><time>2026-04-29T18:05:28.006Z</time></trkpt><trkpt lat="43.9411849" lon="10.6682155"><ele>634.0</ele><time>2026-04-29T18:05:30.016Z</time></trkpt><trkpt lat="43.941167" lon="10.6681186"><ele>634.0</ele><time>2026-04-29T18:05:31.012Z</time></trkpt><trkpt lat="43.941148" lon="10.6680132"><ele>634.0</ele><time>2026-04-29T18:05:32.027Z</time></trkpt><trkpt lat="43.9411204" lon="10.6679043"><ele>634.0</ele><time>2026-04-29T18:05:33.023Z</time></trkpt><trkpt lat="43.9410792" lon="10.6677987"><ele>634.0</ele><time>2026-04-29T18:05:34.016Z</time></trkpt><trkpt lat="43.9410338" lon="10.6676984"><ele>634.0</ele><time>2026-04-29T18:05:35.019Z</time></trkpt><trkpt lat="43.9409856" lon="10.6676208"><ele>634.0</ele><time>2026-04-29T18:05:36.02Z</time></trkpt><trkpt lat="43.9409362" lon="10.6675549"><ele>637.4</ele><time>2026-04-29T18:05:37.012Z</time></trkpt><trkpt lat="43.9408617" lon="10.6674866"><ele>640.8</ele><time>2026-04-29T18:05:38.015Z</time></trkpt><trkpt lat="43.940777" lon="10.6674105"><ele>644.1999999999999</ele><time>2026-04-29T18:05:39.012Z</time></trkpt><trkpt lat="43.9406982" lon="10.6673272"><ele>647.5999999999999</ele><time>2026-04-29T18:05:40.007Z</time></trkpt><trkpt lat="43.9406227" lon="10.6672526"><ele>651.0</ele><time>2026-04-29T18:05:40.999Z</time></trkpt><trkpt lat="43.9405437" lon="10.6671779"><ele>651.0</ele><time>2026-04-29T18:05:42.016Z</time></trkpt><trkpt lat="43.9404598" lon="10.6671129"><ele>651.0</ele><time>2026-04-29T18:05:43.017Z</time></trkpt><trkpt lat="43.9403756" lon="10.6670649"><ele>651.0</ele><time>2026-04-29T18:05:43.996Z</time></trkpt><trkpt lat="43.9402866" lon="10.6670255"><ele>651.0</ele><time>2026-04-29T18:05:45.014Z</time></trkpt><trkpt lat="43.9401856" lon="10.6669989"><ele>651.0</ele><time>2026-04-29T18:05:46.012Z</time></trkpt><trkpt lat="43.9400891" lon="10.6669779"><ele>653.6666666666666</ele><time>2026-04-29T18:05:47.013Z</time></trkpt><trkpt lat="43.9399995" lon="10.6669583"><ele>656.3333333333334</ele><time>2026-04-29T18:05:48.008Z</time></trkpt><trkpt lat="43.9399199" lon="10.6669528"><ele>659.0</ele><time>2026-04-29T18:05:49.009Z</time></trkpt><trkpt lat="43.9398539" lon="10.6669572"><ele>661.6666666666667</ele><time>2026-04-29T18:05:50.018Z</time></trkpt><trkpt lat="43.9397827" lon="10.6669868"><ele>664.3333333333334</ele><time>2026-04-29T18:05:51.016Z</time></trkpt><trkpt lat="43.9396985" lon="10.6670455"><ele>667.0</ele><time>2026-04-29T18:05:52.015Z</time></trkpt><trkpt lat="43.9396171" lon="10.6671157"><ele>667.0</ele><time>2026-04-29T18:05:53.018Z</time></trkpt><trkpt lat="43.9395444" lon="10.6671764"><ele>667.0</ele><time>2026-04-29T18:05:54.005Z</time></trkpt><trkpt lat="43.9394802" lon="10.6672225"><ele>667.0</ele><time>2026-04-29T18:05:55.01Z</time></trkpt><trkpt lat="43.9394101" lon="10.6672387"><ele>667.0</ele><time>2026-04-29T18:05:56.017Z</time></trkpt><trkpt lat="43.9393303" lon="10.6672322"><ele>667.0</ele><time>2026-04-29T18:05:57.017Z</time></trkpt><trkpt lat="43.9392499" lon="10.6672019"><ele>667.0</ele><time>2026-04-29T18:05:58.008Z</time></trkpt><trkpt lat="43.9391701" lon="10.6671398"><ele>666.4000000000001</ele><time>2026-04-29T18:05:59.018Z</time></trkpt><trkpt lat="43.939094" lon="10.6670535"><ele>665.8000000000001</ele><time>2026-04-29T18:06:00.011Z</time></trkpt><trkpt lat="43.9390354" lon="10.6669293"><ele>665.2</ele><time>2026-04-29T18:06:01.015Z</time></trkpt><trkpt lat="43.9389762" lon="10.6667836"><ele>664.6</ele><time>2026-04-29T18:06:02.021Z</time></trkpt><trkpt lat="43.938916" lon="10.6666483"><ele>664.0</ele><time>2026-04-29T18:06:03.025Z</time></trkpt><trkpt lat="43.938851" lon="10.666524"><ele>664.0</ele><time>2026-04-29T18:06:04.02Z</time></trkpt><trkpt lat="43.9387732" lon="10.6664206"><ele>664.0</ele><time>2026-04-29T18:06:05.005Z</time></trkpt><trkpt lat="43.9386849" lon="10.6663218"><ele>664.0</ele><time>2026-04-29T18:06:06.015Z</time></trkpt><trkpt lat="43.9385976" lon="10.6662336"><ele>664.0</ele><time>2026-04-29T18:06:07.002Z</time></trkpt><trkpt lat="43.9385189" lon="10.666152"><ele>664.0</ele><time>2026-04-29T18:06:08.027Z</time></trkpt><trkpt lat="43.938453" lon="10.666092"><ele>666.5</ele><time>2026-04-29T18:06:09.01Z</time></trkpt><trkpt lat="43.9383795" lon="10.6660656"><ele>669.0</ele><time>2026-04-29T18:06:10.018Z</time></trkpt><trkpt lat="43.9382883" lon="10.6660714"><ele>671.5</ele><time>2026-04-29T18:06:11.01Z</time></trkpt><trkpt lat="43.9381887" lon="10.6660836"><ele>674.0</ele><time>2026-04-29T18:06:12.002Z</time></trkpt><trkpt lat="43.9380869" lon="10.6660841"><ele>676.5</ele><time>2026-04-29T18:06:13.02Z</time></trkpt><trkpt lat="43.9380198" lon="10.6660412"><ele>679.0</ele><time>2026-04-29T18:06:14.015Z</time></trkpt><trkpt lat="43.9379627" lon="10.6659212"><ele>679.0</ele><time>2026-04-29T18:06:15.001Z</time></trkpt><trkpt lat="43.9378978" lon="10.6658245"><ele>679.0</ele><time>2026-04-29T18:06:16.011Z</time></trkpt><trkpt lat="43.9378375" lon="10.6657693"><ele>679.0</ele><time>2026-04-29T18:06:17.017Z</time></trkpt><trkpt lat="43.9377626" lon="10.6657302"><ele>679.0</ele><time>2026-04-29T18:06:18.016Z</time></trkpt><trkpt lat="43.9376844" lon="10.665715"><ele>679.0</ele><time>2026-04-29T18:06:19.009Z</time></trkpt><trkpt lat="43.9376042" lon="10.6657401"><ele>679.0</ele><time>2026-04-29T18:06:20.011Z</time></trkpt><trkpt lat="43.9375331" lon="10.6657852"><ele>679.5</ele><time>2026-04-29T18:06:21.003Z</time></trkpt><trkpt lat="43.9374623" lon="10.6658331"><ele>680.0</ele><time>2026-04-29T18:06:22.027Z</time></trkpt><trkpt lat="43.9373835" lon="10.6658569"><ele>680.5</ele><time>2026-04-29T18:06:23.015Z</time></trkpt><trkpt lat="43.9372979" lon="10.6658475"><ele>681.0</ele><time>2026-04-29T18:06:24.014Z</time></trkpt><trkpt lat="43.9372112" lon="10.6658317"><ele>681.5</ele><time>2026-04-29T18:06:25.013Z</time></trkpt><trkpt lat="43.9371272" lon="10.6657942"><ele>682.0</ele><time>2026-04-29T18:06:26.015Z</time></trkpt><trkpt lat="43.9370416" lon="10.6657559"><ele>682.0</ele><time>2026-04-29T18:06:27.003Z</time></trkpt><trkpt lat="43.93694" lon="10.6657207"><ele>682.0</ele><time>2026-04-29T18:06:28.011Z</time></trkpt><trkpt lat="43.9368473" lon="10.6657"><ele>682.0</ele><time>2026-04-29T18:06:29.008Z</time></trkpt><trkpt lat="43.9367638" lon="10.665691"><ele>682.0</ele><time>2026-04-29T18:06:30.018Z</time></trkpt><trkpt lat="43.9366747" lon="10.6656965"><ele>682.0</ele><time>2026-04-29T18:06:31.02Z</time></trkpt><trkpt lat="43.9365977" lon="10.6657249"><ele>681.2</ele><time>2026-04-29T18:06:32.012Z</time></trkpt><trkpt lat="43.9365162" lon="10.6657745"><ele>680.4000000000001</ele><time>2026-04-29T18:06:32.998Z</time></trkpt><trkpt lat="43.936426" lon="10.6658301"><ele>679.5999999999999</ele><time>2026-04-29T18:06:34.009Z</time></trkpt><trkpt lat="43.9363455" lon="10.6658913"><ele>678.8</ele><time>2026-04-29T18:06:35.01Z</time></trkpt><trkpt lat="43.9362716" lon="10.6659702"><ele>678.0</ele><time>2026-04-29T18:06:36.026Z</time></trkpt><trkpt lat="43.9362015" lon="10.6660704"><ele>676.5999999999999</ele><time>2026-04-29T18:06:37.007Z</time></trkpt><trkpt lat="43.9361385" lon="10.6661746"><ele>675.1999999999999</ele><time>2026-04-29T18:06:38.019Z</time></trkpt><trkpt lat="43.936073" lon="10.6662956"><ele>673.8</ele><time>2026-04-29T18:06:39.011Z</time></trkpt><trkpt lat="43.9359992" lon="10.6664174"><ele>672.4</ele><time>2026-04-29T18:06:40.007Z</time></trkpt><trkpt lat="43.9359373" lon="10.6665285"><ele>671.0</ele><time>2026-04-29T18:06:41.008Z</time></trkpt><trkpt lat="43.9358854" lon="10.6666205"><ele>671.0</ele><time>2026-04-29T18:06:42.014Z</time></trkpt><trkpt lat="43.9357805" lon="10.6666423"><ele>671.0</ele><time>2026-04-29T18:06:44.013Z</time></trkpt><trkpt lat="43.9357211" lon="10.666587"><ele>671.0</ele><time>2026-04-29T18:06:45.017Z</time></trkpt><trkpt lat="43.9356692" lon="10.6664984"><ele>671.0</ele><time>2026-04-29T18:06:46.008Z</time></trkpt><trkpt lat="43.935619" lon="10.6663686"><ele>671.0</ele><time>2026-04-29T18:06:47.019Z</time></trkpt><trkpt lat="43.9355738" lon="10.6662437"><ele>671.0</ele><time>2026-04-29T18:06:48.01Z</time></trkpt><trkpt lat="43.9355207" lon="10.6661387"><ele>671.0</ele><time>2026-04-29T18:06:49.011Z</time></trkpt><trkpt lat="43.9354551" lon="10.6660728"><ele>671.0</ele><time>2026-04-29T18:06:50.004Z</time></trkpt><trkpt lat="43.9353696" lon="10.6660468"><ele>671.0</ele><time>2026-04-29T18:06:51.012Z</time></trkpt><trkpt lat="43.935287" lon="10.6660502"><ele>671.0</ele><time>2026-04-29T18:06:52.025Z</time></trkpt><trkpt lat="43.9351989" lon="10.6660677"><ele>671.0</ele><time>2026-04-29T18:06:53.002Z</time></trkpt><trkpt lat="43.9351069" lon="10.6660827"><ele>670.8333333333333</ele><time>2026-04-29T18:06:54.02Z</time></trkpt><trkpt lat="43.9350114" lon="10.6660673"><ele>670.6666666666666</ele><time>2026-04-29T18:06:55.018Z</time></trkpt><trkpt lat="43.9349173" lon="10.6660367"><ele>670.5</ele><time>2026-04-29T18:06:56.012Z</time></trkpt><trkpt lat="43.9348347" lon="10.6660099"><ele>670.3333333333334</ele><time>2026-04-29T18:06:57.012Z</time></trkpt><trkpt lat="43.9347594" lon="10.6659988"><ele>670.1666666666667</ele><time>2026-04-29T18:06:58.011Z</time></trkpt><trkpt lat="43.9346945" lon="10.6660457"><ele>670.0</ele><time>2026-04-29T18:06:59.008Z</time></trkpt><trkpt lat="43.9346159" lon="10.6661125"><ele>670.0</ele><time>2026-04-29T18:07:00.014Z</time></trkpt><trkpt lat="43.9345434" lon="10.666161"><ele>670.0</ele><time>2026-04-29T18:07:01.011Z</time></trkpt><trkpt lat="43.9344676" lon="10.6661615"><ele>670.0</ele><time>2026-04-29T18:07:02.026Z</time></trkpt><trkpt lat="43.9343931" lon="10.6661158"><ele>670.0</ele><time>2026-04-29T18:07:03.007Z</time></trkpt><trkpt lat="43.9343273" lon="10.6660112"><ele>670.0</ele><time>2026-04-29T18:07:04.008Z</time></trkpt><trkpt lat="43.9342565" lon="10.6658685"><ele>672.25</ele><time>2026-04-29T18:07:05.019Z</time></trkpt><trkpt lat="43.9341835" lon="10.6657186"><ele>674.5</ele><time>2026-04-29T18:07:06.024Z</time></trkpt><trkpt lat="43.93411" lon="10.6655822"><ele>676.75</ele><time>2026-04-29T18:07:07.007Z</time></trkpt><trkpt lat="43.9340436" lon="10.665468"><ele>679.0</ele><time>2026-04-29T18:07:08.013Z</time></trkpt><trkpt lat="43.9339779" lon="10.665368"><ele>679.0</ele><time>2026-04-29T18:07:09.014Z</time></trkpt><trkpt lat="43.9339069" lon="10.6652985"><ele>679.0</ele><time>2026-04-29T18:07:10.012Z</time></trkpt><trkpt lat="43.933826" lon="10.6652806"><ele>679.0</ele><time>2026-04-29T18:07:11.015Z</time></trkpt><trkpt lat="43.9337439" lon="10.6652681"><ele>679.0</ele><time>2026-04-29T18:07:12.01Z</time></trkpt><trkpt lat="43.9336687" lon="10.6653053"><ele>679.0</ele><time>2026-04-29T18:07:13.009Z</time></trkpt><trkpt lat="43.9336127" lon="10.6653634"><ele>679.0</ele><time>2026-04-29T18:07:14.016Z</time></trkpt><trkpt lat="43.9335415" lon="10.6654439"><ele>679.0</ele><time>2026-04-29T18:07:15.011Z</time></trkpt><trkpt lat="43.933457" lon="10.6655587"><ele>679.0</ele><time>2026-04-29T18:07:16.026Z</time></trkpt><trkpt lat="43.9333844" lon="10.6656829"><ele>679.0</ele><time>2026-04-29T18:07:17.012Z</time></trkpt><trkpt lat="43.9333206" lon="10.6658155"><ele>679.0</ele><time>2026-04-29T18:07:18.012Z</time></trkpt><trkpt lat="43.9332599" lon="10.6659507"><ele>678.5</ele><time>2026-04-29T18:07:19.004Z</time></trkpt><trkpt lat="43.9332018" lon="10.6660915"><ele>678.0</ele><time>2026-04-29T18:07:20.005Z</time></trkpt><trkpt lat="43.9331306" lon="10.6662284"><ele>677.5</ele><time>2026-04-29T18:07:21.016Z</time></trkpt><trkpt lat="43.9330548" lon="10.6663654"><ele>677.0</ele><time>2026-04-29T18:07:22.023Z</time></trkpt><trkpt lat="43.9329846" lon="10.6664934"><ele>677.0</ele><time>2026-04-29T18:07:23.017Z</time></trkpt><trkpt lat="43.9329212" lon="10.6666251"><ele>677.0</ele><time>2026-04-29T18:07:24.019Z</time></trkpt><trkpt lat="43.9328589" lon="10.6667401"><ele>677.0</ele><time>2026-04-29T18:07:25.018Z</time></trkpt><trkpt lat="43.9328022" lon="10.6668347"><ele>677.0</ele><time>2026-04-29T18:07:26.018Z</time></trkpt><trkpt lat="43.9327415" lon="10.6669147"><ele>677.0</ele><time>2026-04-29T18:07:27.003Z</time></trkpt><trkpt lat="43.9326631" lon="10.6669722"><ele>678.5</ele><time>2026-04-29T18:07:28.024Z</time></trkpt><trkpt lat="43.9325713" lon="10.6670236"><ele>680.0</ele><time>2026-04-29T18:07:29.007Z</time></trkpt><trkpt lat="43.9324823" lon="10.6670719"><ele>681.5</ele><time>2026-04-29T18:07:30.029Z</time></trkpt><trkpt lat="43.9323979" lon="10.6671085"><ele>683.0</ele><time>2026-04-29T18:07:31.01Z</time></trkpt><trkpt lat="43.9323247" lon="10.6671388"><ele>684.5</ele><time>2026-04-29T18:07:32.03Z</time></trkpt><trkpt lat="43.9322353" lon="10.6671456"><ele>686.0</ele><time>2026-04-29T18:07:33.016Z</time></trkpt><trkpt lat="43.932142" lon="10.6671487"><ele>686.0</ele><time>2026-04-29T18:07:34.012Z</time></trkpt><trkpt lat="43.9320388" lon="10.6671461"><ele>686.0</ele><time>2026-04-29T18:07:35.005Z</time></trkpt><trkpt lat="43.9319307" lon="10.6671399"><ele>686.0</ele><time>2026-04-29T18:07:36.04Z</time></trkpt><trkpt lat="43.9318319" lon="10.6671332"><ele>686.0</ele><time>2026-04-29T18:07:37.018Z</time></trkpt><trkpt lat="43.9317496" lon="10.6671294"><ele>686.0</ele><time>2026-04-29T18:07:38.004Z</time></trkpt><trkpt lat="43.9316678" lon="10.6672611"><ele>687.3333333333333</ele><time>2026-04-29T18:07:40.016Z</time></trkpt><trkpt lat="43.9316456" lon="10.6673749"><ele>688.6666666666666</ele><time>2026-04-29T18:07:41.01Z</time></trkpt><trkpt lat="43.9316207" lon="10.667497"><ele>690.0</ele><time>2026-04-29T18:07:42.012Z</time></trkpt><trkpt lat="43.9315817" lon="10.6676008"><ele>691.3333333333334</ele><time>2026-04-29T18:07:43.017Z</time></trkpt><trkpt lat="43.9315232" lon="10.6676788"><ele>692.6666666666667</ele><time>2026-04-29T18:07:44.02Z</time></trkpt><trkpt lat="43.9314613" lon="10.6677613"><ele>694.0</ele><time>2026-04-29T18:07:45.009Z</time></trkpt><trkpt lat="43.9314114" lon="10.6678652"><ele>694.0</ele><time>2026-04-29T18:07:46.019Z</time></trkpt><trkpt lat="43.9313574" lon="10.6679984"><ele>694.0</ele><time>2026-04-29T18:07:47.016Z</time></trkpt><trkpt lat="43.9313154" lon="10.668175"><ele>694.0</ele><time>2026-04-29T18:07:48.011Z</time></trkpt><trkpt lat="43.9312691" lon="10.6683472"><ele>694.0</ele><time>2026-04-29T18:07:49.011Z</time></trkpt><trkpt lat="43.9312405" lon="10.668504"><ele>694.1666666666667</ele><time>2026-04-29T18:07:50.015Z</time></trkpt><trkpt lat="43.9312087" lon="10.6686127"><ele>694.3333333333334</ele><time>2026-04-29T18:07:51Z</time></trkpt><trkpt lat="43.9311374" lon="10.6687345"><ele>694.5</ele><time>2026-04-29T18:07:53.008Z</time></trkpt><trkpt lat="43.9310462" lon="10.6688169"><ele>694.6666666666666</ele><time>2026-04-29T18:07:55.004Z</time></trkpt><trkpt lat="43.9309808" lon="10.6688058"><ele>694.8333333333333</ele><time>2026-04-29T18:07:56.014Z</time></trkpt><trkpt lat="43.9309164" lon="10.6687609"><ele>695.0</ele><time>2026-04-29T18:07:57.012Z</time></trkpt><trkpt lat="43.9308427" lon="10.6686839"><ele>696.6</ele><time>2026-04-29T18:07:58.02Z</time></trkpt><trkpt lat="43.930772" lon="10.668595"><ele>698.2</ele><time>2026-04-29T18:07:59.002Z</time></trkpt><trkpt lat="43.9307263" lon="10.6685006"><ele>699.8</ele><time>2026-04-29T18:08:00.018Z</time></trkpt><trkpt lat="43.9306903" lon="10.6683811"><ele>701.4</ele><time>2026-04-29T18:08:01.002Z</time></trkpt><trkpt lat="43.9306611" lon="10.6682501"><ele>703.0</ele><time>2026-04-29T18:08:02.02Z</time></trkpt><trkpt lat="43.9306324" lon="10.66813"><ele>703.0</ele><time>2026-04-29T18:08:03.006Z</time></trkpt><trkpt lat="43.9305961" lon="10.6680359"><ele>703.0</ele><time>2026-04-29T18:08:04.006Z</time></trkpt><trkpt lat="43.9305423" lon="10.6679626"><ele>703.0</ele><time>2026-04-29T18:08:05.016Z</time></trkpt><trkpt lat="43.9304642" lon="10.6678928"><ele>703.0</ele><time>2026-04-29T18:08:06.014Z</time></trkpt><trkpt lat="43.9303761" lon="10.6678197"><ele>703.0</ele><time>2026-04-29T18:08:07Z</time></trkpt><trkpt lat="43.9302773" lon="10.6677289"><ele>705.0</ele><time>2026-04-29T18:08:08.013Z</time></trkpt><trkpt lat="43.9301666" lon="10.6676306"><ele>707.0</ele><time>2026-04-29T18:08:09.021Z</time></trkpt><trkpt lat="43.9300558" lon="10.6675264"><ele>709.0</ele><time>2026-04-29T18:08:10.021Z</time></trkpt><trkpt lat="43.9299372" lon="10.6674209"><ele>711.0</ele><time>2026-04-29T18:08:11.006Z</time></trkpt><trkpt lat="43.9298195" lon="10.6673284"><ele>711.1666666666666</ele><time>2026-04-29T18:08:12.02Z</time></trkpt><trkpt lat="43.9297099" lon="10.6672678"><ele>711.3333333333334</ele><time>2026-04-29T18:08:13.017Z</time></trkpt><trkpt lat="43.9296209" lon="10.6672253"><ele>711.5</ele><time>2026-04-29T18:08:14.003Z</time></trkpt><trkpt lat="43.9295544" lon="10.6671797"><ele>711.6666666666667</ele><time>2026-04-29T18:08:15.015Z</time></trkpt><trkpt lat="43.9294902" lon="10.6671353"><ele>711.8333333333334</ele><time>2026-04-29T18:08:16.014Z</time></trkpt><trkpt lat="43.9294286" lon="10.6670888"><ele>712.0</ele><time>2026-04-29T18:08:17.008Z</time></trkpt><trkpt lat="43.9293611" lon="10.6670461"><ele>712.0</ele><time>2026-04-29T18:08:18.014Z</time></trkpt><trkpt lat="43.9292573" lon="10.6670042"><ele>712.0</ele><time>2026-04-29T18:08:20.012Z</time></trkpt><trkpt lat="43.9291773" lon="10.6671291"><ele>712.0</ele><time>2026-04-29T18:08:22.008Z</time></trkpt><trkpt lat="43.9291283" lon="10.6672555"><ele>712.0</ele><time>2026-04-29T18:08:23.008Z</time></trkpt><trkpt lat="43.9290931" lon="10.6673666"><ele>712.0</ele><time>2026-04-29T18:08:24.014Z</time></trkpt><trkpt lat="43.9290576" lon="10.6674793"><ele>711.8333333333334</ele><time>2026-04-29T18:08:25.005Z</time></trkpt><trkpt lat="43.9290136" lon="10.6675821"><ele>711.6666666666667</ele><time>2026-04-29T18:08:26.032Z</time></trkpt><trkpt lat="43.9289636" lon="10.6676775"><ele>711.5</ele><time>2026-04-29T18:08:26.997Z</time></trkpt><trkpt lat="43.92891" lon="10.6677693"><ele>711.3333333333334</ele><time>2026-04-29T18:08:28.016Z</time></trkpt><trkpt lat="43.9288594" lon="10.6678608"><ele>711.1666666666666</ele><time>2026-04-29T18:08:29.017Z</time></trkpt><trkpt lat="43.9288034" lon="10.6679587"><ele>711.0</ele><time>2026-04-29T18:08:30.005Z</time></trkpt><trkpt lat="43.9287317" lon="10.6680515"><ele>708.4</ele><time>2026-04-29T18:08:31.01Z</time></trkpt><trkpt lat="43.9286544" lon="10.6681305"><ele>705.8</ele><time>2026-04-29T18:08:32.016Z</time></trkpt><trkpt lat="43.9285737" lon="10.6682004"><ele>703.1999999999999</ele><time>2026-04-29T18:08:33.02Z</time></trkpt><trkpt lat="43.9284966" lon="10.6682647"><ele>700.5999999999999</ele><time>2026-04-29T18:08:34.029Z</time></trkpt><trkpt lat="43.9284188" lon="10.668327"><ele>698.0</ele><time>2026-04-29T18:08:35.005Z</time></trkpt><trkpt lat="43.9283462" lon="10.668384"><ele>698.0</ele><time>2026-04-29T18:08:36.023Z</time></trkpt><trkpt lat="43.9282846" lon="10.6684351"><ele>698.0</ele><time>2026-04-29T18:08:37.005Z</time></trkpt><trkpt lat="43.9281829" lon="10.668495"><ele>698.0</ele><time>2026-04-29T18:08:39.002Z</time></trkpt><trkpt lat="43.9280783" lon="10.6684221"><ele>698.0</ele><time>2026-04-29T18:08:41.007Z</time></trkpt><trkpt lat="43.9280123" lon="10.6683448"><ele>698.0</ele><time>2026-04-29T18:08:42.016Z</time></trkpt><trkpt lat="43.9279488" lon="10.6682737"><ele>698.0</ele><time>2026-04-29T18:08:43.008Z</time></trkpt><trkpt lat="43.9278915" lon="10.6682043"><ele>698.0</ele><time>2026-04-29T18:08:44.023Z</time></trkpt><trkpt lat="43.9278335" lon="10.6681341"><ele>698.0</ele><time>2026-04-29T18:08:45.016Z</time></trkpt><trkpt lat="43.9277717" lon="10.668068"><ele>698.0</ele><time>2026-04-29T18:08:46.013Z</time></trkpt><trkpt lat="43.9277061" lon="10.6680109"><ele>698.0</ele><time>2026-04-29T18:08:47.01Z</time></trkpt><trkpt lat="43.9276453" lon="10.6679563"><ele>698.0</ele><time>2026-04-29T18:08:48.025Z</time></trkpt><trkpt lat="43.9275744" lon="10.6678542"><ele>695.0</ele><time>2026-04-29T18:08:50.004Z</time></trkpt><trkpt lat="43.9275714" lon="10.6677109"><ele>692.0</ele><time>2026-04-29T18:08:51.995Z</time></trkpt><trkpt lat="43.9275107" lon="10.6672701"><ele>689.0</ele><time>2026-04-29T18:08:59.971Z</time></trkpt><trkpt lat="43.9271192" lon="10.6674566"><ele>689.0</ele><time>2026-04-29T18:09:01.017Z</time></trkpt><trkpt lat="43.9269741" lon="10.6674006"><ele>689.0</ele><time>2026-04-29T18:09:02.007Z</time></trkpt><trkpt lat="43.9269713" lon="10.6673063"><ele>689.0</ele><time>2026-04-29T18:09:04.001Z</time></trkpt><trkpt lat="43.9267639" lon="10.667276"><ele>689.0</ele><time>2026-04-29T18:09:07.003Z</time></trkpt><trkpt lat="43.9266993" lon="10.6672614"><ele>689.0</ele><time>2026-04-29T18:09:08.003Z</time></trkpt><trkpt lat="43.9266024" lon="10.6672625"><ele>689.0</ele><time>2026-04-29T18:09:10.004Z</time></trkpt><trkpt lat="43.9265457" lon="10.6673266"><ele>689.0</ele><time>2026-04-29T18:09:12.004Z</time></trkpt><trkpt lat="43.9266025" lon="10.6674343"><ele>689.0</ele><time>2026-04-29T18:09:15.007Z</time></trkpt><trkpt lat="43.9266619" lon="10.6674716"><ele>689.0</ele><time>2026-04-29T18:09:16.022Z</time></trkpt><trkpt lat="43.9267802" lon="10.6675494"><ele>689.0</ele><time>2026-04-29T18:09:18.005Z</time></trkpt><trkpt lat="43.9268771" lon="10.6676602"><ele>689.0</ele><time>2026-04-29T18:09:20.005Z</time></trkpt><trkpt lat="43.9269404" lon="10.6677776"><ele>689.0</ele><time>2026-04-29T18:09:22.012Z</time></trkpt><trkpt lat="43.9269672" lon="10.6679423"><ele>689.0</ele><time>2026-04-29T18:09:24.013Z</time></trkpt><trkpt lat="43.9269812" lon="10.6681051"><ele>687.2</ele><time>2026-04-29T18:09:26.002Z</time></trkpt><trkpt lat="43.9269804" lon="10.6682483"><ele>685.4000000000001</ele><time>2026-04-29T18:09:28.01Z</time></trkpt><trkpt lat="43.9269065" lon="10.6682756"><ele>683.6</ele><time>2026-04-29T18:09:31.022Z</time></trkpt><trkpt lat="43.9268613" lon="10.6682103"><ele>681.8</ele><time>2026-04-29T18:09:32.992Z</time></trkpt><trkpt lat="43.9267942" lon="10.6680755"><ele>680.0</ele><time>2026-04-29T18:09:35.005Z</time></trkpt><trkpt lat="43.9267012" lon="10.6680257"><ele>676.6</ele><time>2026-04-29T18:09:37.009Z</time></trkpt><trkpt lat="43.9265969" lon="10.6680351"><ele>673.2</ele><time>2026-04-29T18:09:39.007Z</time></trkpt><trkpt lat="43.9264909" lon="10.6680566"><ele>669.8</ele><time>2026-04-29T18:09:41.015Z</time></trkpt><trkpt lat="43.9263616" lon="10.6680231"><ele>666.4</ele><time>2026-04-29T18:09:43.003Z</time></trkpt><trkpt lat="43.9262697" lon="10.6680025"><ele>663.0</ele><time>2026-04-29T18:09:44.014Z</time></trkpt><trkpt lat="43.9261925" lon="10.6679868"><ele>663.0</ele><time>2026-04-29T18:09:44.998Z</time></trkpt><trkpt lat="43.9261182" lon="10.6679685"><ele>663.0</ele><time>2026-04-29T18:09:45.991Z</time></trkpt><trkpt lat="43.9260278" lon="10.6678724"><ele>663.0</ele><time>2026-04-29T18:09:48.011Z</time></trkpt><trkpt lat="43.9259834" lon="10.6678074"><ele>663.0</ele><time>2026-04-29T18:09:49.012Z</time></trkpt><trkpt lat="43.9259508" lon="10.6677314"><ele>663.0</ele><time>2026-04-29T18:09:50.007Z</time></trkpt><trkpt lat="43.9259151" lon="10.6676497"><ele>663.0</ele><time>2026-04-29T18:09:51.018Z</time></trkpt><trkpt lat="43.9258848" lon="10.6675654"><ele>659.3333333333334</ele><time>2026-04-29T18:09:52.016Z</time></trkpt><trkpt lat="43.925836" lon="10.667487"><ele>655.6666666666666</ele><time>2026-04-29T18:09:53.013Z</time></trkpt><trkpt lat="43.9257773" lon="10.6673909"><ele>652.0</ele><time>2026-04-29T18:09:54.016Z</time></trkpt><trkpt lat="43.9257156" lon="10.6672976"><ele>648.3333333333333</ele><time>2026-04-29T18:09:55.019Z</time></trkpt><trkpt lat="43.9256522" lon="10.6672085"><ele>644.6666666666666</ele><time>2026-04-29T18:09:56.004Z</time></trkpt><trkpt lat="43.925589" lon="10.6671204"><ele>641.0</ele><time>2026-04-29T18:09:57.006Z</time></trkpt><trkpt lat="43.9255376" lon="10.6670323"><ele>641.0</ele><time>2026-04-29T18:09:58.008Z</time></trkpt><trkpt lat="43.9254881" lon="10.6669574"><ele>641.0</ele><time>2026-04-29T18:09:59Z</time></trkpt><trkpt lat="43.9254407" lon="10.666893"><ele>641.0</ele><time>2026-04-29T18:10:00.004Z</time></trkpt><trkpt lat="43.9254006" lon="10.6668191"><ele>641.0</ele><time>2026-04-29T18:10:01.02Z</time></trkpt><trkpt lat="43.9253852" lon="10.6667272"><ele>641.0</ele><time>2026-04-29T18:10:02.021Z</time></trkpt><trkpt lat="43.9253974" lon="10.6666324"><ele>641.0</ele><time>2026-04-29T18:10:03.012Z</time></trkpt><trkpt lat="43.9254318" lon="10.6665345"><ele>641.0</ele><time>2026-04-29T18:10:04.012Z</time></trkpt><trkpt lat="43.925472" lon="10.6664423"><ele>640.8333333333333</ele><time>2026-04-29T18:10:05.007Z</time></trkpt><trkpt lat="43.9255075" lon="10.6663389"><ele>640.6666666666666</ele><time>2026-04-29T18:10:06.006Z</time></trkpt><trkpt lat="43.9255301" lon="10.6662265"><ele>640.5</ele><time>2026-04-29T18:10:07.021Z</time></trkpt><trkpt lat="43.9255522" lon="10.6661148"><ele>640.3333333333334</ele><time>2026-04-29T18:10:08.014Z</time></trkpt><trkpt lat="43.9255633" lon="10.665991"><ele>640.1666666666667</ele><time>2026-04-29T18:10:09.016Z</time></trkpt><trkpt lat="43.925566" lon="10.6658743"><ele>640.0</ele><time>2026-04-29T18:10:10.006Z</time></trkpt><trkpt lat="43.9255727" lon="10.6657689"><ele>640.0</ele><time>2026-04-29T18:10:11.006Z</time></trkpt><trkpt lat="43.9255787" lon="10.6656669"><ele>640.0</ele><time>2026-04-29T18:10:12.012Z</time></trkpt><trkpt lat="43.9256035" lon="10.6655832"><ele>640.0</ele><time>2026-04-29T18:10:13.02Z</time></trkpt><trkpt lat="43.925646" lon="10.6655185"><ele>640.0</ele><time>2026-04-29T18:10:14.007Z</time></trkpt><trkpt lat="43.9257069" lon="10.6654622"><ele>640.0</ele><time>2026-04-29T18:10:15.014Z</time></trkpt><trkpt lat="43.9257658" lon="10.6654202"><ele>640.0</ele><time>2026-04-29T18:10:16.016Z</time></trkpt><trkpt lat="43.9258269" lon="10.6653865"><ele>640.0</ele><time>2026-04-29T18:10:17.006Z</time></trkpt><trkpt lat="43.9258928" lon="10.665362"><ele>642.2</ele><time>2026-04-29T18:10:18.017Z</time></trkpt><trkpt lat="43.9259616" lon="10.6653333"><ele>644.4</ele><time>2026-04-29T18:10:19.006Z</time></trkpt><trkpt lat="43.9260689" lon="10.6652918"><ele>646.5999999999999</ele><time>2026-04-29T18:10:21.013Z</time></trkpt><trkpt lat="43.9261016" lon="10.6651447"><ele>648.8</ele><time>2026-04-29T18:10:23.002Z</time></trkpt><trkpt lat="43.9261033" lon="10.6650499"><ele>651.0</ele><time>2026-04-29T18:10:24.007Z</time></trkpt><trkpt lat="43.9261017" lon="10.6649208"><ele>651.0</ele><time>2026-04-29T18:10:25.004Z</time></trkpt><trkpt lat="43.9260984" lon="10.6647815"><ele>651.0</ele><time>2026-04-29T18:10:26.003Z</time></trkpt><trkpt lat="43.9261037" lon="10.6646601"><ele>651.0</ele><time>2026-04-29T18:10:27.007Z</time></trkpt><trkpt lat="43.9261096" lon="10.6645478"><ele>651.0</ele><time>2026-04-29T18:10:28.016Z</time></trkpt><trkpt lat="43.9261216" lon="10.6644331"><ele>651.0</ele><time>2026-04-29T18:10:29Z</time></trkpt><trkpt lat="43.9261508" lon="10.6643149"><ele>651.0</ele><time>2026-04-29T18:10:30.016Z</time></trkpt><trkpt lat="43.9261754" lon="10.6642144"><ele>647.6666666666666</ele><time>2026-04-29T18:10:31.006Z</time></trkpt><trkpt lat="43.9262127" lon="10.6641242"><ele>644.3333333333334</ele><time>2026-04-29T18:10:32.013Z</time></trkpt><trkpt lat="43.9262514" lon="10.6640492"><ele>641.0</ele><time>2026-04-29T18:10:33.012Z</time></trkpt><trkpt lat="43.9263455" lon="10.6639413"><ele>637.6666666666667</ele><time>2026-04-29T18:10:34.996Z</time></trkpt><trkpt lat="43.9263997" lon="10.6638957"><ele>634.3333333333334</ele><time>2026-04-29T18:10:36.01Z</time></trkpt><trkpt lat="43.9264613" lon="10.6638533"><ele>631.0</ele><time>2026-04-29T18:10:37.003Z</time></trkpt><trkpt lat="43.9265326" lon="10.6638147"><ele>631.0</ele><time>2026-04-29T18:10:38.003Z</time></trkpt><trkpt lat="43.9266068" lon="10.6637667"><ele>631.0</ele><time>2026-04-29T18:10:39.01Z</time></trkpt><trkpt lat="43.9266721" lon="10.6637182"><ele>631.0</ele><time>2026-04-29T18:10:39.995Z</time></trkpt><trkpt lat="43.9267679" lon="10.6636119"><ele>631.0</ele><time>2026-04-29T18:10:42.016Z</time></trkpt><trkpt lat="43.9267962" lon="10.6635269"><ele>631.0</ele><time>2026-04-29T18:10:43.001Z</time></trkpt><trkpt lat="43.9268174" lon="10.6634248"><ele>631.0</ele><time>2026-04-29T18:10:44.018Z</time></trkpt><trkpt lat="43.9268428" lon="10.6633305"><ele>629.5</ele><time>2026-04-29T18:10:45.015Z</time></trkpt><trkpt lat="43.9268724" lon="10.6632343"><ele>628.0</ele><time>2026-04-29T18:10:46.009Z</time></trkpt><trkpt lat="43.9269031" lon="10.6631544"><ele>626.5</ele><time>2026-04-29T18:10:47.012Z</time></trkpt><trkpt lat="43.926932" lon="10.6630639"><ele>625.0</ele><time>2026-04-29T18:10:48.006Z</time></trkpt><trkpt lat="43.9269545" lon="10.6629753"><ele>623.5</ele><time>2026-04-29T18:10:49.02Z</time></trkpt><trkpt lat="43.926974" lon="10.6628862"><ele>622.0</ele><time>2026-04-29T18:10:50.006Z</time></trkpt><trkpt lat="43.9269702" lon="10.6627427"><ele>617.2</ele><time>2026-04-29T18:10:52.014Z</time></trkpt><trkpt lat="43.9268922" lon="10.6626356"><ele>612.4000000000001</ele><time>2026-04-29T18:10:54.009Z</time></trkpt><trkpt lat="43.9267896" lon="10.66258"><ele>607.5999999999999</ele><time>2026-04-29T18:10:56.01Z</time></trkpt><trkpt lat="43.926689" lon="10.6625005"><ele>602.8</ele><time>2026-04-29T18:10:58.01Z</time></trkpt><trkpt lat="43.9266494" lon="10.6624236"><ele>598.0</ele><time>2026-04-29T18:10:59.019Z</time></trkpt><trkpt lat="43.9266147" lon="10.6623314"><ele>598.0</ele><time>2026-04-29T18:11:00.013Z</time></trkpt><trkpt lat="43.9265787" lon="10.6622458"><ele>598.0</ele><time>2026-04-29T18:11:01.004Z</time></trkpt><trkpt lat="43.926547" lon="10.6621606"><ele>598.0</ele><time>2026-04-29T18:11:02.007Z</time></trkpt><trkpt lat="43.9265084" lon="10.6620902"><ele>598.0</ele><time>2026-04-29T18:11:03.015Z</time></trkpt><trkpt lat="43.9264486" lon="10.6620394"><ele>598.0</ele><time>2026-04-29T18:11:04.016Z</time></trkpt><trkpt lat="43.9263749" lon="10.6620113"><ele>598.0</ele><time>2026-04-29T18:11:05.009Z</time></trkpt><trkpt lat="43.9263078" lon="10.66198"><ele>598.0</ele><time>2026-04-29T18:11:06.01Z</time></trkpt><trkpt lat="43.9262385" lon="10.66193"><ele>595.1666666666667</ele><time>2026-04-29T18:11:07.007Z</time></trkpt><trkpt lat="43.9261785" lon="10.661875"><ele>592.3333333333334</ele><time>2026-04-29T18:11:08.011Z</time></trkpt><trkpt lat="43.9261187" lon="10.6618066"><ele>589.5</ele><time>2026-04-29T18:11:09.017Z</time></trkpt><trkpt lat="43.9260574" lon="10.6617375"><ele>586.6666666666666</ele><time>2026-04-29T18:11:10.017Z</time></trkpt><trkpt lat="43.926001" lon="10.6616757"><ele>583.8333333333333</ele><time>2026-04-29T18:11:11.017Z</time></trkpt><trkpt lat="43.9259513" lon="10.6615945"><ele>581.0</ele><time>2026-04-29T18:11:12.01Z</time></trkpt><trkpt lat="43.9258905" lon="10.661492"><ele>581.0</ele><time>2026-04-29T18:11:13.027Z</time></trkpt><trkpt lat="43.9258375" lon="10.661386"><ele>581.0</ele><time>2026-04-29T18:11:14.019Z</time></trkpt><trkpt lat="43.9257874" lon="10.6613029"><ele>581.0</ele><time>2026-04-29T18:11:15.013Z</time></trkpt><trkpt lat="43.9257324" lon="10.6612333"><ele>581.0</ele><time>2026-04-29T18:11:16.021Z</time></trkpt><trkpt lat="43.9256709" lon="10.6611856"><ele>581.0</ele><time>2026-04-29T18:11:17.021Z</time></trkpt><trkpt lat="43.9256046" lon="10.6611502"><ele>581.0</ele><time>2026-04-29T18:11:18.013Z</time></trkpt><trkpt lat="43.9255224" lon="10.6611239"><ele>579.6</ele><time>2026-04-29T18:11:19.015Z</time></trkpt><trkpt lat="43.9254125" lon="10.6611158"><ele>578.2</ele><time>2026-04-29T18:11:20.006Z</time></trkpt><trkpt lat="43.9253045" lon="10.6611077"><ele>576.8</ele><time>2026-04-29T18:11:21.017Z</time></trkpt><trkpt lat="43.9252075" lon="10.6610928"><ele>575.4</ele><time>2026-04-29T18:11:22.016Z</time></trkpt><trkpt lat="43.9251159" lon="10.6610446"><ele>574.0</ele><time>2026-04-29T18:11:23.017Z</time></trkpt><trkpt lat="43.9250335" lon="10.6609933"><ele>574.0</ele><time>2026-04-29T18:11:24.02Z</time></trkpt><trkpt lat="43.9249673" lon="10.6609607"><ele>574.0</ele><time>2026-04-29T18:11:25.004Z</time></trkpt><trkpt lat="43.9248923" lon="10.660961"><ele>574.0</ele><time>2026-04-29T18:11:26.017Z</time></trkpt><trkpt lat="43.9247964" lon="10.6609873"><ele>574.0</ele><time>2026-04-29T18:11:27.007Z</time></trkpt><trkpt lat="43.9247036" lon="10.6610138"><ele>574.0</ele><time>2026-04-29T18:11:28.02Z</time></trkpt><trkpt lat="43.9246092" lon="10.6610251"><ele>574.0</ele><time>2026-04-29T18:11:29.018Z</time></trkpt><trkpt lat="43.9245257" lon="10.6610103"><ele>574.0</ele><time>2026-04-29T18:11:30.014Z</time></trkpt><trkpt lat="43.9244507" lon="10.6609771"><ele>574.0</ele><time>2026-04-29T18:11:31.019Z</time></trkpt><trkpt lat="43.9243839" lon="10.6609256"><ele>574.0</ele><time>2026-04-29T18:11:32.01Z</time></trkpt><trkpt lat="43.9243241" lon="10.6608741"><ele>574.0</ele><time>2026-04-29T18:11:33.014Z</time></trkpt><trkpt lat="43.9242638" lon="10.6608169"><ele>574.0</ele><time>2026-04-29T18:11:34.014Z</time></trkpt><trkpt lat="43.9242018" lon="10.6607684"><ele>574.0</ele><time>2026-04-29T18:11:35.015Z</time></trkpt><trkpt lat="43.924138" lon="10.6607431"><ele>574.0</ele><time>2026-04-29T18:11:36.014Z</time></trkpt><trkpt lat="43.9240625" lon="10.6607284"><ele>574.5</ele><time>2026-04-29T18:11:37.01Z</time></trkpt><trkpt lat="43.9239858" lon="10.66071"><ele>575.0</ele><time>2026-04-29T18:11:38.018Z</time></trkpt><trkpt lat="43.9239066" lon="10.6606978"><ele>575.5</ele><time>2026-04-29T18:11:39.009Z</time></trkpt><trkpt lat="43.9238251" lon="10.6606894"><ele>576.0</ele><time>2026-04-29T18:11:40.023Z</time></trkpt><trkpt lat="43.923735" lon="10.6606971"><ele>576.5</ele><time>2026-04-29T18:11:41.016Z</time></trkpt><trkpt lat="43.9236364" lon="10.6607134"><ele>577.0</ele><time>2026-04-29T18:11:42.026Z</time></trkpt><trkpt lat="43.9235432" lon="10.6607262"><ele>577.0</ele><time>2026-04-29T18:11:43.022Z</time></trkpt><trkpt lat="43.9234551" lon="10.6607254"><ele>577.0</ele><time>2026-04-29T18:11:44.017Z</time></trkpt><trkpt lat="43.9233678" lon="10.6607122"><ele>577.0</ele><time>2026-04-29T18:11:45.026Z</time></trkpt><trkpt lat="43.9232785" lon="10.6606936"><ele>577.0</ele><time>2026-04-29T18:11:46.02Z</time></trkpt><trkpt lat="43.9231868" lon="10.6606752"><ele>577.0</ele><time>2026-04-29T18:11:47.011Z</time></trkpt><trkpt lat="43.9230968" lon="10.6606678"><ele>577.0</ele><time>2026-04-29T18:11:48.018Z</time></trkpt><trkpt lat="43.923006" lon="10.6606757"><ele>576.5</ele><time>2026-04-29T18:11:49.008Z</time></trkpt><trkpt lat="43.9229151" lon="10.6606838"><ele>576.0</ele><time>2026-04-29T18:11:50.018Z</time></trkpt><trkpt lat="43.9228283" lon="10.6606944"><ele>575.5</ele><time>2026-04-29T18:11:51.006Z</time></trkpt><trkpt lat="43.9227384" lon="10.6607082"><ele>575.0</ele><time>2026-04-29T18:11:52.028Z</time></trkpt><trkpt lat="43.9226527" lon="10.6607301"><ele>574.5</ele><time>2026-04-29T18:11:53.024Z</time></trkpt><trkpt lat="43.922578" lon="10.6607569"><ele>574.0</ele><time>2026-04-29T18:11:54.022Z</time></trkpt><trkpt lat="43.922514" lon="10.6607993"><ele>573.8333333333334</ele><time>2026-04-29T18:11:55.019Z</time></trkpt><trkpt lat="43.922448" lon="10.6608685"><ele>573.6666666666667</ele><time>2026-04-29T18:11:56.014Z</time></trkpt><trkpt lat="43.9223855" lon="10.6609346"><ele>573.5</ele><time>2026-04-29T18:11:57.019Z</time></trkpt><trkpt lat="43.9223233" lon="10.6610036"><ele>573.3333333333334</ele><time>2026-04-29T18:11:58.013Z</time></trkpt><trkpt lat="43.9222645" lon="10.6610618"><ele>573.1666666666666</ele><time>2026-04-29T18:11:59.012Z</time></trkpt><trkpt lat="43.9222027" lon="10.6611023"><ele>573.0</ele><time>2026-04-29T18:12:00.014Z</time></trkpt><trkpt lat="43.9221208" lon="10.6611457"><ele>571.8</ele><time>2026-04-29T18:12:01.006Z</time></trkpt><trkpt lat="43.9220312" lon="10.6612064"><ele>570.5999999999999</ele><time>2026-04-29T18:12:02.02Z</time></trkpt><trkpt lat="43.9219491" lon="10.6612811"><ele>569.4000000000001</ele><time>2026-04-29T18:12:03.004Z</time></trkpt><trkpt lat="43.9218692" lon="10.6613675"><ele>568.2</ele><time>2026-04-29T18:12:04.01Z</time></trkpt><trkpt lat="43.9217912" lon="10.6614665"><ele>567.0</ele><time>2026-04-29T18:12:05.007Z</time></trkpt><trkpt lat="43.9217103" lon="10.6615573"><ele>567.0</ele><time>2026-04-29T18:12:06.009Z</time></trkpt><trkpt lat="43.921641" lon="10.661655"><ele>567.0</ele><time>2026-04-29T18:12:07.017Z</time></trkpt><trkpt lat="43.9215743" lon="10.6617499"><ele>567.0</ele><time>2026-04-29T18:12:08.013Z</time></trkpt><trkpt lat="43.921506" lon="10.6618486"><ele>567.0</ele><time>2026-04-29T18:12:09.022Z</time></trkpt><trkpt lat="43.921449" lon="10.6619463"><ele>567.0</ele><time>2026-04-29T18:12:10.015Z</time></trkpt><trkpt lat="43.9213931" lon="10.6620501"><ele>567.2</ele><time>2026-04-29T18:12:11.01Z</time></trkpt><trkpt lat="43.921342" lon="10.6621726"><ele>567.4000000000001</ele><time>2026-04-29T18:12:12.008Z</time></trkpt><trkpt lat="43.9212928" lon="10.6622929"><ele>567.5999999999999</ele><time>2026-04-29T18:12:13.023Z</time></trkpt><trkpt lat="43.9212521" lon="10.6624203"><ele>567.8</ele><time>2026-04-29T18:12:14.014Z</time></trkpt><trkpt lat="43.921204" lon="10.6625578"><ele>568.0</ele><time>2026-04-29T18:12:15.017Z</time></trkpt><trkpt lat="43.9211432" lon="10.662685"><ele>567.5</ele><time>2026-04-29T18:12:16.004Z</time></trkpt><trkpt lat="43.9210734" lon="10.6628038"><ele>567.0</ele><time>2026-04-29T18:12:17.019Z</time></trkpt><trkpt lat="43.9209927" lon="10.6629184"><ele>566.5</ele><time>2026-04-29T18:12:18.009Z</time></trkpt><trkpt lat="43.9209042" lon="10.6630301"><ele>566.0</ele><time>2026-04-29T18:12:19.016Z</time></trkpt><trkpt lat="43.920806" lon="10.6631509"><ele>566.0</ele><time>2026-04-29T18:12:20.021Z</time></trkpt><trkpt lat="43.9207038" lon="10.6632647"><ele>566.0</ele><time>2026-04-29T18:12:21.018Z</time></trkpt><trkpt lat="43.9206052" lon="10.6633786"><ele>566.0</ele><time>2026-04-29T18:12:22.02Z</time></trkpt><trkpt lat="43.9205111" lon="10.6634863"><ele>566.0</ele><time>2026-04-29T18:12:23.016Z</time></trkpt><trkpt lat="43.9204312" lon="10.6635966"><ele>563.4</ele><time>2026-04-29T18:12:24.023Z</time></trkpt><trkpt lat="43.9203623" lon="10.6636957"><ele>560.8</ele><time>2026-04-29T18:12:25.03Z</time></trkpt><trkpt lat="43.9202867" lon="10.6637754"><ele>558.1999999999999</ele><time>2026-04-29T18:12:26.021Z</time></trkpt><trkpt lat="43.920211" lon="10.6638496"><ele>555.6</ele><time>2026-04-29T18:12:27.02Z</time></trkpt><trkpt lat="43.9201385" lon="10.6639222"><ele>553.0</ele><time>2026-04-29T18:12:28.003Z</time></trkpt><trkpt lat="43.920067" lon="10.6639878"><ele>554.6666666666667</ele><time>2026-04-29T18:12:29.012Z</time></trkpt><trkpt lat="43.9199981" lon="10.664069"><ele>556.3333333333334</ele><time>2026-04-29T18:12:30.017Z</time></trkpt><trkpt lat="43.919935" lon="10.6641681"><ele>558.0</ele><time>2026-04-29T18:12:31.01Z</time></trkpt><trkpt lat="43.9198829" lon="10.664269"><ele>559.6666666666666</ele><time>2026-04-29T18:12:32.009Z</time></trkpt><trkpt lat="43.9198333" lon="10.6643572"><ele>561.3333333333333</ele><time>2026-04-29T18:12:33.002Z</time></trkpt><trkpt lat="43.9197835" lon="10.6644297"><ele>563.0</ele><time>2026-04-29T18:12:34.006Z</time></trkpt><trkpt lat="43.9197134" lon="10.6644686"><ele>558.4</ele><time>2026-04-29T18:12:35.002Z</time></trkpt><trkpt lat="43.9196309" lon="10.6644784"><ele>553.8</ele><time>2026-04-29T18:12:36.002Z</time></trkpt><trkpt lat="43.9195384" lon="10.664478"><ele>549.2</ele><time>2026-04-29T18:12:37.015Z</time></trkpt><trkpt lat="43.9194445" lon="10.6644866"><ele>544.6</ele><time>2026-04-29T18:12:38.018Z</time></trkpt><trkpt lat="43.919351" lon="10.6645089"><ele>540.0</ele><time>2026-04-29T18:12:39.008Z</time></trkpt><trkpt lat="43.919262" lon="10.6645325"><ele>541.6666666666666</ele><time>2026-04-29T18:12:40.021Z</time></trkpt><trkpt lat="43.9191685" lon="10.6645504"><ele>543.3333333333334</ele><time>2026-04-29T18:12:41.009Z</time></trkpt><trkpt lat="43.9190767" lon="10.6645763"><ele>545.0</ele><time>2026-04-29T18:12:42.016Z</time></trkpt><trkpt lat="43.9189902" lon="10.6646168"><ele>546.6666666666667</ele><time>2026-04-29T18:12:43.032Z</time></trkpt><trkpt lat="43.9189059" lon="10.6646568"><ele>548.3333333333334</ele><time>2026-04-29T18:12:44.016Z</time></trkpt><trkpt lat="43.9188401" lon="10.664714"><ele>550.0</ele><time>2026-04-29T18:12:45.023Z</time></trkpt><trkpt lat="43.9187649" lon="10.6647947"><ele>550.0</ele><time>2026-04-29T18:12:46.025Z</time></trkpt><trkpt lat="43.9186977" lon="10.6648791"><ele>550.0</ele><time>2026-04-29T18:12:47.005Z</time></trkpt><trkpt lat="43.9186329" lon="10.6649309"><ele>550.0</ele><time>2026-04-29T18:12:48.009Z</time></trkpt><trkpt lat="43.9185617" lon="10.6649721"><ele>550.0</ele><time>2026-04-29T18:12:49.009Z</time></trkpt><trkpt lat="43.918487" lon="10.6650116"><ele>550.0</ele><time>2026-04-29T18:12:50.006Z</time></trkpt><trkpt lat="43.9184033" lon="10.6650453"><ele>550.0</ele><time>2026-04-29T18:12:51.024Z</time></trkpt><trkpt lat="43.9183205" lon="10.6650661"><ele>551.5</ele><time>2026-04-29T18:12:52.011Z</time></trkpt><trkpt lat="43.9182374" lon="10.6650731"><ele>553.0</ele><time>2026-04-29T18:12:53.017Z</time></trkpt><trkpt lat="43.9181572" lon="10.6650732"><ele>554.5</ele><time>2026-04-29T18:12:54.024Z</time></trkpt><trkpt lat="43.9180494" lon="10.6650638"><ele>556.0</ele><time>2026-04-29T18:12:56.007Z</time></trkpt><trkpt lat="43.9179861" lon="10.664987"><ele>557.5</ele><time>2026-04-29T18:12:58.021Z</time></trkpt><trkpt lat="43.9180157" lon="10.6648715"><ele>559.0</ele><time>2026-04-29T18:13:00.001Z</time></trkpt><trkpt lat="43.9180583" lon="10.6648067"><ele>559.0</ele><time>2026-04-29T18:13:01.018Z</time></trkpt><trkpt lat="43.9181015" lon="10.6647422"><ele>559.0</ele><time>2026-04-29T18:13:02.004Z</time></trkpt><trkpt lat="43.9181434" lon="10.6646718"><ele>559.0</ele><time>2026-04-29T18:13:03.013Z</time></trkpt><trkpt lat="43.9181927" lon="10.664538"><ele>559.0</ele><time>2026-04-29T18:13:05.021Z</time></trkpt><trkpt lat="43.9181848" lon="10.6644012"><ele>559.0</ele><time>2026-04-29T18:13:07.006Z</time></trkpt><trkpt lat="43.9181363" lon="10.6642998"><ele>559.0</ele><time>2026-04-29T18:13:08.014Z</time></trkpt><trkpt lat="43.9180588" lon="10.6641749"><ele>560.0</ele><time>2026-04-29T18:13:08.998Z</time></trkpt><trkpt lat="43.9179959" lon="10.6640453"><ele>561.0</ele><time>2026-04-29T18:13:09.999Z</time></trkpt><trkpt lat="43.9179347" lon="10.6639143"><ele>562.0</ele><time>2026-04-29T18:13:11.013Z</time></trkpt><trkpt lat="43.9178883" lon="10.6637839"><ele>563.0</ele><time>2026-04-29T18:13:12.003Z</time></trkpt><trkpt lat="43.9178622" lon="10.6636549"><ele>564.0</ele><time>2026-04-29T18:13:13.029Z</time></trkpt><trkpt lat="43.9178456" lon="10.6635277"><ele>564.0</ele><time>2026-04-29T18:13:14.019Z</time></trkpt><trkpt lat="43.9178094" lon="10.6634086"><ele>564.0</ele><time>2026-04-29T18:13:15.008Z</time></trkpt><trkpt lat="43.9177611" lon="10.663286"><ele>564.0</ele><time>2026-04-29T18:13:16.023Z</time></trkpt><trkpt lat="43.9176998" lon="10.6631781"><ele>564.0</ele><time>2026-04-29T18:13:17.006Z</time></trkpt><trkpt lat="43.9176397" lon="10.6630778"><ele>564.0</ele><time>2026-04-29T18:13:18.014Z</time></trkpt><trkpt lat="43.9175842" lon="10.6630089"><ele>561.3333333333334</ele><time>2026-04-29T18:13:19.014Z</time></trkpt><trkpt lat="43.9174592" lon="10.6629649"><ele>558.6666666666666</ele><time>2026-04-29T18:13:21.015Z</time></trkpt><trkpt lat="43.917368" lon="10.6629737"><ele>556.0</ele><time>2026-04-29T18:13:22.016Z</time></trkpt><trkpt lat="43.9172842" lon="10.6629794"><ele>553.3333333333333</ele><time>2026-04-29T18:13:23.025Z</time></trkpt><trkpt lat="43.9172125" lon="10.6629787"><ele>550.6666666666666</ele><time>2026-04-29T18:13:24.015Z</time></trkpt><trkpt lat="43.9171442" lon="10.6629564"><ele>548.0</ele><time>2026-04-29T18:13:25.027Z</time></trkpt><trkpt lat="43.9170641" lon="10.6629175"><ele>548.0</ele><time>2026-04-29T18:13:26.03Z</time></trkpt><trkpt lat="43.9169757" lon="10.6628787"><ele>548.0</ele><time>2026-04-29T18:13:27.019Z</time></trkpt><trkpt lat="43.9168972" lon="10.6628488"><ele>548.0</ele><time>2026-04-29T18:13:28.023Z</time></trkpt><trkpt lat="43.9167967" lon="10.6627912"><ele>548.0</ele><time>2026-04-29T18:13:30.021Z</time></trkpt><trkpt lat="43.9167784" lon="10.6626688"><ele>548.0</ele><time>2026-04-29T18:13:32.033Z</time></trkpt><trkpt lat="43.9168101" lon="10.6625932"><ele>548.0</ele><time>2026-04-29T18:13:33.013Z</time></trkpt><trkpt lat="43.9168554" lon="10.6625094"><ele>547.3333333333333</ele><time>2026-04-29T18:13:34.012Z</time></trkpt><trkpt lat="43.9169262" lon="10.6624355"><ele>546.6666666666666</ele><time>2026-04-29T18:13:35.019Z</time></trkpt><trkpt lat="43.9170028" lon="10.6623708"><ele>546.0</ele><time>2026-04-29T18:13:36.014Z</time></trkpt><trkpt lat="43.9170786" lon="10.6623052"><ele>545.3333333333334</ele><time>2026-04-29T18:13:37.009Z</time></trkpt><trkpt lat="43.9171388" lon="10.6622403"><ele>544.6666666666667</ele><time>2026-04-29T18:13:38.014Z</time></trkpt><trkpt lat="43.9171989" lon="10.6621869"><ele>544.0</ele><time>2026-04-29T18:13:39.006Z</time></trkpt><trkpt lat="43.917266" lon="10.6621614"><ele>544.0</ele><time>2026-04-29T18:13:40.013Z</time></trkpt><trkpt lat="43.9173492" lon="10.6621849"><ele>544.0</ele><time>2026-04-29T18:13:41.006Z</time></trkpt><trkpt lat="43.9174416" lon="10.662219"><ele>544.0</ele><time>2026-04-29T18:13:41.995Z</time></trkpt><trkpt lat="43.9175308" lon="10.6622479"><ele>544.0</ele><time>2026-04-29T18:13:43.017Z</time></trkpt><trkpt lat="43.9176135" lon="10.6622554"><ele>544.0</ele><time>2026-04-29T18:13:44.012Z</time></trkpt><trkpt lat="43.9176909" lon="10.6622388"><ele>544.0</ele><time>2026-04-29T18:13:45.016Z</time></trkpt><trkpt lat="43.9177715" lon="10.6622094"><ele>545.0</ele><time>2026-04-29T18:13:46.011Z</time></trkpt><trkpt lat="43.9178525" lon="10.6621721"><ele>546.0</ele><time>2026-04-29T18:13:47.023Z</time></trkpt><trkpt lat="43.9179303" lon="10.6621431"><ele>547.0</ele><time>2026-04-29T18:13:48.001Z</time></trkpt><trkpt lat="43.9179935" lon="10.6621285"><ele>548.0</ele><time>2026-04-29T18:13:49.018Z</time></trkpt><trkpt lat="43.9180432" lon="10.6620696"><ele>549.0</ele><time>2026-04-29T18:13:51.016Z</time></trkpt><trkpt lat="43.9179852" lon="10.661978"><ele>550.0</ele><time>2026-04-29T18:13:54.001Z</time></trkpt><trkpt lat="43.917896" lon="10.6619423"><ele>547.0</ele><time>2026-04-29T18:13:56.011Z</time></trkpt><trkpt lat="43.9179004" lon="10.6618144"><ele>544.0</ele><time>2026-04-29T18:13:59.018Z</time></trkpt><trkpt lat="43.917974" lon="10.6617565"><ele>541.0</ele><time>2026-04-29T18:14:00.012Z</time></trkpt><trkpt lat="43.9180417" lon="10.6617397"><ele>538.0</ele><time>2026-04-29T18:14:01.016Z</time></trkpt><trkpt lat="43.918107" lon="10.6617457"><ele>535.0</ele><time>2026-04-29T18:14:02.007Z</time></trkpt><trkpt lat="43.918196" lon="10.661772"><ele>532.0</ele><time>2026-04-29T18:14:03.019Z</time></trkpt><trkpt lat="43.9182863" lon="10.661806"><ele>532.0</ele><time>2026-04-29T18:14:04.017Z</time></trkpt><trkpt lat="43.9183755" lon="10.6618363"><ele>532.0</ele><time>2026-04-29T18:14:05.017Z</time></trkpt><trkpt lat="43.9184569" lon="10.6618438"><ele>532.0</ele><time>2026-04-29T18:14:06.02Z</time></trkpt><trkpt lat="43.9185265" lon="10.6618436"><ele>532.0</ele><time>2026-04-29T18:14:07.015Z</time></trkpt><trkpt lat="43.918589" lon="10.6618232"><ele>532.0</ele><time>2026-04-29T18:14:08.013Z</time></trkpt><trkpt lat="43.9186458" lon="10.6617072"><ele>532.0</ele><time>2026-04-29T18:14:10.017Z</time></trkpt><trkpt lat="43.9186392" lon="10.6615348"><ele>531.1666666666667</ele><time>2026-04-29T18:14:12.002Z</time></trkpt><trkpt lat="43.91862" lon="10.661426"><ele>530.3333333333334</ele><time>2026-04-29T18:14:13.021Z</time></trkpt><trkpt lat="43.9186081" lon="10.6613089"><ele>529.5</ele><time>2026-04-29T18:14:14.021Z</time></trkpt><trkpt lat="43.9186042" lon="10.6611913"><ele>528.6666666666666</ele><time>2026-04-29T18:14:15.018Z</time></trkpt><trkpt lat="43.9186254" lon="10.6610853"><ele>527.8333333333333</ele><time>2026-04-29T18:14:16.026Z</time></trkpt><trkpt lat="43.918691" lon="10.6609763"><ele>527.0</ele><time>2026-04-29T18:14:17.005Z</time></trkpt><trkpt lat="43.9187517" lon="10.6608655"><ele>527.0</ele><time>2026-04-29T18:14:17.998Z</time></trkpt><trkpt lat="43.9188097" lon="10.660759"><ele>527.0</ele><time>2026-04-29T18:14:19.006Z</time></trkpt><trkpt lat="43.9188655" lon="10.6606636"><ele>527.0</ele><time>2026-04-29T18:14:20.01Z</time></trkpt><trkpt lat="43.918923" lon="10.6605928"><ele>527.0</ele><time>2026-04-29T18:14:21.026Z</time></trkpt><trkpt lat="43.9190349" lon="10.6605444"><ele>527.0</ele><time>2026-04-29T18:14:23.019Z</time></trkpt><trkpt lat="43.9191004" lon="10.6605577"><ele>527.0</ele><time>2026-04-29T18:14:24.018Z</time></trkpt><trkpt lat="43.9192087" lon="10.660601"><ele>527.0</ele><time>2026-04-29T18:14:26.01Z</time></trkpt><trkpt lat="43.9192816" lon="10.6605348"><ele>527.0</ele><time>2026-04-29T18:14:28.004Z</time></trkpt><trkpt lat="43.9193056" lon="10.6604441"><ele>527.0</ele><time>2026-04-29T18:14:29.024Z</time></trkpt><trkpt lat="43.9193207" lon="10.6603307"><ele>527.0</ele><time>2026-04-29T18:14:30.026Z</time></trkpt><trkpt lat="43.9193344" lon="10.6602418"><ele>527.0</ele><time>2026-04-29T18:14:31.018Z</time></trkpt><trkpt lat="43.9194594" lon="10.6602251"><ele>527.0</ele><time>2026-04-29T18:14:33.011Z</time></trkpt><trkpt lat="43.9195374" lon="10.6602558"><ele>528.3333333333333</ele><time>2026-04-29T18:14:34.021Z</time></trkpt><trkpt lat="43.9196102" lon="10.6602987"><ele>529.6666666666666</ele><time>2026-04-29T18:14:35.013Z</time></trkpt><trkpt lat="43.9196835" lon="10.6603549"><ele>531.0</ele><time>2026-04-29T18:14:36.018Z</time></trkpt><trkpt lat="43.9197509" lon="10.6604098"><ele>532.3333333333334</ele><time>2026-04-29T18:14:37.016Z</time></trkpt><trkpt lat="43.9198219" lon="10.6604691"><ele>533.6666666666667</ele><time>2026-04-29T18:14:38.028Z</time></trkpt><trkpt lat="43.9198983" lon="10.6605268"><ele>535.0</ele><time>2026-04-29T18:14:38.996Z</time></trkpt><trkpt lat="43.9199634" lon="10.6605785"><ele>535.0</ele><time>2026-04-29T18:14:39.999Z</time></trkpt><trkpt lat="43.920048" lon="10.6606138"><ele>535.0</ele><time>2026-04-29T18:14:42.025Z</time></trkpt><trkpt lat="43.9200833" lon="10.6604916"><ele>535.0</ele><time>2026-04-29T18:14:44.019Z</time></trkpt><trkpt lat="43.9200341" lon="10.6603193"><ele>535.0</ele><time>2026-04-29T18:14:46.009Z</time></trkpt><trkpt lat="43.9199753" lon="10.6601998"><ele>535.0</ele><time>2026-04-29T18:14:47.005Z</time></trkpt><trkpt lat="43.9199138" lon="10.6600786"><ele>533.4</ele><time>2026-04-29T18:14:48.013Z</time></trkpt><trkpt lat="43.9198531" lon="10.6599686"><ele>531.8</ele><time>2026-04-29T18:14:49.002Z</time></trkpt><trkpt lat="43.9197846" lon="10.6598621"><ele>530.2</ele><time>2026-04-29T18:14:50.017Z</time></trkpt><trkpt lat="43.9197176" lon="10.6597465"><ele>528.6</ele><time>2026-04-29T18:14:51.014Z</time></trkpt><trkpt lat="43.9196454" lon="10.6596407"><ele>527.0</ele><time>2026-04-29T18:14:52.009Z</time></trkpt><trkpt lat="43.9195637" lon="10.6595348"><ele>523.8000000000001</ele><time>2026-04-29T18:14:53.02Z</time></trkpt><trkpt lat="43.9194888" lon="10.6594436"><ele>520.6</ele><time>2026-04-29T18:14:54.004Z</time></trkpt><trkpt lat="43.9194229" lon="10.6593422"><ele>517.4000000000001</ele><time>2026-04-29T18:14:55.003Z</time></trkpt><trkpt lat="43.9193485" lon="10.6592419"><ele>514.2</ele><time>2026-04-29T18:14:56.003Z</time></trkpt><trkpt lat="43.919272" lon="10.6591416"><ele>511.0</ele><time>2026-04-29T18:14:57.011Z</time></trkpt><trkpt lat="43.9191892" lon="10.6590639"><ele>509.50000000000006</ele><time>2026-04-29T18:14:58.013Z</time></trkpt><trkpt lat="43.9191134" lon="10.6589884"><ele>508.0</ele><time>2026-04-29T18:14:59.007Z</time></trkpt><trkpt lat="43.9190389" lon="10.6589415"><ele>506.5</ele><time>2026-04-29T18:15:00.015Z</time></trkpt><trkpt lat="43.9189704" lon="10.6589026"><ele>505.0</ele><time>2026-04-29T18:15:01.018Z</time></trkpt><trkpt lat="43.9188787" lon="10.658883"><ele>503.50000000000006</ele><time>2026-04-29T18:15:02.023Z</time></trkpt><trkpt lat="43.918778" lon="10.6588731"><ele>502.0</ele><time>2026-04-29T18:15:03.016Z</time></trkpt><trkpt lat="43.9186826" lon="10.658867"><ele>502.0</ele><time>2026-04-29T18:15:04.007Z</time></trkpt><trkpt lat="43.9185911" lon="10.6588737"><ele>502.00000000000006</ele><time>2026-04-29T18:15:05.017Z</time></trkpt><trkpt lat="43.9185002" lon="10.6588956"><ele>502.00000000000006</ele><time>2026-04-29T18:15:06.01Z</time></trkpt><trkpt lat="43.9184048" lon="10.6589306"><ele>502.0</ele><time>2026-04-29T18:15:07.017Z</time></trkpt><trkpt lat="43.918303" lon="10.6589705"><ele>502.0</ele><time>2026-04-29T18:15:08.01Z</time></trkpt><trkpt lat="43.9181993" lon="10.6590134"><ele>500.20000000000005</ele><time>2026-04-29T18:15:09.004Z</time></trkpt><trkpt lat="43.9181025" lon="10.6590598"><ele>498.40000000000003</ele><time>2026-04-29T18:15:10.015Z</time></trkpt><trkpt lat="43.9180073" lon="10.6591091"><ele>496.59999999999997</ele><time>2026-04-29T18:15:11.011Z</time></trkpt><trkpt lat="43.9179173" lon="10.6591336"><ele>494.79999999999995</ele><time>2026-04-29T18:15:12.011Z</time></trkpt><trkpt lat="43.9178316" lon="10.6591483"><ele>493.0</ele><time>2026-04-29T18:15:13.012Z</time></trkpt><trkpt lat="43.917755" lon="10.659156"><ele>493.0</ele><time>2026-04-29T18:15:14.002Z</time></trkpt><trkpt lat="43.9176718" lon="10.6591503"><ele>492.99999999999994</ele><time>2026-04-29T18:15:15.016Z</time></trkpt><trkpt lat="43.917572" lon="10.6591353"><ele>492.99999999999994</ele><time>2026-04-29T18:15:16Z</time></trkpt><trkpt lat="43.9174613" lon="10.6591166"><ele>493.0</ele><time>2026-04-29T18:15:17.009Z</time></trkpt><trkpt lat="43.9173594" lon="10.6591015"><ele>493.0</ele><time>2026-04-29T18:15:17.999Z</time></trkpt><trkpt lat="43.9172579" lon="10.6590888"><ele>491.83333333333337</ele><time>2026-04-29T18:15:19.013Z</time></trkpt><trkpt lat="43.9171638" lon="10.6590733"><ele>490.6666666666667</ele><time>2026-04-29T18:15:20.009Z</time></trkpt><trkpt lat="43.9170823" lon="10.6590482"><ele>489.5</ele><time>2026-04-29T18:15:21.024Z</time></trkpt><trkpt lat="43.9170066" lon="10.6590213"><ele>488.33333333333337</ele><time>2026-04-29T18:15:22.011Z</time></trkpt><trkpt lat="43.9169394" lon="10.6589893"><ele>487.1666666666667</ele><time>2026-04-29T18:15:23.014Z</time></trkpt><trkpt lat="43.916867" lon="10.6589705"><ele>486.0</ele><time>2026-04-29T18:15:24.001Z</time></trkpt><trkpt lat="43.9167796" lon="10.6589613"><ele>483.8333333333333</ele><time>2026-04-29T18:15:25.005Z</time></trkpt><trkpt lat="43.9166891" lon="10.6589678"><ele>481.66666666666663</ele><time>2026-04-29T18:15:26.012Z</time></trkpt><trkpt lat="43.9166179" lon="10.6589545"><ele>479.5</ele><time>2026-04-29T18:15:27.007Z</time></trkpt><trkpt lat="43.9165446" lon="10.6589138"><ele>477.3333333333333</ele><time>2026-04-29T18:15:28.011Z</time></trkpt><trkpt lat="43.9164723" lon="10.6588644"><ele>475.16666666666663</ele><time>2026-04-29T18:15:29.017Z</time></trkpt><trkpt lat="43.9163999" lon="10.6588172"><ele>473.0</ele><time>2026-04-29T18:15:30.007Z</time></trkpt><trkpt lat="43.9163196" lon="10.6587943"><ele>473.0</ele><time>2026-04-29T18:15:31.015Z</time></trkpt><trkpt lat="43.9162379" lon="10.6587703"><ele>472.99999999999994</ele><time>2026-04-29T18:15:32.013Z</time></trkpt><trkpt lat="43.9161375" lon="10.6587473"><ele>472.99999999999994</ele><time>2026-04-29T18:15:33.014Z</time></trkpt><trkpt lat="43.9160347" lon="10.6587403"><ele>473.0</ele><time>2026-04-29T18:15:34.007Z</time></trkpt><trkpt lat="43.91593" lon="10.6587558"><ele>473.0</ele><time>2026-04-29T18:15:35.012Z</time></trkpt><trkpt lat="43.9158266" lon="10.6587856"><ele>472.2</ele><time>2026-04-29T18:15:36.016Z</time></trkpt><trkpt lat="43.9157274" lon="10.6588292"><ele>471.4</ele><time>2026-04-29T18:15:37.01Z</time></trkpt><trkpt lat="43.9156256" lon="10.6588814"><ele>470.59999999999997</ele><time>2026-04-29T18:15:38.025Z</time></trkpt><trkpt lat="43.9155201" lon="10.658927"><ele>469.79999999999995</ele><time>2026-04-29T18:15:39.013Z</time></trkpt><trkpt lat="43.9154132" lon="10.6589771"><ele>469.0</ele><time>2026-04-29T18:15:40.007Z</time></trkpt><trkpt lat="43.9153009" lon="10.659023"><ele>469.0</ele><time>2026-04-29T18:15:41.005Z</time></trkpt><trkpt lat="43.9151969" lon="10.6590669"><ele>469.0</ele><time>2026-04-29T18:15:42.023Z</time></trkpt><trkpt lat="43.9151027" lon="10.6590985"><ele>469.0</ele><time>2026-04-29T18:15:43.011Z</time></trkpt><trkpt lat="43.9150114" lon="10.6591447"><ele>469.0</ele><time>2026-04-29T18:15:44.012Z</time></trkpt><trkpt lat="43.9149156" lon="10.6592041"><ele>469.0</ele><time>2026-04-29T18:15:45.018Z</time></trkpt><trkpt lat="43.9148185" lon="10.6592824"><ele>469.4</ele><time>2026-04-29T18:15:46.013Z</time></trkpt><trkpt lat="43.9147284" lon="10.6593575"><ele>469.79999999999995</ele><time>2026-04-29T18:15:47.017Z</time></trkpt><trkpt lat="43.9146528" lon="10.6594384"><ele>470.20000000000005</ele><time>2026-04-29T18:15:48.013Z</time></trkpt><trkpt lat="43.9145795" lon="10.6595362"><ele>470.6</ele><time>2026-04-29T18:15:49.002Z</time></trkpt><trkpt lat="43.9145038" lon="10.6596284"><ele>471.0</ele><time>2026-04-29T18:15:49.999Z</time></trkpt><trkpt lat="43.9144194" lon="10.6597157"><ele>467.6</ele><time>2026-04-29T18:15:51.007Z</time></trkpt><trkpt lat="43.914337" lon="10.6597927"><ele>464.20000000000005</ele><time>2026-04-29T18:15:52.004Z</time></trkpt><trkpt lat="43.9142487" lon="10.6598499"><ele>460.79999999999995</ele><time>2026-04-29T18:15:53.015Z</time></trkpt><trkpt lat="43.9141603" lon="10.6598867"><ele>457.4</ele><time>2026-04-29T18:15:54.008Z</time></trkpt><trkpt lat="43.9140643" lon="10.6599332"><ele>454.0</ele><time>2026-04-29T18:15:55.014Z</time></trkpt><trkpt lat="43.9139656" lon="10.659974"><ele>453.4</ele><time>2026-04-29T18:15:56.014Z</time></trkpt><trkpt lat="43.9138716" lon="10.6600093"><ele>452.79999999999995</ele><time>2026-04-29T18:15:57.005Z</time></trkpt><trkpt lat="43.9137845" lon="10.6600581"><ele>452.20000000000005</ele><time>2026-04-29T18:15:58.013Z</time></trkpt><trkpt lat="43.913697" lon="10.660115"><ele>451.6</ele><time>2026-04-29T18:15:59.013Z</time></trkpt><trkpt lat="43.9135994" lon="10.6601766"><ele>451.0</ele><time>2026-04-29T18:16:00.018Z</time></trkpt><trkpt lat="43.9135062" lon="10.6602443"><ele>450.71428571428567</ele><time>2026-04-29T18:16:01.022Z</time></trkpt><trkpt lat="43.9134258" lon="10.6602837"><ele>450.42857142857144</ele><time>2026-04-29T18:16:01.996Z</time></trkpt><trkpt lat="43.9133505" lon="10.6602992"><ele>450.1428571428571</ele><time>2026-04-29T18:16:03.014Z</time></trkpt><trkpt lat="43.9132806" lon="10.6603111"><ele>449.85714285714283</ele><time>2026-04-29T18:16:04.015Z</time></trkpt><trkpt lat="43.9132085" lon="10.6603047"><ele>449.57142857142856</ele><time>2026-04-29T18:16:05.003Z</time></trkpt><trkpt lat="43.9131405" lon="10.6602738"><ele>449.2857142857143</ele><time>2026-04-29T18:16:06.003Z</time></trkpt><trkpt lat="43.91307" lon="10.6602441"><ele>449.0</ele><time>2026-04-29T18:16:07.011Z</time></trkpt><trkpt lat="43.9129452" lon="10.660223"><ele>448.99999999999994</ele><time>2026-04-29T18:16:09.013Z</time></trkpt><trkpt lat="43.9128813" lon="10.660241"><ele>449.0</ele><time>2026-04-29T18:16:10.006Z</time></trkpt><trkpt lat="43.912812" lon="10.6602681"><ele>449.0</ele><time>2026-04-29T18:16:11.006Z</time></trkpt><trkpt lat="43.912736" lon="10.660313"><ele>449.0</ele><time>2026-04-29T18:16:12.008Z</time></trkpt><trkpt lat="43.9126515" lon="10.6603594"><ele>448.99999999999994</ele><time>2026-04-29T18:16:13.009Z</time></trkpt><trkpt lat="43.9125728" lon="10.6604093"><ele>449.0</ele><time>2026-04-29T18:16:14.012Z</time></trkpt><trkpt lat="43.9124936" lon="10.6604536"><ele>442.79999999999995</ele><time>2026-04-29T18:16:15.022Z</time></trkpt><trkpt lat="43.912418" lon="10.6604979"><ele>436.59999999999997</ele><time>2026-04-29T18:16:16.022Z</time></trkpt><trkpt lat="43.9123454" lon="10.6605567"><ele>430.4</ele><time>2026-04-29T18:16:17.012Z</time></trkpt><trkpt lat="43.912271" lon="10.6606313"><ele>424.2</ele><time>2026-04-29T18:16:18.012Z</time></trkpt><trkpt lat="43.9121852" lon="10.6607059"><ele>418.0</ele><time>2026-04-29T18:16:19.008Z</time></trkpt><trkpt lat="43.9121" lon="10.6607858"><ele>418.0</ele><time>2026-04-29T18:16:20.009Z</time></trkpt><trkpt lat="43.9120162" lon="10.6608638"><ele>418.0</ele><time>2026-04-29T18:16:21.02Z</time></trkpt><trkpt lat="43.9119235" lon="10.6609327"><ele>418.0</ele><time>2026-04-29T18:16:22.005Z</time></trkpt><trkpt lat="43.9118417" lon="10.6609934"><ele>418.0</ele><time>2026-04-29T18:16:23.011Z</time></trkpt><trkpt lat="43.911771" lon="10.6610418"><ele>418.0</ele><time>2026-04-29T18:16:24.001Z</time></trkpt><trkpt lat="43.9116969" lon="10.6610702"><ele>417.50000000000006</ele><time>2026-04-29T18:16:25.025Z</time></trkpt><trkpt lat="43.9116211" lon="10.6610784"><ele>417.0</ele><time>2026-04-29T18:16:26.017Z</time></trkpt><trkpt lat="43.9115385" lon="10.6610763"><ele>416.5</ele><time>2026-04-29T18:16:27.015Z</time></trkpt><trkpt lat="43.9114593" lon="10.6610421"><ele>416.0</ele><time>2026-04-29T18:16:28.006Z</time></trkpt><trkpt lat="43.9113852" lon="10.6609984"><ele>415.50000000000006</ele><time>2026-04-29T18:16:29.008Z</time></trkpt><trkpt lat="43.911308" lon="10.6609309"><ele>415.0</ele><time>2026-04-29T18:16:30.014Z</time></trkpt><trkpt lat="43.9112382" lon="10.6608613"><ele>415.00000000000006</ele><time>2026-04-29T18:16:31.015Z</time></trkpt><trkpt lat="43.911167" lon="10.6608088"><ele>415.0</ele><time>2026-04-29T18:16:32.012Z</time></trkpt><trkpt lat="43.9110891" lon="10.6607731"><ele>415.0</ele><time>2026-04-29T18:16:33.003Z</time></trkpt><trkpt lat="43.9110183" lon="10.6607511"><ele>415.0</ele><time>2026-04-29T18:16:34.004Z</time></trkpt><trkpt lat="43.910952" lon="10.6607234"><ele>415.00000000000006</ele><time>2026-04-29T18:16:35.008Z</time></trkpt><trkpt lat="43.9108843" lon="10.6606794"><ele>415.0</ele><time>2026-04-29T18:16:36.008Z</time></trkpt><trkpt lat="43.9108138" lon="10.6606335"><ele>416.00000000000006</ele><time>2026-04-29T18:16:37.016Z</time></trkpt><trkpt lat="43.9107362" lon="10.6605778"><ele>417.0</ele><time>2026-04-29T18:16:38.007Z</time></trkpt><trkpt lat="43.9106641" lon="10.6604992"><ele>418.0</ele><time>2026-04-29T18:16:38.998Z</time></trkpt><trkpt lat="43.9105987" lon="10.660418"><ele>419.0</ele><time>2026-04-29T18:16:40.002Z</time></trkpt><trkpt lat="43.9105345" lon="10.6603483"><ele>420.00000000000006</ele><time>2026-04-29T18:16:41.01Z</time></trkpt><trkpt lat="43.9104732" lon="10.6602703"><ele>421.0</ele><time>2026-04-29T18:16:42.019Z</time></trkpt><trkpt lat="43.9103998" lon="10.6602055"><ele>421.00000000000006</ele><time>2026-04-29T18:16:43.017Z</time></trkpt><trkpt lat="43.9103248" lon="10.6601511"><ele>421.0</ele><time>2026-04-29T18:16:44.014Z</time></trkpt><trkpt lat="43.9102524" lon="10.6601058"><ele>421.0</ele><time>2026-04-29T18:16:45.001Z</time></trkpt><trkpt lat="43.9101763" lon="10.6600646"><ele>421.0</ele><time>2026-04-29T18:16:46.026Z</time></trkpt><trkpt lat="43.9101032" lon="10.6600362"><ele>421.00000000000006</ele><time>2026-04-29T18:16:47.004Z</time></trkpt><trkpt lat="43.9099876" lon="10.6600055"><ele>421.0</ele><time>2026-04-29T18:16:49.02Z</time></trkpt><trkpt lat="43.9099194" lon="10.660012"><ele>415.83333333333337</ele><time>2026-04-29T18:16:50.008Z</time></trkpt><trkpt lat="43.9098479" lon="10.6600189"><ele>410.6666666666667</ele><time>2026-04-29T18:16:51.017Z</time></trkpt><trkpt lat="43.9097746" lon="10.6600292"><ele>405.5</ele><time>2026-04-29T18:16:52.005Z</time></trkpt><trkpt lat="43.9096895" lon="10.6600294"><ele>400.33333333333337</ele><time>2026-04-29T18:16:53.017Z</time></trkpt><trkpt lat="43.909605" lon="10.6600085"><ele>395.1666666666667</ele><time>2026-04-29T18:16:54.002Z</time></trkpt><trkpt lat="43.9095257" lon="10.659999"><ele>390.0</ele><time>2026-04-29T18:16:55.014Z</time></trkpt><trkpt lat="43.9094489" lon="10.659992"><ele>390.0</ele><time>2026-04-29T18:16:56.002Z</time></trkpt><trkpt lat="43.9093782" lon="10.6599742"><ele>390.0</ele><time>2026-04-29T18:16:57.003Z</time></trkpt><trkpt lat="43.9092928" lon="10.6599119"><ele>390.0</ele><time>2026-04-29T18:16:59.015Z</time></trkpt><trkpt lat="43.9092953" lon="10.6597772"><ele>390.0</ele><time>2026-04-29T18:17:01.02Z</time></trkpt><trkpt lat="43.9093183" lon="10.6596747"><ele>390.0</ele><time>2026-04-29T18:17:02Z</time></trkpt><trkpt lat="43.909345" lon="10.6595618"><ele>390.0</ele><time>2026-04-29T18:17:03.028Z</time></trkpt><trkpt lat="43.9093731" lon="10.6594497"><ele>392.1666666666667</ele><time>2026-04-29T18:17:04.007Z</time></trkpt><trkpt lat="43.9094017" lon="10.659339"><ele>394.33333333333337</ele><time>2026-04-29T18:17:05.003Z</time></trkpt><trkpt lat="43.9094288" lon="10.6592278"><ele>396.5</ele><time>2026-04-29T18:17:06Z</time></trkpt><trkpt lat="43.9094475" lon="10.659136"><ele>398.6666666666667</ele><time>2026-04-29T18:17:07.026Z</time></trkpt><trkpt lat="43.9094364" lon="10.6590073"><ele>400.83333333333337</ele><time>2026-04-29T18:17:09.014Z</time></trkpt><trkpt lat="43.9093813" lon="10.6588865"><ele>403.0</ele><time>2026-04-29T18:17:11.013Z</time></trkpt><trkpt lat="43.9092634" lon="10.6588509"><ele>397.50000000000006</ele><time>2026-04-29T18:17:13.002Z</time></trkpt><trkpt lat="43.9091968" lon="10.6588686"><ele>392.0</ele><time>2026-04-29T18:17:14.009Z</time></trkpt><trkpt lat="43.9091366" lon="10.658912"><ele>386.5</ele><time>2026-04-29T18:17:15.001Z</time></trkpt><trkpt lat="43.9090788" lon="10.6589632"><ele>381.0</ele><time>2026-04-29T18:17:16.005Z</time></trkpt><trkpt lat="43.908978" lon="10.6590628"><ele>375.5</ele><time>2026-04-29T18:17:18.008Z</time></trkpt><trkpt lat="43.9089166" lon="10.6590945"><ele>370.0</ele><time>2026-04-29T18:17:19.01Z</time></trkpt><trkpt lat="43.9088405" lon="10.6591198"><ele>370.0</ele><time>2026-04-29T18:17:20.013Z</time></trkpt><trkpt lat="43.9087561" lon="10.6591391"><ele>370.0</ele><time>2026-04-29T18:17:21.013Z</time></trkpt><trkpt lat="43.9086674" lon="10.6591546"><ele>370.0</ele><time>2026-04-29T18:17:22.02Z</time></trkpt><trkpt lat="43.9085762" lon="10.6591793"><ele>370.0</ele><time>2026-04-29T18:17:22.999Z</time></trkpt><trkpt lat="43.9084865" lon="10.6592037"><ele>370.0</ele><time>2026-04-29T18:17:24.013Z</time></trkpt><trkpt lat="43.9083989" lon="10.6592271"><ele>370.0</ele><time>2026-04-29T18:17:25.025Z</time></trkpt><trkpt lat="43.9083115" lon="10.6592481"><ele>367.16666666666663</ele><time>2026-04-29T18:17:26.008Z</time></trkpt><trkpt lat="43.908228" lon="10.6592632"><ele>364.3333333333333</ele><time>2026-04-29T18:17:27.028Z</time></trkpt><trkpt lat="43.908156" lon="10.659276"><ele>361.5</ele><time>2026-04-29T18:17:28.005Z</time></trkpt><trkpt lat="43.9080882" lon="10.6592925"><ele>358.6666666666667</ele><time>2026-04-29T18:17:29.008Z</time></trkpt><trkpt lat="43.9079869" lon="10.6593898"><ele>355.83333333333337</ele><time>2026-04-29T18:17:31.008Z</time></trkpt><trkpt lat="43.9079537" lon="10.6594795"><ele>353.0</ele><time>2026-04-29T18:17:32.012Z</time></trkpt><trkpt lat="43.9079166" lon="10.6595782"><ele>349.59999999999997</ele><time>2026-04-29T18:17:33.015Z</time></trkpt><trkpt lat="43.9078674" lon="10.6596779"><ele>346.2</ele><time>2026-04-29T18:17:34.016Z</time></trkpt><trkpt lat="43.9078003" lon="10.6597571"><ele>342.8</ele><time>2026-04-29T18:17:35.015Z</time></trkpt><trkpt lat="43.9077386" lon="10.6598247"><ele>339.4</ele><time>2026-04-29T18:17:36.009Z</time></trkpt><trkpt lat="43.9076235" lon="10.6598632"><ele>336.0</ele><time>2026-04-29T18:17:38.006Z</time></trkpt><trkpt lat="43.9075081" lon="10.6598329"><ele>334.8333333333333</ele><time>2026-04-29T18:17:40Z</time></trkpt><trkpt lat="43.9074502" lon="10.6597681"><ele>333.6666666666667</ele><time>2026-04-29T18:17:41.018Z</time></trkpt><trkpt lat="43.9074023" lon="10.6596688"><ele>332.5</ele><time>2026-04-29T18:17:42.012Z</time></trkpt><trkpt lat="43.9073773" lon="10.6595537"><ele>331.33333333333337</ele><time>2026-04-29T18:17:43.014Z</time></trkpt><trkpt lat="43.9073508" lon="10.6594373"><ele>330.1666666666667</ele><time>2026-04-29T18:17:44.018Z</time></trkpt><trkpt lat="43.9073278" lon="10.6593246"><ele>329.0</ele><time>2026-04-29T18:17:45.026Z</time></trkpt><trkpt lat="43.9072969" lon="10.6592297"><ele>332.6</ele><time>2026-04-29T18:17:46.015Z</time></trkpt><trkpt lat="43.9072121" lon="10.6591372"><ele>336.2</ele><time>2026-04-29T18:17:48.023Z</time></trkpt><trkpt lat="43.9070787" lon="10.6592248"><ele>339.8</ele><time>2026-04-29T18:17:50.022Z</time></trkpt><trkpt lat="43.9070026" lon="10.6592747"><ele>343.40000000000003</ele><time>2026-04-29T18:17:51.011Z</time></trkpt><trkpt lat="43.9069402" lon="10.6593107"><ele>347.0</ele><time>2026-04-29T18:17:52.016Z</time></trkpt><trkpt lat="43.9068769" lon="10.659315"><ele>347.0</ele><time>2026-04-29T18:17:53.026Z</time></trkpt><trkpt lat="43.9067706" lon="10.6592333"><ele>347.0</ele><time>2026-04-29T18:17:55.009Z</time></trkpt><trkpt lat="43.9067096" lon="10.6591803"><ele>347.0</ele><time>2026-04-29T18:17:56.013Z</time></trkpt><trkpt lat="43.9066442" lon="10.6591256"><ele>347.0</ele><time>2026-04-29T18:17:57.021Z</time></trkpt><trkpt lat="43.9065765" lon="10.659076"><ele>347.0</ele><time>2026-04-29T18:17:58.009Z</time></trkpt><trkpt lat="43.9064991" lon="10.6590066"><ele>347.0</ele><time>2026-04-29T18:17:59.016Z</time></trkpt><trkpt lat="43.9064165" lon="10.6589374"><ele>347.20000000000005</ele><time>2026-04-29T18:18:00.024Z</time></trkpt><trkpt lat="43.9063329" lon="10.6588545"><ele>347.4</ele><time>2026-04-29T18:18:01.029Z</time></trkpt><trkpt lat="43.906254" lon="10.6587592"><ele>347.6</ele><time>2026-04-29T18:18:02.031Z</time></trkpt><trkpt lat="43.9061721" lon="10.6586685"><ele>347.79999999999995</ele><time>2026-04-29T18:18:03.017Z</time></trkpt><trkpt lat="43.9060962" lon="10.6585776"><ele>348.0</ele><time>2026-04-29T18:18:04.017Z</time></trkpt><trkpt lat="43.9060208" lon="10.6585064"><ele>348.0</ele><time>2026-04-29T18:18:05.006Z</time></trkpt><trkpt lat="43.9059512" lon="10.6584406"><ele>348.0</ele><time>2026-04-29T18:18:06.017Z</time></trkpt><trkpt lat="43.9058906" lon="10.6583834"><ele>348.0</ele><time>2026-04-29T18:18:07.014Z</time></trkpt><trkpt lat="43.9058311" lon="10.658322"><ele>348.0</ele><time>2026-04-29T18:18:08.014Z</time></trkpt><trkpt lat="43.9057826" lon="10.6582342"><ele>348.0</ele><time>2026-04-29T18:18:09.021Z</time></trkpt><trkpt lat="43.90574" lon="10.658133"><ele>348.0</ele><time>2026-04-29T18:18:10.002Z</time></trkpt><trkpt lat="43.9056954" lon="10.6579843"><ele>344.4</ele><time>2026-04-29T18:18:12.012Z</time></trkpt><trkpt lat="43.9057003" lon="10.6578167"><ele>340.79999999999995</ele><time>2026-04-29T18:18:14.004Z</time></trkpt><trkpt lat="43.9057111" lon="10.6577266"><ele>337.2</ele><time>2026-04-29T18:18:15.013Z</time></trkpt><trkpt lat="43.905715" lon="10.6576329"><ele>333.6</ele><time>2026-04-29T18:18:16.021Z</time></trkpt><trkpt lat="43.9056758" lon="10.6574771"><ele>330.0</ele><time>2026-04-29T18:18:18.013Z</time></trkpt><trkpt lat="43.9055993" lon="10.6573619"><ele>328.0</ele><time>2026-04-29T18:18:20.006Z</time></trkpt><trkpt lat="43.905556" lon="10.6572508"><ele>326.0</ele><time>2026-04-29T18:18:22.03Z</time></trkpt><trkpt lat="43.9056065" lon="10.6570984"><ele>324.0</ele><time>2026-04-29T18:18:24.011Z</time></trkpt><trkpt lat="43.9056444" lon="10.6570249"><ele>322.0</ele><time>2026-04-29T18:18:25.009Z</time></trkpt><trkpt lat="43.9056801" lon="10.656895"><ele>320.0</ele><time>2026-04-29T18:18:27.024Z</time></trkpt><trkpt lat="43.9056473" lon="10.6567961"><ele>316.8</ele><time>2026-04-29T18:18:29.012Z</time></trkpt><trkpt lat="43.9055604" lon="10.6567436"><ele>313.6</ele><time>2026-04-29T18:18:31.023Z</time></trkpt><trkpt lat="43.9054578" lon="10.6567864"><ele>310.4</ele><time>2026-04-29T18:18:33.014Z</time></trkpt><trkpt lat="43.9053671" lon="10.6568348"><ele>307.2</ele><time>2026-04-29T18:18:35.024Z</time></trkpt><trkpt lat="43.905314" lon="10.656747"><ele>304.0</ele><time>2026-04-29T18:18:38.013Z</time></trkpt><trkpt lat="43.9053566" lon="10.6566272"><ele>304.0</ele><time>2026-04-29T18:18:40.004Z</time></trkpt><trkpt lat="43.9053885" lon="10.6565092"><ele>304.0</ele><time>2026-04-29T18:18:42.011Z</time></trkpt><trkpt lat="43.9053433" lon="10.656394"><ele>304.0</ele><time>2026-04-29T18:18:44.014Z</time></trkpt><trkpt lat="43.9052544" lon="10.6562834"><ele>304.0</ele><time>2026-04-29T18:18:46.024Z</time></trkpt><trkpt lat="43.9051951" lon="10.6562305"><ele>304.0</ele><time>2026-04-29T18:18:47.015Z</time></trkpt><trkpt lat="43.9051299" lon="10.6561785"><ele>301.2</ele><time>2026-04-29T18:18:48.022Z</time></trkpt><trkpt lat="43.9050578" lon="10.6561311"><ele>298.4</ele><time>2026-04-29T18:18:49.011Z</time></trkpt><trkpt lat="43.9049411" lon="10.6560688"><ele>295.6</ele><time>2026-04-29T18:18:51.013Z</time></trkpt><trkpt lat="43.9048542" lon="10.6559697"><ele>292.8</ele><time>2026-04-29T18:18:53.017Z</time></trkpt><trkpt lat="43.9048152" lon="10.6558874"><ele>290.0</ele><time>2026-04-29T18:18:54.007Z</time></trkpt><trkpt lat="43.9047803" lon="10.655797"><ele>287.8</ele><time>2026-04-29T18:18:55.01Z</time></trkpt><trkpt lat="43.9047445" lon="10.6557082"><ele>285.6</ele><time>2026-04-29T18:18:56.02Z</time></trkpt><trkpt lat="43.9047086" lon="10.6556185"><ele>283.4</ele><time>2026-04-29T18:18:57.018Z</time></trkpt><trkpt lat="43.9046582" lon="10.6554713"><ele>281.2</ele><time>2026-04-29T18:18:59.008Z</time></trkpt><trkpt lat="43.9046714" lon="10.6553252"><ele>279.0</ele><time>2026-04-29T18:19:01.025Z</time></trkpt><trkpt lat="43.9047603" lon="10.6551876"><ele>278.2857142857143</ele><time>2026-04-29T18:19:03.013Z</time></trkpt><trkpt lat="43.9048073" lon="10.6551151"><ele>277.57142857142856</ele><time>2026-04-29T18:19:04.016Z</time></trkpt><trkpt lat="43.9048406" lon="10.6550347"><ele>276.8571428571429</ele><time>2026-04-29T18:19:05.005Z</time></trkpt><trkpt lat="43.9048699" lon="10.6549442"><ele>276.1428571428571</ele><time>2026-04-29T18:19:06.013Z</time></trkpt><trkpt lat="43.9048942" lon="10.6548508"><ele>275.42857142857144</ele><time>2026-04-29T18:19:07.013Z</time></trkpt><trkpt lat="43.9049069" lon="10.6547628"><ele>274.7142857142857</ele><time>2026-04-29T18:19:08.012Z</time></trkpt><trkpt lat="43.9048992" lon="10.6546663"><ele>274.0</ele><time>2026-04-29T18:19:09.013Z</time></trkpt><trkpt lat="43.9048908" lon="10.6545579"><ele>272.42857142857144</ele><time>2026-04-29T18:19:10.016Z</time></trkpt><trkpt lat="43.9048857" lon="10.6544486"><ele>270.8571428571429</ele><time>2026-04-29T18:19:11.009Z</time></trkpt><trkpt lat="43.9048764" lon="10.6543444"><ele>269.2857142857143</ele><time>2026-04-29T18:19:12.005Z</time></trkpt><trkpt lat="43.9048603" lon="10.6542453"><ele>267.7142857142857</ele><time>2026-04-29T18:19:13.02Z</time></trkpt><trkpt lat="43.9048314" lon="10.6541636"><ele>266.1428571428571</ele><time>2026-04-29T18:19:14.002Z</time></trkpt><trkpt lat="43.9047926" lon="10.6540865"><ele>264.57142857142856</ele><time>2026-04-29T18:19:15.003Z</time></trkpt><trkpt lat="43.9047446" lon="10.6540135"><ele>263.0</ele><time>2026-04-29T18:19:16.021Z</time></trkpt><trkpt lat="43.9046718" lon="10.6539215"><ele>263.0</ele><time>2026-04-29T18:19:18.006Z</time></trkpt><trkpt lat="43.9045955" lon="10.6539122"><ele>263.0</ele><time>2026-04-29T18:19:20.014Z</time></trkpt></trkseg></trk></gpx>